     2              OBSERVATION DATA    GPS                 RINEX VERSION / TYPE
teqc 2000Jul20 Karen Wendt 20030613 19:57:46UTC             PGM / RUN BY / DATE
                                                            COMMENT
L2: 1 -> 1; 150 -> 5; 250 -> 9                              COMMENT
L2: 1 -> 1; 150 -> 5; 250 -> 9                              COMMENT
L2: 1 -> 1; 150 -> 5; 250 -> 9                              COMMENT
L2: 1 -> 1; 150 -> 5; 250 -> 9                              COMMENT
L2: 1 -> 1; 150 -> 5; 250 -> 9                              COMMENT
L2: 1 -> 1; 150 -> 5; 250 -> 9                              COMMENT
L2: 1 -> 1; 150 -> 5; 250 -> 9                              COMMENT
L2: 1 -> 1; 150 -> 5; 250 -> 9                              COMMENT
L2: 1 -> 1; 150 -> 5; 250 -> 9                              COMMENT
L2: 1 -> 1; 150 -> 5; 250 -> 9                              COMMENT
L2: 1 -> 1; 150 -> 5; 250 -> 9                              COMMENT
L2: 1 -> 1; 150 -> 5; 250 -> 9                              COMMENT
L2: 1 -> 1; 150 -> 5; 250 -> 9                              COMMENT
L2: 1 -> 1; 150 -> 5; 250 -> 9                              COMMENT
Original Marker Name: 6813 6813_BB_1905_10_USGS             COMMENT
Campaign Name: USGS Death Valley 2003                       COMMENT
4-Character Station Name: 6813                              COMMENT
6-Character Antenna Code: DMRCHT                            COMMENT
Vertical Measurement Point: BCR                             COMMENT
Vertical Offset to Rinex Ref. Point: 0.0348                 COMMENT
Radial Measurement Point: ECF                               COMMENT
Radial Offset to Rinex Ref. Point: 0.1897                   COMMENT
Antenna Height from Field Measurement: 0.8410 m             COMMENT
Additional Antenna Identification Info.:                    COMMENT
Turborogue and Ashtech Choke Ring                           COMMENT
Original XYZ: -2395537.1724 -4567680.7273 3742830.1935      COMMENT
New XYZ position is based on association with SCEC monument COMMENT
E1F4Q4G6+0011. Position of that monument is believed to be  COMMENT
valid to within 1 m horizontally; vertical accuracy         COMMENT
should be no worse than 3-times this value.                 COMMENT
                                                            COMMENT
Revised Rinex header created by UCSD GPS archive for        COMMENT
GSAC on 20-Apr-2005 (2005:110) 16:32:24 GMT                 COMMENT
For assistance contact dagnew@ucsd.edu                      COMMENT
or anderson@python.ucsd.edu                                 COMMENT
                                                            COMMENT
6813 BB10 1905                                              MARKER NAME
JMS US GEOLOGICAL SURVEY                                    OBSERVER / AGENCY
LP00108.707 ASHTECH Z-XII3 CD00                             REC # / TYPE / VERS
CR619992801 DORNE-MARGOL. TYPE T                            ANT # / TYPE
 -2395556.0000 -4567655.0000  3742816.0000                  APPROX POSITION XYZ
        0.7845        0.0000        0.0000                  ANTENNA: DELTA H/E/N
     1     1     0                                          WAVELENGTH FACT L1/2
     5    C1    L1    L2    P1    P2                        # / TYPES OF OBSERV
    30                                                      INTERVAL
  2003     6     4     0     0   30.000000                  TIME OF FIRST OBS
  2003     6     4    23    59   30.000000                  TIME OF LAST OBS
                                                            END OF HEADER
 03  6  4  0  0 30.0000000  0  7G30G20G14G25G11G 1G23
  24448758.630    -4452934.26349  -3459911.76745  24448758.567    24448767.560
  23090677.631   -10945468.66049  -8519195.42846  23090676.537    23090683.342
  22866542.709   -11888258.19249  -9242018.26146  22866541.932    22866547.974
  20593456.096   -24204718.95249 -18848858.44748  20593455.647    20593461.137
  21422337.441   -18852929.95749 -14670465.37247  21422336.845    21422342.095
  24212689.803    -5068468.85249  -3940846.44245  24212688.805    24212699.595
  24229528.984    -1356583.98649  -1038797.61745  24229528.096    24229537.770
 03  6  4  0  1  0.0000000  0  7G30G20G14G25G11G 1G23
  24449106.202    -4451106.33749  -3458487.39545  24449106.316    24449115.419
  23074016.579   -11033022.72949  -8587419.30546  23074015.491    23074022.342
  22880749.164   -11813602.88949  -9183845.33646  22880748.407    22880754.388
  20594138.530   -24201132.45949 -18846063.77248  20594138.105    20594143.602
  21424208.021   -18843100.05949 -14662805.71347  21424207.400    21424212.620
  24198481.295    -5143133.72149  -3999026.70045  24198480.382    24198491.087
  24243731.893    -1281946.92649   -980638.97845  24243731.014    24243740.902
 03  6  4  0  1 30.0000000  0  7G30G20G14G25G11G 1G23
  24449552.717    -4448759.51649  -3456658.73145  24449552.807    24449561.949
  23057368.693   -11120507.46949  -8655589.15746  23057367.637    23057374.481
  22894964.859   -11738898.70749  -9125634.32346  22894964.077    22894970.178
  20594920.214   -24197024.49449 -18842862.75148  20594919.814    20594925.327
  21426183.371   -18832719.23749 -14654716.76947  21426182.773    21426188.053
  24184298.984    -5217661.19449  -4057099.91345  24184298.059    24184308.688
  24257971.792    -1207116.55649   -922329.69245  24257970.946    24257980.766
 03  6  4  0  2  0.0000000  0  7G30G20G14G25G11G 1G23
  24450098.368    -4445892.66649  -3454424.82445  24450098.379    24450107.663
  23040734.469   -11207920.69049  -8723703.29946  23040733.413    23040740.220
  22909189.648   -11664146.26749  -9067385.70046  22909189.039    22909195.109
  20595801.102   -24192395.44349 -18839255.68648  20595800.684    20595806.166
  21428263.515   -18821787.85549 -14646198.81847  21428262.922    21428268.251
  24170143.052    -5292050.85549  -4115065.78445  24170142.178    24170152.539
  24272248.514    -1132092.98349   -863869.87745  24272247.632    24272257.414
 03  6  4  0  2 30.0000000  0  7G30G20G14G25G11G 1G23
  24450743.144    -4442505.49449  -3451785.47745  24450743.072    24450752.205
  23024113.962   -11295261.17549  -8791760.75446  23024112.969    23024119.741
  22923423.659   -11589346.50149  -9009100.21146  22923423.014    22923429.110
  20596781.025   -24187245.92449 -18835243.06148  20596780.615    20596786.088
  21430448.314   -18810306.75749 -14637252.51647  21430447.740    21430453.072
  24156013.380    -5366302.78449  -4172924.29145  24156012.361    24156022.751
  24286561.969    -1056876.47749   -805259.75545  24286561.073    24286570.712
 03  6  4  0  3  0.0000000  0  7G30G20G14G25G11G 1G23
  24451486.954    -4438597.74149  -3448740.45545  24451486.918    24451495.794
  23007507.585   -11382527.81749  -8859760.67346  23007506.565    23007513.328
  22937666.517   -11514500.49349  -8950778.69346  22937665.824    22937671.857
  20597859.694   -24181577.35049 -18830825.98048  20597859.279    20597864.764
  21432737.530   -18798276.81749 -14627878.54347  21432736.955    21432742.319
  24141909.804    -5440417.45249  -4230675.87445  24141908.696    24141919.068
  24300911.929     -981467.91149   -746499.96345  24300910.999    24300920.667
 03  6  4  0  3 30.0000000  0  7G30G20G14G25G11G 1G23
  24452330.215    -4434167.52949  -3445288.34645  24452330.125    24452338.999
  22990915.846   -11469717.69349  -8927700.77946  22990914.771    22990921.581
  22951918.231   -11439607.80849  -8892420.79846  22951917.428    22951923.425
  20599037.230   -24175389.13249 -18826003.97948  20599036.834    20599042.344
  21435131.268   -18785697.50249 -14618076.49147  21435130.708    21435136.115
  24127832.266    -5514393.36149  -4288319.28145  24127831.420    24127841.834
  24315298.544     -905866.12649   -687589.57845  24315297.619    24315307.350
 03  6  4  0  4  0.0000000  0  7G30G20G14G25G11G 1G23
  24453272.750    -4429214.54449  -3441428.87445  24453272.712    24453281.269
  22974338.655   -11556829.66049  -8995580.15546  22974337.787    22974344.721
  22966178.404   -11364669.69249  -8834027.51046  22966177.636    22966183.757
  20600313.491   -24168682.29949 -18820777.86448  20600313.100    20600318.602
  21437629.363   -18772569.89449 -14607847.19147  21437628.818    21437634.198
  24113781.407    -5588231.09149  -4345855.03045  24113780.556    24113790.911
  24329721.851     -830071.91849   -628529.27245  24329720.904    24329730.548
 03  6  4  0  4 30.0000000  0  7G30G20G14G25G11G 1G23
  24454314.575    -4423738.62749  -3437161.92745  24454314.510    24454323.162
  22957776.807   -11643862.19149  -9063397.66346  22957776.042    22957782.893
  22980447.046   -11289687.14949  -8775599.60046  22980446.318    22980452.537
  20601688.254   -24161457.86949 -18815148.42348  20601687.848    20601693.382
  21440231.651   -18758894.79149 -14597191.27447  21440231.097    21440236.451
  24099756.849    -5661930.72849  -4403283.17445  24099755.866    24099766.121
  24344181.550     -754085.68449   -569319.32045  24344180.684    24344190.205
 03  6  4  0  5  0.0000000  0  7G30G20G14G25G11G 1G23
  24455456.413    -4417738.85049  -3432486.78245  24455456.260    24455464.785
  22941230.467   -11730813.67349  -9131152.00946  22941229.707    22941236.526
  22994724.293   -11214660.64549  -8717137.40946  22994723.494    22994729.536
  20603161.316   -24153716.62149 -18809116.27148  20603160.938    20603166.457
  21442937.981   -18744672.93649 -14586109.31947  21442937.443    21442942.796
  24085758.614    -5735491.84849  -4460603.42645  24085757.697    24085767.799
  24358677.836     -677907.55549   -509959.84445  24358676.879    24358686.754
 03  6  4  0  5 30.0000000  0  7G30G20G14G25G11G 1G23
  24456697.852    -4411215.27749  -3427403.47345  24456697.780    24456706.318
  22924699.995   -11817682.80849  -9198842.17646  22924699.052    22924705.857
  23009009.504   -11139591.27149  -8658641.84746  23009008.754    23009014.812
  20604732.720   -24145459.06049 -18802681.79348  20604732.311    20604737.824
  21445748.164   -18729905.39249 -14574602.15347  21445747.628    21445752.970
  24071786.635    -5808915.01349  -4517816.14245  24071785.650    24071795.667
  24373210.352     -601538.44149   -450451.58245  24373209.429    24373219.495
 03  6  4  0  6  0.0000000  0  7G30G20G14G25G11G 1G23
  24458039.061    -4404166.92749  -3421911.26445  24458038.912    24458047.433
  22908185.488   -11904467.64749  -9266466.66146  22908184.454    22908191.256
  23023302.907   -11064479.26549  -8600113.04146  23023302.150    23023308.281
  20606402.120   -24136686.34149 -18795845.89648  20606401.695    20606407.194
  21448662.078   -18714592.50549 -14562670.04047  21448661.541    21448666.905
  24057840.631    -5882199.75049  -4574920.98745  24057839.814    24057849.806
  24387779.451     -524977.96249   -390794.19245  24387778.412    24387788.716
 03  6  4  0  6 30.0000000  0  7G30G20G14G25G11G 1G23
  24459480.494    -4396593.03249  -3416009.52145  24459480.373    24459488.840
  22891687.301   -11991165.88549  -9334023.68146  22891686.325    22891693.045
  23037604.365   -10989325.13649  -8541551.40946  23037603.679    23037609.690
  20608169.439   -24127399.08549 -18788609.05748  20608169.002    20608174.475
  21451679.734   -18698734.61849 -14550313.26247  21451679.192    21451684.535
  24043921.113    -5955345.48549  -4631917.54445  24043920.441    24043930.462
  24402384.763     -448226.27049   -330987.78045  24402383.842    24402394.124
 03  6  4  0  7  0.0000000  0  7G30G20G14G25G11G 1G23
  24461021.705    -4388494.09049  -3409698.68145  24461021.368    24461029.955
  22875205.633   -12077777.17049  -9401512.93246  22875204.646    22875211.455
  23051913.369   -10914130.58749  -8482958.27446  23051912.713    23051918.747
  20610034.364   -24117598.54349 -18780972.26048  20610033.940    20610039.409
  21454800.738   -18682333.55149 -14537533.21347  21454800.201    21454805.594
  24030028.233    -6028353.27349  -4688806.61045  24030027.529    24030037.443
  24417026.186     -371284.73049   -271033.47145  24417025.275    24417035.697
 03  6  4  0  7 30.0000000  0  7G30G20G14G25G11G 1G23
  24462662.901    -4379869.41449  -3402978.17245  24462662.700    24462671.309
  22858740.933   -12164299.47249  -9468932.84146  22858739.904    22858746.633
  23066230.189   -10838896.17849  -8424334.11646  23066229.361    23066235.483
  20611996.816   -24107285.78349 -18772936.32648  20611996.412    20612001.843
  21458025.007   -18665390.10649 -14524330.53747  21458024.429    21458029.842
  24016161.486    -6101222.96449  -4745588.04345  24016160.809    24016170.636
  24431703.907     -294153.50649   -210931.34645  24431703.044    24431713.550
 03  6  4  0  8  0.0000000  0  7G30G20G14G25G11G 1G23
  24464404.408    -4370718.73549  -3395847.78045  24464404.105    24464412.825
  22842293.424   -12250731.34649  -9536282.30046  22842292.410    22842299.123
  23080554.318   -10763622.59849  -8365679.42146  23080553.415    23080559.613
  20614056.576   -24096461.70149 -18764501.95948  20614056.146    20614061.559
  21461352.320   -18647905.03349 -14510705.81247  21461351.755    21461357.192
  24002321.194    -6173954.51649  -4802261.83045  24002320.499    24002330.217
  24446417.590     -216832.82949   -150681.59345  24446416.578    24446427.092
 03  6  4  0  8 30.0000000  0  7G30G20G14G25G11G 1G23
  24466245.778    -4361041.61349  -3388307.15445  24466245.690    24466254.358
  22825863.568   -12337070.81749  -9603559.76146  22825862.544    22825869.197
  23094885.812   -10688310.45549  -8306994.66946  23094884.865    23094890.943
  20616213.512   -24085126.82649 -18755669.57648  20616213.093    20616218.483
  21464782.533   -18629879.07649 -14496659.62847  21464781.990    21464787.398
  23988506.930    -6246547.98249  -4858828.00945  23988506.243    23988515.985
  24461167.295     -139322.97149    -90284.41545  24461166.385    24461176.774
 03  6  4  0  9  0.0000000  0  7G30G20G14G25G11G 1G23
  24468187.375    -4350837.48449  -3380355.90745  24468187.506    24468196.109
  22809451.542   -12423315.92849  -9670763.67746  22809450.557    22809457.251
  23109224.385   -10612960.03549  -8248280.09946  23109223.538    23109229.736
  20618467.487   -24073282.15549 -18746439.94748  20618467.062    20618472.445
  21468315.562   -18611312.91449 -14482192.50047  21468315.005    21468320.420
  23974718.897    -6319003.10149  -4915286.38045  23974718.308    23974728.125
  24475953.104      -61623.98649    -29739.88245  24475952.192    24475962.354
 03  6  4  0  9 30.0000000  0  7G30G20G14G25G11G 1G23
  24470229.625    -4340106.17249  -3371993.84645  24470229.603    24470238.220
  22793057.748   -12509465.23849  -9737892.93846  22793056.766    22793063.452
  23123569.929   -10537572.31149  -8189536.45446  23123569.276    23123575.529
  20620818.292   -24060928.50649 -18736813.71548  20620817.875    20620823.235
  21471951.221   -18592207.71149 -14467305.34147  21471950.658    21471956.017
  23960957.513    -6391319.92549  -4971636.98745  23960956.854    23960966.794
  24490774.514       16263.44849     30951.52845  24490773.699    24490783.856
 03  6  4  0 10  0.0000000  0  7G30G20G14G25G11G 1G23
  24472372.181    -4328847.38349  -3363220.77745  24472372.079    24472380.683
  22776682.453   -12595517.36049  -9804946.48146  22776681.502    22776688.281
  23137922.739   -10462148.20249  -8130764.46046  23137922.109    23137928.292
  20623265.685   -24048067.07449 -18726791.80348  20623265.301    20623270.674
  21475689.188   -18572564.50149 -14451998.95647  21475688.640    21475693.944
  23947222.289    -6463498.61249  -5027880.01045  23947221.614    23947231.396
  24505631.965       94338.91849     91789.46145  24505631.014    24505641.212
 03  6  4  0 10 30.0000000  0  7G30G20G14G25G11G 1G23
  24474614.808    -4317061.27249  -3354036.78845  24474614.897    24474623.517
  22760325.950   -12681470.58949  -9871922.94246  22760325.055    22760331.964
  23152282.340   -10386688.48149  -8071964.74346  23152281.598    23152287.826
  20625809.585   -24034699.14149 -18716375.22148  20625809.159    20625814.500
  21479529.289   -18552384.54549 -14436274.32647  21479528.732    21479534.088
  23933513.306    -6535539.50849  -5084015.63945  23933512.525    23933522.401
  24520525.197      172601.80849    152773.40445  24520524.274    24520534.213
 03  6  4  0 11  0.0000000  0  7G30G20G14G25G11G 1G23
  24476958.067    -4304747.28449  -3344441.48345  24476958.315    24476966.642
  22743988.624   -12767323.20949  -9938821.02946  22743987.795    22743994.694
  23166648.636   -10311193.66749  -8013137.63746  23166647.854    23166654.024
  20628449.645   -24020825.49749 -18705564.57848  20628449.202    20628454.559
  21483471.413   -18531668.55149 -14420132.01147  21483470.853    21483476.215
  23919830.441    -6607442.46649  -5140043.75745  23919829.777    23919839.671
  24535453.976      251051.79749    213903.14145  24535452.969    24535463.088
 03  6  4  0 11 30.0000000  0  7G30G20G14G25G11G 1G23
  24479401.889    -4291904.51649  -3334434.11145  24479402.053    24479410.416
  22727671.007   -12853072.47549 -10005638.57146  22727670.161    22727677.031
  23181021.470   -10235663.52849  -7954283.02846  23181020.772    23181027.038
  20631185.832   -24006446.56649 -18694360.20648  20631185.408    20631190.758
  21487515.500   -18510417.16349 -14403572.49547  21487514.893    21487520.280
  23906174.079    -6679206.57949  -5195963.72545  23906173.422    23906183.240
  24550418.138      329689.28149    275178.97045  24550417.239    24550427.606
 03  6  4  0 12  0.0000000  0  7G30G20G14G25G11G 1G23
  24481946.215    -4278534.24749  -3324015.68245  24481946.301    24481954.812
  22711373.249   -12938718.27449 -10072375.50446  22711372.305    22711379.150
  23195400.833   -10160100.20849  -7895402.56946  23195400.058    23195406.305
  20634017.765   -23991564.68149 -18682763.91648  20634017.327    20634022.668
  21491660.977   -18488632.38949 -14386597.35947  21491660.383    21491665.781
  23892543.847    -6750833.38949  -5251776.68745  23892543.207    23892553.003
  24565417.711      408512.27649    336599.35045  24565416.895    24565427.280
 03  6  4  0 12 30.0000000  0  6G20G14G25G11G 1G23
  22695095.540   -13024257.83049 -10139029.64046  22695094.623    22695101.474
  23209786.475   -10084503.34649  -7836495.95546  23209785.751    23209791.985
  20636945.401   -23976179.79149 -18670775.68048  20636944.960    20636950.312
  21495908.010   -18466314.20649 -14369206.58047  21495907.423    21495912.768
  23878939.895    -6822321.83849  -5307481.84645  23878939.285    23878948.952
  24580452.653      487521.58949    398164.95345  24580451.947    24580462.374
 03  6  4  0 13  0.0000000  0  6G20G14G25G11G 1G23
  22678838.391   -13109689.80549 -10205599.94846  22678837.477    22678844.252
  23224178.284   -10008873.98049  -7777564.01746  23224177.586    23224183.741
  20639968.481   -23960293.30849 -18658396.59048  20639968.028    20639973.384
  21500256.143   -18443464.57749 -14351401.68647  21500255.573    21500260.923
  23865362.197    -6893672.44049  -5363079.58545  23865361.564    23865371.148
  24595522.963      566716.24149    459874.99745  24595522.243    24595532.725
 03  6  4  0 13 30.0000000  0  5G20G14G25G11G 1
  22662601.936   -13195013.29749 -10272085.71746  22662600.958    22662607.686
  23238576.077    -9933213.56949  -7718607.89046  23238575.329    23238581.425
  20643086.555   -23943907.42549 -18645628.35448  20643086.109    20643091.489
  21504705.126   -18420085.10049 -14333183.92647  21504704.553    21504709.912
  23851810.590    -6964886.07649  -5418570.57645  23851809.916    23851819.491
 03  6  4  0 14  0.0000000  0  5G20G14G25G11G 1
  22646386.484   -13280225.78649 -10338484.99046  22646385.544    22646392.281
  23252979.856    -9857521.97949  -7659627.46146  23252978.998    23252985.037
  20646299.560   -23927022.68749 -18632471.40648  20646299.145    20646304.535
  21509254.798   -18396176.37949 -14314553.76647  21509254.243    21509259.588
  23838285.253    -7035961.87949  -5473954.17845  23838284.639    23838294.144
 03  6  4  0 14 30.0000000  0  5G20G14G25G11G 1
  22630192.772   -13365324.57049 -10404795.65946  22630191.794    22630198.442
  23267389.342    -9781799.02349  -7600622.59946  23267388.612    23267394.738
  20649607.584   -23909638.86449 -18618925.56148  20649607.155    20649612.547
  21513905.121   -18371738.71049 -14295511.43747  21513904.584    21513909.879
  23824786.208    -7106899.19749  -5529229.89545  23824785.524    23824795.050
 03  6  4  0 15  0.0000000  0  5G20G14G25G11G 1
  22614020.949   -13450307.35949 -10471015.94946  22614020.060    22614026.726
  23281804.949    -9706044.62849  -7541593.23046  23281804.312    23281810.338
  20653010.428   -23891756.72449 -18604991.41748  20653010.009    20653015.387
  21518656.032   -18346772.59949 -14276057.33447  21518655.465    21518660.777
  23811313.673    -7177697.37149  -5584397.18345  23811313.061    23811322.484
 03  6  4  0 15 30.0000000  0  5G20G14G25G11G 1
  22597871.214   -13535174.12249 -10537145.81946  22597870.380    22597877.074
  23296226.005    -9630261.05649  -7482541.13546  23296225.388    23296231.594
  20656507.537   -23873379.32649 -18590671.35648  20656507.118    20656512.510
  21523506.961   -18321280.84049 -14256193.63847  21523506.387    21523511.748
  23797867.553    -7248358.11449  -5639457.36845  23797866.869    23797876.064
 03  6  4  0 16  0.0000000  0  5G20G14G25G11G 1
  22581744.222   -13619922.57949 -10603183.50946  22581743.265    22581749.890
  23310652.770    -9554448.64449  -7423466.56446  23310652.002    23310658.270
  20660098.683   -23854507.62449 -18575966.12448  20660098.272    20660103.678
  21528457.769   -18295264.25949 -14235920.98747  21528457.199    21528462.563
  23784447.313    -7318881.16549  -5694410.28445  23784446.611    23784455.828
 03  6  4  0 16 30.0000000  0  5G20G14G25G11G 1
  22565640.062   -13704550.51149 -10669127.29046  22565639.063    22565645.632
  23325084.842    -9478607.55749  -7364369.64746  23325084.130    23325090.451
  20663783.745   -23835142.27149 -18560876.23248  20663783.351    20663788.763
  21533508.219   -18268724.06649 -14215240.32447  21533507.643    21533513.005
  23771053.194    -7389266.32149  -5749255.74745  23771052.533    23771061.846
 03  6  4  0 17  0.0000000  0  5G20G14G25G11G 1
  22549558.881   -13789056.60249 -10734976.11346  22549557.926    22549564.511
  23339522.127    -9402738.65649  -7305251.06746  23339521.347    23339527.852
  20667562.458   -23815284.95649 -18545402.99048  20667562.065    20667567.462
  21538658.015   -18241661.63949 -14194152.72947  21538657.458    21538662.822
  23757685.654    -7459513.96849  -5803994.04545  23757684.808    23757694.030
 03  6  4  0 17 30.0000000  0  5G20G14G25G11G 1
  22533501.342   -13873438.96849 -10800728.54046  22533500.422    22533506.982
  23353964.724    -9326842.74749  -7246111.39646  23353963.997    23353970.319
  20671434.653   -23794936.67449 -18529547.17648  20671434.244    20671439.592
  21543906.952   -18214078.21749 -14172659.16647  21543906.404    21543911.764
  23744343.950    -7529624.32849  -5858625.36845  23744343.123    23744352.335
 03  6  4  0 18  0.0000000  0  5G20G14G25G11G 1
  22517467.830   -13957695.16749 -10866382.66646  22517466.962    22517473.452
  23368412.217    -9250919.76149  -7186950.70146  23368411.604    23368418.119
  20675400.145   -23774098.01949 -18513309.25548  20675399.699    20675405.037
  21549254.934   -18185974.56449 -14150760.22747  21549254.372    21549259.761
  23731028.536    -7599596.73949  -5913149.22945  23731027.752    23731036.831
 03  6  4  0 18 30.0000000  0  5G20G14G25G11G 1
  22501458.436   -14041824.60149 -10931938.01146  22501457.555    22501464.076
  23382865.050    -9174971.12849  -7127769.99846  23382864.210    23382870.736
  20679458.413   -23752771.64449 -18496691.29248  20679457.979    20679463.312
  21554701.391   -18157353.35349 -14128458.00147  21554700.831    21554706.223
  23717739.129    -7669432.41049  -5967566.51045  23717738.332    23717747.489
 03  6  4  0 19  0.0000000  0  5G20G14G25G11G 1
  22485473.668   -14125824.90849 -10997392.73646  22485472.801    22485479.294
  23397322.308    -9098996.99749  -7068569.40946  23397321.650    23397328.238
  20683609.377   -23730958.11449 -18479693.72948  20683608.936    20683614.277
  21560246.180   -18128215.37249 -14105753.09447  21560245.603    21560250.976
  23704475.741    -7739131.06349  -6021877.02045  23704474.954    23704484.130
 03  6  4  0 19 30.0000000  0  5G20G14G25G11G 1
  22469513.924   -14209693.70349 -11062745.00046  22469513.030    22469519.405
  23411784.676    -9022997.49549  -7009349.07746  23411783.820    23411790.379
  20687852.834   -23708658.62749 -18462317.49748  20687852.378    20687857.710
  21565889.153   -18098561.34649 -14082646.07347  21565888.586    21565893.938
  23691238.506    -7808692.12249  -6076080.31645  23691237.708    23691246.951
 03  6  4  0 20  0.0000000  0  6G20G14G16G25G11G 1
  22453579.193   -14293431.63149 -11127995.28046  22453578.251    22453584.536
  23426250.985    -8946975.60449  -6950111.27246  23426250.325    23426256.993
  24660905.969    -4438884.59449  -3444233.89245  24660905.041    24660916.448
  20692188.018   -23685876.78149 -18444565.40148  20692187.587    20692192.945
  21571629.538   -18068395.30149 -14059140.07547  21571628.962    21571634.371
  23678026.996    -7878118.18749  -6130178.45345  23678026.283    23678035.544
 03  6  4  0 20 30.0000000  0  6G20G14G16G25G11G 1
  22437670.115   -14377034.24249 -11193140.10646  22437669.155    22437675.464
  23440722.087    -8870929.13349  -6890854.35045  23440721.286    23440728.046
  24643810.553    -4528720.79749  -3514235.82145  24643809.517    24643821.037
  20696615.261   -23662611.31949 -18426436.46148  20696614.842    20696620.221
  21577467.612   -18037715.92949 -14035234.09047  21577467.060    21577472.518
  23664841.900    -7947406.75649  -6184169.44845  23664841.082    23664850.273
 03  6  4  0 21  0.0000000  0  6G20G14G16G25G11G 1
  22421787.236   -14460499.61449 -11258178.01746  22421786.240    22421792.474
  23455197.934    -8794858.55249  -6831578.60445  23455197.225    23455203.932
  24626702.960    -4618619.31649  -3584286.29945  24626701.919    24626713.399
  20701134.385   -23638863.34549 -18407931.54348  20701133.953    20701139.313
  21583403.078   -18006524.78049 -14010929.31547  21583402.501    21583407.994
  23651682.748    -8016557.89349  -6238053.33045  23651681.941    23651691.108
 03  6  4  0 21 30.0000000  0  6G20G14G16G25G11G 1
  22405930.836   -14543825.81649 -11323107.47146  22405929.728    22405935.942
  23469677.778    -8718764.52849  -6772284.60745  23469677.140    23469683.985
  24609584.265    -4708577.25349  -3654383.15745  24609583.411    24609594.504
  20705744.936   -23614634.46749 -18389051.89448  20705744.521    20705749.900
  21589435.730   -17974823.18449 -13986226.78547  21589435.145    21589440.621
  23638549.861    -8085571.65849  -6291830.19145  23638548.973    23638558.075
 03  6  4  0 22  0.0000000  0  6G20G14G16G25G11G 1
  22390101.162   -14627011.06549 -11387927.09746  22390100.086    22390106.234
  23484162.488    -8642647.72949  -6712972.84745  23484161.873    23484168.675
  24592454.767    -4798592.21549  -3724524.39845  24592453.849    24592464.787
  20710446.792   -23589925.97849 -18369798.51648  20710446.386    20710451.783
  21595565.106   -17942612.96149 -13961127.92447  21595564.552    21595570.027
  23625442.804    -8154448.50649  -6345500.34245  23625442.047    23625451.209
 03  6  4  0 22 30.0000000  0  6G20G14G16G25G11G 1
  22374298.558   -14710054.32349 -11452636.07946  22374297.506    22374303.606
  23498651.425    -8566509.33449  -6653644.29746  23498650.732    23498657.398
  24575314.744    -4888662.11549  -3794708.41245  24575313.794    24575324.511
  20715239.489   -23564740.18049 -18350173.21548  20715239.068    20715244.461
  21601790.919   -17909896.02649 -13935634.22647  21601790.412    21601795.903
  23612361.714    -8223189.12249  -6399064.34645  23612361.013    23612370.330
 03  6  4  0 23  0.0000000  0  6G20G14G16G25G11G 1
  22358523.268   -14792953.43249 -11517232.73646  22358522.337    22358528.415
  23513144.264    -8490349.61049  -6594299.09345  23513143.589    23513150.087
  24558165.052    -4978783.66049  -3864932.77545  24558164.157    24558174.501
  20720122.797   -23539078.28249 -18330176.92848  20720122.368    20720127.748
  21608112.840   -17876674.14749 -13909747.06647  21608112.325    21608117.813
  23599306.767    -8291793.34849  -6452522.08945  23599306.071    23599315.170
 03  6  4  0 23 30.0000000  0  6G20G14G16G25G11G 1
  22342775.950   -14875706.55549 -11581715.64346  22342774.949    22342780.979
  23527641.041    -8414169.11949  -6534937.75546  23527640.224    23527647.003
  24541005.768    -5068954.61049  -3935195.57345  24541004.947    24541015.271
  20725096.357   -23512941.93449 -18309810.93848  20725095.925    20725101.314
  21614530.664   -17842948.66549 -13883467.49247  21614530.102    21614535.638
  23586277.636    -8360261.34349  -6505873.67846  23586277.030    23586286.125
 03  6  4  0 24  0.0000000  0  6G20G14G16G25G11G 1
  22327056.689   -14958311.48749 -11646083.05746  22327055.651    22327061.768
  23542141.536    -8337968.05649  -6475560.31746  23542140.895    23542147.490
  24523837.606    -5159171.81249  -4005494.39045  24523836.931    24523847.260
  20730159.956   -23486332.22549 -18289076.09748  20730159.549    20730164.945
  21621043.998   -17808720.90949 -13856796.53247  21621043.463    21621049.001
  23573274.407    -8428593.18549  -6559119.15845  23573273.773    23573282.899
 03  6  4  0 24 30.0000000  0  6G20G14G16G25G11G 1
  22311365.975   -15040766.10149 -11710333.35646  22311365.004    22311371.085
  23556645.966    -8261746.71149  -6416167.12146  23556645.323    23556652.019
  24506661.392    -5249432.21349  -4075826.94945  24506660.832    24506670.940
  20735313.464   -23459250.35649 -18267973.33448  20735313.061    20735318.445
  21627652.677   -17773992.12149 -13829735.15647  21627652.128    21627657.643
  23560297.240    -8496788.68249  -6612258.38845  23560296.545    23560305.595
 03  6  4  0 25  0.0000000  0  6G20G14G16G25G11G 1
  22295704.223   -15123069.17349 -11774465.57946  22295703.206    22295709.258
  23571154.224    -8185506.31449  -6356759.06745  23571153.410    23571160.073
  24489477.327    -5339733.84749  -4146191.54145  24489476.738    24489486.935
  20740556.452   -23431698.46949 -18246504.33048  20740556.032    20740561.392
  21634356.242   -17738764.85249 -13802285.35947  21634355.657    21634361.166
  23547345.884    -8564848.69749  -6665292.09146  23547345.122    23547354.052
 03  6  4  0 25 30.0000000  0  6G20G14G16G25G11G 1
  22280071.755   -15205218.20649 -11838477.76046  22280070.718    22280076.794
  23585665.968    -8109246.71349  -6297336.03445  23585665.264    23585671.887
  24472286.385    -5430072.89049  -4216585.33045  24472285.730    24472295.953
  20745888.743   -23403677.08449 -18224669.48148  20745888.310    20745893.664
  21641154.433   -17703039.79449 -13774447.66947  21641153.871    21641159.430
  23534420.319    -8632772.62049  -6718219.73046  23534419.600    23534428.421
 03  6  4  0 26  0.0000000  0  6G20G14G16G25G11G 1
  22264468.927   -15287211.82249 -11902368.84046  22264467.820    22264473.872
  23600181.086    -8032968.67449  -6237898.65545  23600180.405    23600187.061
  24455088.387    -5520447.26649  -4287006.64945  24455087.766    24455097.792
  20751309.929   -23375188.58049 -18202470.64148  20751309.497    20751314.821
  21648046.955   -17666819.47249 -13746224.05847  21648046.419    21648051.955
  23521520.504    -8700561.12149  -6771041.83346  23521519.711    23521528.532
 03  6  4  0 26 30.0000000  0  6G20G14G16G25G11G 1
  22248896.018   -15369047.37049 -11966136.75246  22248894.951    22248900.999
  23614699.924    -7956671.97149  -6178446.72745  23614699.265    23614705.954
  24437884.263    -5610853.49549  -4357452.77845  24437883.675    24437893.919
  20756819.826   -23346233.87049 -18179908.52948  20756819.413    20756824.719
  21655033.638   -17630104.47749 -13717614.99547  21655033.063    21655038.606
  23508646.680    -8768213.63449  -6823757.96746  23508645.853    23508654.574
 03  6  4  0 27  0.0000000  0  6G20G14G16G25G11G 1
  22233353.628   -15450722.68549 -12029779.81647  22233352.580    22233358.646
  23629222.031    -7880357.18049  -6118980.68545  23629221.500    23629228.139
  24420675.036    -5701288.59949  -4427921.40345  24420674.339    24420684.477
  20762418.118   -23316814.60549 -18156984.42848  20762417.697    20762423.014
  21662114.104   -17592896.51549 -13688621.79747  21662113.491    21662119.113
  23495798.545    -8835730.30149  -6876368.25546  23495797.788    23495806.542
 03  6  4  0 27 30.0000000  0  6G20G14G16G25G11G 1
  22217841.895   -15532236.93449 -12093297.37147  22217840.899    22217846.971
  23643747.687    -7804025.63549  -6059501.61245  23643746.895    23643753.679
  24403460.501    -5791751.07349  -4498411.35145  24403459.706    24403469.771
  20768104.357   -23286933.13149 -18133700.15948  20768103.941    20768109.269
  21669287.762   -17555198.80649 -13659246.97947  21669287.164    21669292.798
  23482976.012    -8903112.46749  -6928873.74946  23482975.325    23482984.040
 03  6  4  0 28  0.0000000  0  6G20G14G16G25G11G 1
  22202361.256   -15613587.63349 -12156687.47547  22202360.316    22202366.488
  23658276.277    -7727677.40649  -6000009.54145  23658275.606    23658282.182
  24386241.547    -5882237.60449  -4568920.11745  24386240.647    24386250.290
  20773878.388   -23256590.28349 -18110056.37548  20773877.984    20773883.313
  21676554.356   -17517012.55449 -13629491.47647  21676553.764    21676559.338
  23470179.289    -8970359.82949  -6981274.19946  23470178.484    23470187.234
 03  6  4  0 28 30.0000000  0  6G20G14G16G25G11G 1
  22186912.208   -15694772.59949 -12219948.44747  22186911.271    22186917.468
  23672808.180    -7651312.54749  -5940504.51045  23672807.426    23672814.054
  24369018.258    -5972744.63649  -4639444.76145  24369017.521    24369027.337
  20779739.909   -23225787.60649 -18086054.29048  20779739.516    20779744.865
  21683913.832   -17478338.54849 -13599355.91147  21683913.229    21683918.807
  23457408.241    -9037471.94849  -7033569.26246  23457407.455    23457416.124
 03  6  4  0 29  0.0000000  0  6G20G14G16G25G11G 1
  22171495.147   -15775789.81249 -12283078.69547  22171494.144    22171500.362
  23687343.046    -7574931.46249  -5880986.81145  23687342.254    23687348.794
  24351791.727    -6063269.43549  -4709983.30045  24351790.976    24351800.886
  20785688.719   -23194526.60149 -18061695.06748  20785688.287    20785693.640
  21691365.753   -17439178.90149 -13568841.92147  21691365.110    21691370.696
  23444662.807    -9104449.04649  -7085759.10446  23444662.018    23444670.699
 03  6  4  0 29 30.0000000  0  6G20G14G16G25G11G 1
  22156110.444   -15856637.05849 -12346076.51247  22156109.415    22156115.643
  23701880.941    -7498534.45749  -5821456.75945  23701880.130    23701886.877
  24334562.404    -6153809.17949  -4780533.53145  24334561.734    24334571.337
  20791724.399   -23162808.97049 -18036980.02848  20791723.969    20791729.298
  21698909.678   -17399535.32149 -13537950.84447  21698909.018    21698914.592
  23431943.033    -9171291.07249  -7137843.70246  23431942.294    23431950.902
 03  6  4  0 30  0.0000000  0  6G20G14G16G25G11G 1
  22140758.227   -15937312.74449 -12408940.64447  22140757.233    22140763.493
  23716421.660    -7422122.09249  -5761914.69245  23716420.944    23716427.573
  24317330.546    -6244361.26549  -4851093.29045  24317329.843    24317339.547
  20797846.631   -23130636.32249 -18011910.43348  20797846.211    20797851.533
  21706545.210   -17359409.81949 -13506684.24547  21706544.632    21706550.262
  23419249.037    -9237998.47649  -7189823.41446  23419248.212    23419256.768
 03  6  4  0 30 30.0000000  0  6G20G14G16G25G11G 1
  22125439.272   -16017814.12549 -12471668.96347  22125438.318    22125444.534
  23730965.449    -7345694.35649  -5702360.68245  23730964.764    23730971.562
  24300097.236    -6334922.05049  -4921659.89145  24300096.455    24300106.144
  20804055.248   -23098009.64049 -17986487.04148  20804054.843    20804060.143
  21714272.254   -17318803.76149 -13475043.18147  21714271.712    21714277.355
  23406580.690    -9304570.81149  -7241697.86446  23406579.802    23406588.392
 03  6  4  0 31  0.0000000  0  6G20G14G16G25G11G 1
  22110153.542   -16098140.74749 -12534261.09047  22110152.600    22110158.899
  23745512.075    -7269253.27449  -5642796.24445  23745511.255    23745517.875
  24282862.459    -6425490.47249  -4992232.44545  24282861.555    24282871.226
  20810349.636   -23064932.47549 -17960712.62548  20810349.245    20810354.537
  21722090.265   -17277720.38049 -13443030.18347  21722089.660    21722095.317
  23393937.627    -9371010.03149  -7293468.60446  23393936.784    23393945.366
 03  6  4  0 31 30.0000000  0  6G20G14G16G25G11G 1
  22094901.805   -16178289.37949 -12596714.53847  22094900.848    22094907.078
  23760061.210    -7192797.85349  -5583220.64945  23760060.422    23760066.781
  24265626.984    -6516062.36149  -5062807.70845  24265626.217    24265635.915
  20816729.664   -23031405.29849 -17934587.55348  20816729.248    20816734.550
  21729998.866   -17236160.44449 -13410645.84047  21729998.255    21730003.915
  23381320.154    -9437314.92049  -7345134.65046  23381319.319    23381327.829
 03  6  4  0 32  0.0000000  0  6G20G14G16G25G11G 1
  22079684.181   -16258258.57649 -12659028.16147  22079683.183    22079689.403
  23774613.052    -7116328.89249  -5523634.48945  23774612.119    23774618.469
  24248391.130    -6606635.21249  -5133383.71845  24248390.599    24248400.183
  20823195.046   -22997429.77949 -17908113.12148  20823194.622    20823199.865
  21737997.749   -17194126.05949 -13377891.79647  21737997.178    21738002.788
  23368728.148    -9503486.00349  -7396696.45646  23368727.297    23368735.852
 03  6  4  0 32 30.0000000  0  6G20G14G16G25G11G 1
  22064501.252   -16338045.40349 -12721199.66247  22064500.215    22064506.459
  23789167.191    -7039845.92249  -5464037.40945  23789166.463    23789172.538
  24231155.934    -6697205.46349  -5203957.72245  24231155.371    24231164.956
  20829745.485   -22963007.05649 -17881290.21548  20829745.028    20829750.292
  21746086.601   -17151618.52049 -13344769.06647  21746086.078    21746091.719
  23356161.631    -9569523.00049  -7448153.76246  23356160.817    23356169.331
 03  6  4  0 33  0.0000000  0  6G20G14G16G25G11G 1
  22049353.155   -16417648.33449 -12783227.87747  22049352.251    22049358.456
  23803723.995    -6963349.98749  -5404430.24145  23803723.086    23803729.308
  24213921.792    -6787770.58749  -5274527.71345  24213921.152    24213930.880
  20836380.555   -22928139.14749 -17854120.41148  20836380.124    20836385.428
  21754265.106   -17108640.28549 -13311279.54947  21754264.596    21754270.234
  23343620.523    -9635426.34549  -7499506.90946  23343619.718    23343628.241
 03  6  4  0 33 30.0000000  0  6G20G14G16G25G11G 1
  22034240.634   -16497065.23849 -12845111.13747  22034239.763    22034245.889
  23818282.995    -6886841.16949  -5344813.03845  23818282.167    23818288.635
  24196689.225    -6878327.47349  -5345091.33245  24196688.641    24196698.043
  20843100.117   -22892827.62049 -17826604.93448  20843099.692    20843105.009
  21762532.906   -17065192.99249 -13277424.54947  21762532.392    21762538.000
  23331105.042    -9701195.80549  -7550755.75846  23331104.182    23331112.522
 03  6  4  0 34  0.0000000  0  6G20G14G16G25G11G 1
  22019163.902   -16576293.84349 -12906847.66847  22019162.991    22019169.141
  23832844.499    -6810319.61049  -5285185.90345  23832843.716    23832850.187
  24179458.625    -6968873.29449  -5415646.30945  24179458.160    24179467.577
  20849903.722   -22857074.28549 -17798745.19048  20849903.312    20849908.647
  21770889.623   -17021278.43249 -13243205.43047  21770889.077    21770894.661
  23318614.721    -9766831.59849  -7601900.45146  23318613.959    23318622.415
 03  6  4  0 34 30.0000000  0  6G20G14G16G25G11G 1
  22004123.516   -16655331.93949 -12968435.74347  22004122.523    22004128.686
  23847408.212    -6733785.48249  -5225548.94645  23847407.533    23847414.158
  24162230.816    -7059404.76249  -5486190.11745  24162230.406    24162239.712
  20856791.180   -22820880.50449 -17770542.24248  20856790.754    20856796.082
  21779334.881   -16976898.45549 -13208623.66447  21779334.301    21779339.886
  23306150.040    -9832333.68849  -7652940.93746  23306149.179    23306157.702
 03  6  4  0 35  0.0000000  0  6G20G14G16G25G11G 1
  21989119.556   -16734178.11349 -13029874.27747  21989118.580    21989124.724
  23861974.566    -6657239.75549  -5165903.00545  23861973.759    23861980.647
  24145006.310    -7149919.49249  -5556720.91345  24145005.891    24145015.078
  20863761.994   -22784248.74549 -17741998.00748  20863761.548    20863766.885
  21787868.210   -16932055.58149 -13173681.18947  21787867.673    21787873.207
  23293710.390    -9897703.14049  -7703878.07346  23293709.661    23293718.227
 03  6  4  0 35 30.0000000  0  6G20G14G16G25G11G 1
  21974152.353   -16812830.67049 -13091161.92947  21974151.382    21974157.564
  23876542.989    -6580683.26149  -5106248.61445  23876542.194    23876548.821
  24127785.412    -7240415.00849  -5627236.69745  24127785.042    24127794.182
  20870815.743   -22747180.95849 -17713114.01348  20870815.315    20870820.660
  21796489.175   -16886752.29649 -13138379.95647  21796488.655    21796494.209
  23281296.371    -9962940.37449  -7754712.17846  23281295.505    23281303.920
 03  6  4  0 36  0.0000000  0  6G20G14G16G25G11G 1
  21959222.580   -16891287.17649 -13152296.82747  21959221.567    21959227.742
  23891113.225    -6504115.63249  -5046585.60545  23891112.547    23891119.236
  24110568.807    -7330888.04249  -5697734.99545  24110568.342    24110577.599
  20877952.219   -22709678.46649 -17683891.29648  20877951.795    20877957.119
  21805197.478   -16840989.85149 -13102720.94347  21805196.926    21805202.511
  23268907.350   -10028044.94449  -7805442.91946  23268906.421    23268914.797
 03  6  4  0 36 30.0000000  0  6G20G14G16G25G11G 1
  21944330.454   -16969545.26149 -13213277.10447  21944329.497    21944335.656
  23905685.760    -6427537.43349  -4986914.33945  23905685.009    23905691.609
  24093357.219    -7421335.41149  -5768213.28445  24093356.777    24093365.977
  20885171.041   -22671743.32949 -17654331.44748  20885170.617    20885175.946
  21813992.799   -16794770.51649 -13066705.90647  21813992.267    21813997.784
  23256543.480   -10093016.99749  -7856070.40746  23256542.581    23256550.942
 03  6  4  0 37  0.0000000  0  6G20G14G16G25G11G 1
  21929476.583   -17047602.58749 -13274100.95047  21929475.620    21929481.828
  23920259.953    -6350948.44749  -4927234.68545  23920259.259    23920265.922
  24076150.877    -7511754.12049  -5838669.24345  24076150.218    24076159.492
  20892471.973   -22633376.62849 -17624435.32048  20892471.543    20892476.885
  21822874.727   -16748095.93049 -13030336.13447  21822874.159    21822879.683
  23244204.940   -10157856.32749  -7906594.45046  23244204.053    23244212.352
 03  6  4  0 37 30.0000000  0  6G20G14G16G25G11G 1
  21914661.326   -17125457.18149 -13334766.82247  21914660.336    21914666.522
  23934836.440    -6274349.18549  -4867547.00745  23934835.668    23934842.398
  24058950.628    -7602141.33549  -5909100.64545  24058950.006    24058959.420
  20899854.684   -22594580.20249 -17594204.33748  20899854.252    20899859.603
  21831842.801   -16700968.37749 -12993613.39547  21831842.270    21831847.775
  23231891.447   -10222563.26849  -7957015.36046  23231890.587    23231898.861
 03  6  4  0 38  0.0000000  0  7G20G14G16G 2G25G11G 1
  21899884.249   -17203110.84149 -13395276.12347  21899883.296    21899889.449
  23949413.691    -6197743.64249  -4807854.44245  23949413.017    23949419.822
  24041756.237    -7692497.67349  -5979508.03245  24041755.590    24041764.915
  24459942.007    -4128163.25349  -3200733.27245  24459941.455    24459955.966
  20907318.109   -22555359.52949 -17563642.77848  20907317.685    20907323.069
  21840895.996   -16653393.69149 -12956542.25347  21840895.462    21840900.973
  23219602.505   -10287141.86849  -8007336.26246  23219601.704    23219609.790
 03  6  4  0 38 30.0000000  0  7G20G14G16G 2G25G11G 1
  21885146.640   -17280556.96049 -13455623.69447  21885145.739    21885151.845
  23963993.326    -6121127.88949  -4748153.91445  23963992.633    23963999.177
  24024569.097    -7782815.84449  -6049885.57845  24024568.377    24024577.941
  24443707.059    -4213478.32749  -3267212.18445  24443706.255    24443720.221
  20914862.657   -22515712.59549 -17532749.06348  20914862.252    20914867.632
  21850034.756   -16605369.53049 -12919120.86547  21850034.166    21850039.739
  23207338.838   -10351587.84049  -8057553.81546  23207338.014    23207346.013
 03  6  4  0 39  0.0000000  0  7G20G14G16G 2G25G11G 1
  21870449.119   -17357792.93449 -13515807.52347  21870448.194    21870454.296
  23978574.740    -6044501.82549  -4688445.35845  23978574.049    23978580.758
  24007390.098    -7873092.38349  -6120230.76845  24007389.260    24007398.669
  24427463.568    -4298837.28149  -3333725.25845  24427462.720    24427476.441
  20922488.142   -22475640.48449 -17501524.03748  20922487.723    20922493.088
  21859258.651   -16556897.54549 -12881350.51847  21859258.130    21859263.652
  23195100.180   -10415901.09849  -8107667.94746  23195099.467    23195107.523
 03  6  4  0 39 30.0000000  0  7G20G14G16G 2G25G11G 1
  21855791.946   -17434816.75349 -13575826.03547  21855791.021    21855797.119
  23993158.140    -5967865.46849  -4628728.76945  23993157.413    23993164.186
  23990219.462    -7963324.37749  -6190541.19445  23990218.647    23990228.016
  24411212.165    -4384237.62449  -3400270.54545  24411211.381    24411224.758
  20930194.191   -22435144.96949 -17469969.09148  20930193.758    20930199.124
  21868567.459   -16507979.71849 -12843232.76347  21868566.916    21868572.407
  23182886.875   -10480081.73849  -8157678.75046  23182886.182    23182894.337
 03  6  4  0 40  0.0000000  0  7G20G14G16G 2G25G11G 1
  21841175.500   -17511626.88749 -13635678.04947  21841174.559    21841180.611
  24007743.078    -5891219.63249  -4569004.83045  24007742.545    24007749.493
  23973057.963    -8053509.27049  -6260815.02445  23973057.018    23973065.973
  24394953.349    -4469677.51649  -3466846.66945  24394952.436    24394965.554
  20937980.359   -22394228.54249 -17438086.16648  20937979.918    20937985.282
  21877960.515   -16458618.81349 -12804769.74947  21877959.964    21877965.467
  23170698.719   -10544130.60549  -8207586.86946  23170697.950    23170706.163
 03  6  4  0 40 30.0000000  0  7G20G14G16G 2G25G11G 1
  21826599.994   -17588221.27149 -13695361.93647  21826599.070    21826605.161
  24022330.282    -5814565.01749  -4509273.98345  24022329.687    24022336.450
  23955905.601    -8143644.54349  -6331050.06445  23955904.802    23955913.751
  24378687.282    -4555154.77349  -3533451.90845  24378686.407    24378699.433
  20945846.196   -22352893.11149 -17405876.74148  20945845.763    20945851.144
  21887437.389   -16408817.53049 -12765963.59247  21887436.853    21887442.453
  23158535.555   -10608048.18649  -8257392.69846  23158534.830    23158542.988
 03  6  4  0 41  0.0000000  0  7G20G14G16G 2G25G11G 1
  21812065.971   -17664598.11449 -13754876.31947  21812065.041    21812071.076
  24036918.530    -5737901.92149  -4449536.61345  24036918.038    24036925.023
  23938763.182    -8233727.30349  -6401244.28645  23938762.380    23938771.256
  24362414.393    -4640667.11149  -3600084.51545  24362413.443    24362426.412
  20953791.437   -22311140.53449 -17373342.27248  20953791.012    20953796.385
  21896997.775   -16358578.00049 -12726815.94047  21896997.154    21897002.738
  23146397.288   -10671834.59749  -8307096.29646  23146396.633    23146404.735
 03  6  4  0 41 30.0000000  0  7G20G14G16G 2G25G11G 1
  21797573.817   -17740754.81749 -13814219.16447  21797572.874    21797578.918
  24051508.911    -5661230.35549  -4389792.57845  24051508.317    24051515.151
  23921631.541    -8323754.12049  -6471394.82445  23921630.621    23921639.628
  24346135.621    -4726211.77049  -3666742.25745  24346134.463    24346147.607
  20961815.663   -22268972.77249 -17340484.27648  20961815.247    20961820.615
  21906641.073   -16307902.19049 -12687328.32747  21906640.468    21906646.055
  23134284.071   -10735489.77149  -8356697.66746  23134283.379    23134291.463
 03  6  4  0 42  0.0000000  0  7G20G14G16G 2G25G11G 1
  21783123.851   -17816690.01849 -13873389.41847  21783122.898    21783128.864
  24066100.470    -5584551.17749  -4330042.66045  24066099.915    24066106.888
  23904510.723    -8413722.80749  -6541500.16645  23904509.892    23904518.981
  24329850.730    -4811786.62249  -3733423.56045  24329849.746    24329862.784
  20969918.474   -22226392.31449 -17307304.70148  20969918.058    20969923.404
  21916366.952   -16256792.65449 -12647502.74447  21916366.365    21916371.919
  23122195.520   -10799014.67349  -8406197.50746  23122194.918    23122203.013
 03  6  4  0 42 30.0000000  0  7G20G14G16G 2G25G11G 1
  21768716.483   -17892401.06949 -13932385.00247  21768715.552    21768721.537
  24080693.824    -5507864.54049  -4270286.89945  24080693.223    24080700.162
  23887401.736    -8503630.04049  -6611557.56845  23887400.906    23887409.938
  24313560.799    -4897388.95649  -3800126.28645  24313559.773    24313572.823
  20978099.556   -22183400.52849 -17273804.61448  20978099.134    20978104.480
  21926174.851   -16205251.63649 -12607340.93947  21926174.246    21926179.841
  23110131.881   -10862409.11349  -8455595.68546  23110131.249    23110139.409
 03  6  4  0 43  0.0000000  0  7G20G14G16G 2G25G11G 1
  21754352.102   -17967886.35249 -13991204.66547  21754351.136    21754357.128
  24095288.127    -5431170.89849  -4210525.71245  24095287.360    24095294.399
  23870305.088    -8593473.43749  -6681565.20245  23870304.242    23870313.094
  24297266.256    -4983017.01749  -3866849.09145  24297265.113    24297277.802
  20986358.390   -22140000.13449 -17239986.12248  20986357.937    20986363.293
  21936064.372   -16153281.54049 -12566844.79347  21936063.819    21936069.437
  23098092.960   -10925673.70049  -8504892.67646  23098092.294    23098100.428
 03  6  4  0 43 30.0000000  0  7G20G14G16G 2G25G11G 1
  21740031.211   -18043143.33049 -14049846.43147  21740030.220    21740036.126
  24109884.114    -5354469.95449  -4150758.78945  24109883.395    24109889.971
  23853221.392    -8683249.05349  -6751520.11545  23853220.550    23853229.021
  24280967.285    -5068667.51249  -3933589.38145  24280966.317    24280978.601
  20994694.767   -22096192.06749 -17205849.97148  20994694.336    20994699.710
  21946035.374   -16100883.97449 -12526015.55647  21946034.796    21946040.413
  23086078.856   -10988807.90749  -8554088.07246  23086078.141    23086086.359
 03  6  4  0 44  0.0000000  0  7G20G14G16G 2G25G11G 1
  21725754.073   -18118170.04849 -14108308.77147  21725753.084    21725758.992
  24124481.108    -5277762.58349  -4090986.92645  24124480.399    24124487.214
  23836150.822    -8772954.61449  -6821420.35145  23836150.047    23836158.482
  24264664.476    -5154338.37649  -4000345.50345  24264663.444    24264675.640
  21003108.328   -22051978.62249 -17171397.93548  21003107.921    21003113.265
  21956087.106   -16048061.85449 -12484855.49947  21956086.538    21956092.155
  23074089.564   -11051812.50949  -8603182.50246  23074088.841    23074096.927
 03  6  4  0 44 30.0000000  0  7G20G14G16G 2G25G11G 1
  21711521.230   -18192963.92349 -14166589.67247  21711520.227    21711526.123
  24139079.542    -5201048.48149  -4031209.73045  24139078.873    24139085.455
  23819094.212    -8862586.71049  -6891263.37445  23819093.494    23819101.938
  24248358.356    -5240026.70149  -4067115.23645  24248357.152    24248369.431
  21011598.653   -22007361.55249 -17136631.38748  21011598.263    21011603.604
  21966219.243   -15994817.01249 -12443366.04347  21966218.683    21966224.350
  23062124.874   -11114687.37949  -8652175.84046  23062124.135    23062132.231
 03  6  4  0 45  0.0000000  0  7G20G14G16G 2G25G11G 1
  21697333.003   -18267522.97849 -14224687.59347  21697332.020    21697337.988
  24153678.951    -5124327.58149  -3971427.33945  24153678.137    24153685.316
  23802052.316    -8952142.03149  -6961046.55045  23802051.532    23802060.025
  24232049.441    -5325729.94249  -4133896.60045  24232048.063    24232060.356
  21020165.526   -21962342.70849 -17101551.77148  21020165.102    21020170.418
  21976431.454   -15941151.78749 -12401549.01447  21976430.864    21976436.525
  23050184.682   -11177432.62949  -8701068.17546  23050183.990    23050192.144
 03  6  4  0 45 30.0000000  0  7G20G14G16G 2G25G11G 1
  21683190.081   -18341844.01349 -14282600.04747  21683189.161    21683195.114
  24168279.825    -5047599.63349  -3911639.35545  24168279.129    24168286.299
  23785025.669    -9041616.87549  -7030767.03945  23785024.981    23785033.297
  24215738.081    -5411444.88349  -4200687.07345  24215736.735    24215748.863
  21028808.603   -21916923.06849 -17066159.84348  21028808.169    21028813.488
  21986723.348   -15887067.73549 -12359405.62947  21986722.759    21986728.366
  23038269.350   -11240047.64349  -8749858.99846  23038268.689    23038276.752
 03  6  4  0 46  0.0000000  0  7G20G14G16G 2G25G11G 1
  21669092.688   -18415926.19449 -14340326.38547  21669091.730    21669097.677
  24182882.144    -4970865.98049  -3851846.95045  24182881.111    24182888.128
  23768014.517    -9131009.77149  -7100423.69045  23768013.867    23768022.057
  24199424.625    -5497170.29249  -4267485.76145  24199423.339    24199435.289
  21037527.265   -21871106.13749 -17030458.33748  21037526.843    21037532.155
  21997094.268   -15832568.25949 -12316938.54847  21997093.679    21997099.354
  23026378.440   -11302533.98949  -8798549.59446  23026377.830    23026385.741
 03  6  4  0 46 30.0000000  0  7G20G14G16G 2G25G11G 1
  21655041.316   -18489766.44649 -14397864.20247  21655040.328    21655046.298
  24197485.100    -4894125.94649  -3792049.62345  24197484.300    24197491.451
  23751019.832    -9220316.62849  -7170013.22345  23751019.182    23751027.681
  24183109.758    -5582902.80349  -4334289.94045  24183108.573    24183120.726
  21046321.396   -21824892.86949 -16994448.00348  21046320.955    21046326.251
  22007543.899   -15777654.85349 -12274148.91747  22007543.345    22007549.041
  23014512.265   -11364890.93749  -8847139.32446  23014511.625    23014519.600
 03  6  4  0 47  0.0000000  0  7G20G14G16G 2G25G11G 1
  21641036.199   -18563363.31249 -14455212.37247  21641035.243    21641041.228
  24212089.447    -4817380.35749  -3732247.88445  24212088.560    24212095.563
  23734041.942    -9309534.92149  -7239533.82945  23734041.354    23734049.561
  24166794.161    -5668640.35949  -4401098.04245  24166793.127    24166805.226
  21055190.417   -21778285.72949 -16958130.74948  21055189.975    21055195.264
  22018071.782   -15722330.58249 -12231039.13547  22018071.266    22018076.929
  23002670.682   -11427119.30449  -8895628.88146  23002669.963    23002677.951
 03  6  4  0 47 30.0000000  0  7G20G14G16G 2G25G11G 1
  21627077.976   -18636714.38849 -14512369.01547  21627076.996    21627082.931
  24226694.687    -4740629.31849  -3672441.95245  24226693.749    24226700.599
  23717081.767    -9398661.74149  -7308983.11945  23717080.977    23717089.278
  24150478.061    -5754380.47749  -4467908.12045  24150477.182    24150489.087
  21064134.043   -21731286.56749 -16921508.02947  21064133.614    21064138.929
  22028677.482   -15666597.63349 -12187610.89547  22028676.904    22028682.595
  22990853.517   -11489219.20449  -8944018.33146  22990852.713    22990860.695
 03  6  4  0 48  0.0000000  0  7G20G14G16G 2G25G11G 1
  21613166.890   -18709817.38849 -14569332.36547  21613165.917    21613171.778
  24241300.990    -4663873.23049  -3612632.05945  24241300.137    24241306.839
  23700139.462    -9487693.76149  -7378358.57345  23700138.686    23700146.796
  24134162.218    -5840120.47649  -4534718.20845  24134161.277    24134172.826
  21073151.896   -21683897.33549 -16884581.35647  21073151.481    21073156.815
  22039360.462   -15610458.42249 -12143866.08947  22039359.889    22039365.577
  22979060.727   -11551190.67449  -8992307.71646  22979059.898    22979067.837
 03  6  4  0 48 30.0000000  0  7G20G14G16G 2G25G11G 1
  21599303.403   -18782670.24749 -14626100.78747  21599302.464    21599308.321
  24255908.203    -4587111.76549  -3552818.03445  24255907.334    24255914.394
  23683215.612    -9576628.07049  -7447657.90545  23683215.022    23683223.028
  24117846.594    -5925858.13549  -4601526.41145  24117845.683    24117857.055
  21082243.567   -21636120.16049 -16847352.39147  21082243.147    21082248.506
  22050120.295   -15553914.97649 -12099806.29147  22050119.750    22050125.432
  22967292.325   -11613033.97049  -9040497.23846  22967291.475    22967299.373
 03  6  4  0 49  0.0000000  0  7G20G14G16G 2G25G11G 1
  21585488.122   -18855270.42049 -14682672.32447  21585487.118    21585492.891
  24270516.357    -4510345.21549  -3492999.96745  24270515.581    24270522.547
  23666310.874    -9665461.70349  -7516878.74945  23666310.324    23666318.359
  24101532.053    -6011590.59549  -4668330.58645  24101531.088    24101542.451
  21091408.727   -21587956.84249 -16809822.53047  21091408.322    21091413.664
  22060956.614   -15496969.75749 -12055433.42847  22060956.048    22060961.845
  22955548.289   -11674749.25749  -9088586.98346  22955547.426    22955555.220
 03  6  4  0 49 30.0000000  0  7G20G14G16G 2G25G11G 1
  21571721.209   -18927615.81649 -14739045.32947  21571720.239    21571726.002
  24285125.615    -4433573.96149  -3433178.29545  24285124.759    24285131.805
  23649426.160    -9754191.13949  -7586018.39145  23649425.463    23649433.595
  24085218.755    -6097315.27749  -4735128.69045  24085217.822    24085229.378
  21100647.025   -21539409.29549 -16771993.27847  21100646.626    21100651.963
  22071868.953   -15439625.33849 -12010749.50447  22071868.403    22071874.240
  22943828.405   -11736336.61449  -9136577.06346  22943827.659    22943835.446
 03  6  4  0 50  0.0000000  0  7G20G14G16G 2G25G11G 1
  21558003.366   -18999703.51349 -14795217.52947  21558002.385    21558008.145
  24299735.375    -4356797.16649  -3373352.32545  24299734.763    24299741.956
  23632561.957    -9842812.86649  -7655074.13645  23632561.168    23632569.253
  24068907.704    -6183028.99149  -4801918.30045  24068906.803    24068918.272
  21109958.262   -21490478.57249 -16733865.44447  21109957.840    21109963.173
  22082856.969   -15381883.38349 -11965755.80347  22082856.387    22082862.224
  22932133.152   -11797795.48549  -9184467.01346  22932132.365    22932140.159
 03  6  4  0 50 30.0000000  0  7G20G14G16G 2G25G11G 1
  21544334.855   -19071531.93849 -14851187.70747  21544333.848    21544339.627
  24314346.590    -4280015.77649  -3313522.67445  24314345.928    24314352.809
  23615718.789    -9931324.63249  -7724044.17145  23615717.888    23615726.013
  24052599.007    -6268729.75749  -4868697.84145  24052598.083    24052609.395
  21119341.825   -21441167.61449 -16695441.32247  21119341.394    21119346.728
  22093919.972   -15323746.81849 -11920454.63147  22093919.408    22093925.226
  22920462.109   -11859126.80649  -9232257.56646  22920461.335    22920469.143
 03  6  4  0 51  0.0000000  0  7G20G14G16G 2G25G11G 1
  21530716.082   -19143098.97949 -14906954.20047  21530715.066    21530720.885
  24328958.565    -4203230.07749  -3253689.77645  24328957.743    24328964.945
  23598896.960   -10019723.33949  -7792926.16345  23598896.154    23598904.123
  24036293.169    -6354415.30749  -4935465.47745  24036292.252    24036303.638
  21128797.297   -21391478.62749 -16656722.63447  21128796.868    21128802.237
  22105057.657   -15265218.22549 -11874847.97947  22105057.088    22105062.871
  22908815.141   -11920331.25749  -9279949.27246  22908814.398    22908822.258
 03  6  4  0 51 30.0000000  0  7G20G14G16G 2G25G11G 1
  21517147.472   -19214402.44049 -14962515.32047  21517146.400    21517152.243
  24343571.324    -4126440.13849  -3193853.52045  24343570.616    24343577.587
  23582097.273   -10108005.78049  -7861717.56545  23582096.585    23582104.266
  24019990.909    -6440082.70649  -5002219.04245  24019989.958    24020001.236
  21138324.341   -21341413.47049 -16617710.82747  21138323.913    21138329.306
  22116269.352   -15206300.39749 -11828938.02247  22116268.816    22116274.561
  22897192.438   -11981408.59349  -9327541.91446  22897191.714    22897199.621
 03  6  4  0 52  0.0000000  0  7G20G14G16G 2G25G11G 1
  21503629.405   -19285439.91249 -15017869.16347  21503628.408    21503634.261
  24358184.448    -4049646.01949  -3134014.03045  24358183.871    24358190.955
  23565320.267   -10196169.01649  -7930416.05245  23565319.628    23565327.286
  24003692.456    -6525729.46549  -5068956.45345  24003691.620    24003702.985
  21147922.605   -21290974.26249 -16578407.55147  21147922.178    21147927.557
  22127554.708   -15146995.49049 -11782726.44347  22127554.143    22127559.953
  22885593.949   -12042359.15049  -9375035.78746  22885593.183    22885600.972
 03  6  4  0 52 30.0000000  0  7G20G14G16G 2G25G11G 1
  21490162.566   -19356208.55849 -15073013.54547  21490161.571    21490167.391
  24372798.768    -3972847.02649  -3074170.75845  24372798.242    24372805.538
  23548566.638   -10284209.01149  -7999018.51845  23548566.027    23548573.630
  23987398.818    -6611352.26249  -5135675.25945  23987397.880    23987408.969
  21157591.793   -21240162.14649 -16538813.69847  21157591.384    21157596.744
  22138913.498   -15087304.90649 -11736214.33747  22138912.969    22138918.749
  22874019.595   -12103182.13049  -9422430.23446  22874018.866    22874026.617
 03  6  4  0 53  0.0000000  0  7G20G14G16G 2G25G11G 1
  21476746.997   -19426707.73349 -15127947.93547  21476745.998    21476751.798
  24387414.027    -3896045.01849  -3014325.09145  24387413.445    24387420.413
  23531836.728   -10372124.74049  -8067524.16345  23531836.049    23531843.614
  23971109.961    -6696950.21449  -5202374.67245  23971108.928    23971120.097
  21167331.316   -21188980.62849 -16498932.00047  21167330.892    21167336.245
  22150344.854   -15027233.14049 -11689405.21547  22150344.266    22150350.054
  22862469.136   -12163879.55749  -9469726.86546  22862468.433    22862476.209
 03  6  4  0 53 30.0000000  0  7G20G14G16G 2G25G11G 1
  21463383.422   -19496933.75849 -15182669.48047  21463382.420    21463388.219
  24402029.547    -3819238.73649  -2954476.16045  24402028.987    24402036.260
  23515131.435   -10459911.70049  -8135929.45545  23515130.694    23515138.251
  23954826.497    -6782519.43049  -5269051.74045  23954825.509    23954836.470
  21177140.965   -21137430.61349 -16458763.16347  21177140.531    21177145.889
  22161848.528   -14966781.37449 -11642299.98147  22161847.902    22161853.655
  22850942.767   -12224450.23449  -9516924.70646  22850942.092    22850949.880
 03  6  4  0 54  0.0000000  0  7G20G14G16G 2G25G11G 1
  21450072.199   -19566884.44549 -15237176.48447  21450071.215    21450077.008
  24416646.012    -3742428.59249  -2894624.19845  24416645.538    24416653.021
  23498451.179   -10547566.54449  -8204231.83045  23498450.372    23498457.907
  23938549.050    -6868057.36249  -5335704.41645  23938547.998    23938558.870
  21187020.418   -21085513.79949 -16418308.50447  21187019.981    21187025.346
  22173423.945   -14905951.88549 -11594900.42247  22173423.398    22173429.187
  22839440.590   -12284894.31549  -9564023.92546  22839439.925    22839447.623
 03  6  4  0 54 30.0000000  0  7G20G14G16G 2G25G11G 1
  21436813.734   -19636558.26849 -15291467.74847  21436812.743    21436818.519
  24431263.245    -3665615.07149  -2834769.58245  24431262.498    24431270.143
  23481796.329   -10635087.03549  -8272429.51745  23481795.572    23481803.163
  23922277.828    -6953562.29049  -5402331.41345  23922276.843    23922287.555
  21196969.060   -21033233.24449 -16377570.41847  21196968.644    21196974.022
  22185070.730   -14844747.92949 -11547209.06047  22185070.116    22185075.976
  22827962.397   -12345212.68149  -9611025.17046  22827961.651    22827969.370
 03  6  4  0 55  0.0000000  0  7G20G14G16G 2G25G11G 1
  21423608.286   -19705952.98549 -15345541.52147  21423607.345    21423613.122
  24445881.073    -3588798.40049  -2774912.52545  24445880.459    24445888.009
  23465167.786   -10722470.22049  -8340520.22045  23465167.023    23465174.540
  23906013.426    -7039031.57149  -5468930.61845  23906012.413    23906022.998
  21206986.524   -20980591.05849 -16336550.53247  21206986.119    21206991.531
  22196788.133   -14783172.11449 -11499227.95047  22196787.574    22196793.535
  22816507.987   -12405405.57949  -9657928.66546  22816507.271    22816514.938
 03  6  4  0 55 30.0000000  0  7G20G14G16G 2G25G11G 1
  21410456.520   -19775066.19649 -15399395.94147  21410455.550    21410461.300
  24460499.873    -3511978.52849  -2715052.96745  24460499.078    24460506.537
  23448566.173   -10809712.56049  -8408501.13245  23448565.356    23448572.865
  23889756.275    -7124462.24549  -5535499.74045  23889755.186    23889765.702
  21217072.504   -20927588.88349 -16295250.13647  21217072.097    21217077.516
  22208576.044   -14721226.56049 -11450958.73247  22208575.453    22208581.435
  22805077.516   -12465472.84149  -9704734.25846  22805076.874    22805084.465
 03  6  4  0 56  0.0000000  0  7G20G14G16G 2G25G11G 1
  21397358.679   -19843895.64849 -15453029.24747  21397357.727    21397363.468
  24475118.736    -3435155.65349  -2655191.08445  24475117.879    24475125.562
  23431991.864   -10896811.18249  -8476370.13145  23431991.021    23431998.348
  23873507.034    -7209851.97149  -5602036.98945  23873505.956    23873516.230
  21227226.553   -20874229.09849 -16253671.09147  21227226.127    21227231.569
  22220433.777   -14658914.34449 -11402403.79647  22220433.085    22220439.063
  22793670.952   -12525415.12049  -9751442.44746  22793670.260    22793677.772
 03  6  4  0 56 30.0000000  0  7G20G14G16G 2G25G11G 1
  21384315.463   -19912438.34449 -15506439.10647  21384314.457    21384320.209
  24489738.279    -3358328.95449  -2595326.20645  24489737.617    24489745.157
  23415445.467   -10983762.29849  -8544124.17645  23415444.635    23415451.939
  23857266.083    -7295197.35649  -5668539.63845  23857265.049    23857275.349
  21237448.451   -20820512.84449 -16211814.27647  21237448.021    21237453.408
  22232360.793   -14596236.92149 -11353564.29647  22232360.217    22232366.223
  22782288.234   -12585231.71149  -9798052.72046  22782287.510    22782295.013
 03  6  4  0 57  0.0000000  0  7G20G14G16G 2G25G11G 1
  21371327.106   -19980692.37749 -15559624.03747  21371326.119    21371331.876
  24504358.735    -3281499.09849  -2535458.88345  24504357.895    24504365.427
  23398927.688   -11070563.28649  -8611761.21745  23398926.840    23398934.220
  23841033.985    -7380496.12449  -5735006.01545  23841033.007    23841043.268
  21247737.714   -20766442.69749 -16169681.70047  21247737.278    21247742.634
  22244356.883   -14533197.43749 -11304442.66847  22244356.323    22244362.292
  22770929.335   -12644923.12849  -9844565.44246  22770928.564    22770936.095
 03  6  4  0 57 30.0000000  0  7G20G14G16G 2G25G11G 1
  21358394.124   -20048655.52749 -15612582.30547  21358393.152    21358398.918
  24518979.706    -3204666.06449  -2475589.04745  24518978.785    24518986.409
  23382439.048   -11157210.93549  -8679278.74045  23382438.275    23382445.639
  23824811.279    -7465745.80349  -5801434.12845  23824810.258    23824820.647
  21258093.907   -20712020.63049 -16127274.90247  21258093.448    21258098.768
  22256421.340   -14469798.64049 -11255041.05447  22256420.740    22256426.704
  22759594.153   -12704489.62749  -9890980.82746  22759593.382    22759600.900
 03  6  4  0 58  0.0000000  0  7G20G14G16G 2G25G11G 1
  21345516.986   -20116325.08449 -15665311.80047  21345516.057    21345521.800
  24533600.825    -3127829.55049  -2415716.57045  24533600.112    24533608.088
  23365980.351   -11243701.85049  -8746674.18146  23365979.579    23365986.898
  23808598.654    -7550943.18649  -5867821.55345  23808597.651    23808607.912
  21268516.824   -20657248.08349 -16084595.00147  21268516.363    21268521.680
  22268553.898   -14406042.32249 -11205360.84347  22268553.272    22268559.145
  22748282.821   -12763930.76449  -9937298.52946  22748282.052    22748289.531
 03  6  4  0 58 30.0000000  0  7G20G14G16G 2G25G11G 1
  21332696.041   -20183699.45149 -15717811.26747  21332695.083    21332700.868
  24548223.197    -3050990.37349  -2355841.91145  24548222.389    24548230.255
  23349551.995   -11330033.27649  -8813945.35646  23349551.243    23349558.329
  23792396.347    -7636086.24749  -5934166.55345  23792395.317    23792405.669
  21279005.777   -20602128.22649 -16041644.47147  21279005.331    21279010.667
  22280753.733   -14341931.48149 -11155404.39246  22280753.146    22280759.064
  22736995.116   -12823247.49649  -9983519.29046  22736994.337    22737001.838
 03  6  4  0 59  0.0000000  0  7G20G14G16G 2G25G11G 1
  21319931.684   -20250776.51649 -15770079.07447  21319930.709    21319936.474
  24562845.935    -2974148.80949  -2295965.48145  24562845.056    24562852.904
  23333154.319   -11416202.83349  -8881090.35846  23333153.595    23333160.733
  23776204.820    -7721172.80749  -6000467.57345  23776203.806    23776213.942
  21289560.387   -20546663.15349 -15998424.94247  21289559.935    21289565.322
  22293020.569   -14277469.55049 -11105174.35946  22293019.923    22293025.783
  22725730.956   -12882440.34649 -10029643.53546  22725730.165    22725737.736
 03  6  4  0 59 30.0000000  0  7G20G14G16G 2G25G11G 1
  21307224.439   -20317553.71649 -15822113.22147  21307223.436    21307229.153
  24577469.033    -2897304.45649  -2236086.86245  24577468.123    24577475.657
  23316788.363   -11502206.69049  -8948106.25146  23316787.535    23316794.706
  23760024.714    -7806199.83849  -6066722.18845  23760023.570    23760033.754
  21300180.416   -20490854.42849 -15954937.63447  21300180.002    21300185.419
  22305353.721   -14212658.77549 -11054672.49346  22305353.065    22305358.963
  22714490.485   -12941508.93649 -10075670.93746  22714489.726    22714497.307
 03  6  4  1  0  0.0000000  0  7G20G14G16G 2G25G11G 1
  21294574.625   -20384029.05349 -15873912.15547  21294573.603    21294579.294
  24592092.604    -2820457.71949  -2176206.37145  24592091.679    24592099.180
  23300454.465   -11588042.28249  -9014991.01946  23300453.573    23300460.697
  23743856.128    -7891164.97549  -6132928.62145  23743855.052    23743865.114
  21310865.460   -20434704.34549 -15911184.33147  21310865.035    21310870.448
  22317752.683   -14147501.69249 -11003900.78946  22317752.062    22317757.976
  22703273.676   -13000453.85549 -10121601.98646  22703272.861    22703280.378
 03  6  4  1  0 30.0000000  0  7G20G14G16G 2G25G11G 1
  21281982.804   -20450199.28849 -15925473.34047  21281981.791    21281987.476
  24606716.738    -2743607.85949  -2116323.40945  24606715.785    24606723.082
  23284153.136   -11673705.59549  -9081741.56746  23284152.278    23284159.371
  23727699.927    -7976064.90649  -6199084.20845  23727698.856    23727709.036
  21321615.099   -20378214.47349 -15867166.26347  21321614.683    21321620.130
  22330217.192   -14082000.25149 -10952860.74546  22330216.573    22330222.567
  22692080.407   -13059274.42449 -10167436.14446  22692079.650    22692087.070
 03  6  4  1  1  0.0000000  0  7G20G14G16G 2G25G11G 1
  21269449.301   -20516063.08749 -15976795.74547  21269448.307    21269453.940
  24621341.354    -2666755.50249  -2056438.50345  24621340.370    24621347.458
  23267885.009   -11759194.23049  -9148355.99846  23267884.150    23267891.264
  23711556.753    -8060897.69649  -6265187.49245  23711555.613    23711565.928
  21332429.008   -20321387.51349 -15822885.52547  21332428.547    21332433.952
  22342746.435   -14016157.85449 -10901555.02346  22342745.869    22342751.928
  22680910.767   -13117971.51249 -10213174.07346  22680909.973    22680917.334
 03  6  4  1  1 30.0000000  0  7G20G14G16G 2G25G11G 1
  21256974.655   -20581617.45949 -16027877.04747  21256973.703    21256979.291
  24635966.337    -2589900.14749  -1996551.35445  24635965.586    24635972.778
  23251650.763   -11844504.33649  -9214831.32946  23251650.028    23251657.139
  23695426.839    -8145659.97649  -6331235.86545  23695425.698    23695435.884
  21343306.783   -20264224.56749 -15778342.98247  21343306.316    21343311.698
  22355340.439   -13949976.50349 -10849985.17946  22355339.860    22355345.863
  22669764.641   -13176544.60249 -10258815.39246  22669763.849    22669771.206
 03  6  4  1  2  0.0000000  0  7G20G14G16G 2G25G11G 1
  21244559.376   -20646860.25449 -16078715.56147  21244558.388    21244563.987
  24650591.995    -2513042.14149  -1936662.06845  24650591.212    24650598.709
  23235451.250   -11929633.25649  -9281165.46846  23235450.492    23235457.681
  23679310.831    -8230349.40849  -6397227.45045  23679309.756    23679320.078
  21354247.955   -20206728.40049 -15733540.78547  21354247.512    21354252.856
  22367998.324   -13883459.08249 -10798153.45446  22367997.757    22368003.741
  22658641.981   -13234994.14049 -10304360.41746  22658641.189    22658648.616
 03  6  4  1  2 30.0000000  0  7G20G14G16G 2G25G11G 1
  21232203.691   -20711789.46049 -16129309.71747  21232202.722    21232208.343
  24665218.056    -2436181.34449  -1876770.62145  24665216.905    24665224.569
  23219286.799   -12014577.70949  -9347355.86046  23219286.043    23219293.275
  23663209.106    -8314963.53149  -6463160.41045  23663208.122    23663218.261
  21365252.123   -20148901.14849 -15688480.60247  21365251.704    21365257.035
  22380719.725   -13816608.05949 -10746061.80146  22380719.070    22380725.087
  22647542.770   -13293320.31549 -10349809.33446  22647541.963    22647549.452
 03  6  4  1  3  0.0000000  0  7G20G14G16G 2G25G11G 1
  21219908.213   -20776402.35549 -16179657.39847  21219907.234    21219912.924
  24679844.687    -2359317.92049  -1816877.12045  24679843.749    24679851.547
  23203157.953   -12099334.53749  -9413400.03846  23203157.298    23203164.539
  23647122.309    -8399499.43249  -6529032.37145  23647121.358    23647131.389
  21376318.912   -20090744.76749 -15643163.95347  21376318.483    21376323.826
  22393504.100   -13749426.11649 -10693712.27446  22393503.430    22393509.434
  22636466.993   -13351523.16249 -10395162.12846  22636466.251    22636473.747
 03  6  4  1  3 30.0000000  0  7G20G14G16G 2G25G11G 1
  21207673.192   -20840697.61149 -16229757.57047  21207672.224    21207677.901
  24694471.926    -2282452.48449  -1756982.03345  24694471.093    24694478.704
  23187065.317   -12183901.43249  -9479296.20746  23187064.679    23187071.805
  23631050.774    -8483955.12849  -6594841.80745  23631049.795    23631059.956
  21387447.843   -20032261.79649 -15597592.81647  21387447.428    21387452.770
  22406350.649   -13681916.79749 -10641107.65246  22406350.066    22406356.033
  22625414.571   -13409603.49249 -10440419.48146  22625413.832    22625421.323
 03  6  4  1  4  0.0000000  0  7G20G14G16G 2G25G11G 1
  21195499.240   -20904672.20849 -16279607.88447  21195498.272    21195503.891
  24709099.206    -2205584.54649  -1697085.02245  24709098.547    24709105.825
  23171009.574   -12268274.60449  -9545041.44546  23171008.944    23171016.002
  23614994.938    -8568327.73949  -6660586.57345  23614994.011    23615003.972
  21398638.612   -19973454.00849 -15551768.57747  21398638.161    21398643.539
  22419259.297   -13614082.22049 -10588249.59146  22419258.640    22419264.581
  22614385.589   -13467560.97949 -10485581.10446  22614384.817    22614392.305
 03  6  4  1  4 30.0000000  0  7G20G14G16G 2G25G11G 1
  21183386.808   -20968323.76549 -16329206.47247  21183385.777    21183391.366
  24723727.245    -2128713.97749  -1637185.97845  24723726.760    24723733.966
  23154991.348   -12352450.89849  -9610633.25946  23154990.614    23154997.679
  23598955.703    -8652614.22749  -6726264.18545  23598954.694    23598964.685
  21409890.804   -19914323.16449 -15505692.60247  21409890.391    21409895.756
  22432229.280   -13545924.71349 -10535139.88946  22432228.582    22432234.543
  22603380.042   -13525395.58549 -10530646.97046  22603379.286    22603386.713
 03  6  4  1  5  0.0000000  0  7G20G14G16G 2G25G11G 1
  21171335.937   -21031651.12949 -16378552.44547  21171334.970    21171340.527
  24738355.614    -2051841.69349  -1577285.60845  24738355.103    24738362.646
  23139010.787   -12436428.39049  -9676070.15746  23139010.097    23139017.234
  23582933.200    -8736813.07949  -6791873.55645  23582932.077    23582941.850
  21421203.971   -19854872.31049 -15459367.26947  21421203.549    21421208.867
  22445259.839   -13477448.07649 -10481781.52746  22445259.270    22445265.232
  22592397.575   -13583108.53349 -10575618.04946  22592396.899    22592404.285
 03  6  4  1  5 30.0000000  0  6G20G16G 2G25G11G 1
  21159347.505   -21094650.78449 -16427643.05747  21159346.489    21159352.071
  23123068.975   -12520202.69649  -9741348.72046  23123068.303    23123075.402
  23566927.906    -8820920.52549  -6857411.64945  23566926.855    23566936.548
  21432577.696   -19795102.71349 -15412793.57047  21432577.305    21432582.647
  22458350.963   -13408653.89949 -10428175.72246  22458350.427    22458356.382
  22581438.529   -13640699.01649 -10620493.69146  22581437.816    22581445.180
 03  6  4  1  6  0.0000000  0  6G20G16G 2G25G11G 1
  21147421.741   -21157321.01149 -16476476.98347  21147420.755    21147426.339
  23107166.339   -12603771.23749  -9806466.97346  23107165.703    23107172.729
  23550940.461    -8904934.28349  -6922876.77245  23550939.473    23550948.915
  21444011.705   -19735016.73949 -15365973.34047  21444011.300    21444016.623
  22471501.976   -13339545.44749 -10374325.02846  22471501.403    22471507.288
  22570502.676   -13698167.59049 -10665274.34246  22570501.916    22570509.189
 03  6  4  1  6 30.0000000  0  6G20G16G 2G25G11G 1
  21135559.227   -21219659.08049 -16525052.07647  21135558.207    21135563.786
  23091303.554   -12687130.51649  -9871422.14646  23091302.864    23091309.881
  23534971.560    -8988851.34549  -6988266.50545  23534970.489    23534980.017
  21455505.601   -19674616.20149 -15318907.99347  21455505.183    21455510.488
  22484712.311   -13270124.78449 -10320231.05646  22484711.728    22484717.629
  22559589.995   -13755514.05349 -10709959.84046  22559589.162    22559596.413
 03  6  4  1  7  0.0000000  0  6G20G16G 2G25G11G 1
  21123760.381   -21281662.66649 -16573366.53047  21123759.286    21123764.876
  23075481.206   -12770277.39949  -9936211.82646  23075480.458    23075487.374
  23519021.397    -9072669.19049  -7053578.96445  23519020.221    23519029.761
  21467058.881   -19613903.34249 -15271599.27847  21467058.455    21467063.744
  22497981.456   -13200395.00649 -10265896.21346  22497980.872    22497986.794
  22548700.531   -13812738.41049 -10754550.20546  22548699.740    22548706.916
 03  6  4  1  7 30.0000000  0  6G20G16G 2G25G11G 1
  21112025.489   -21343329.77149 -16621418.79547  21112024.410    21112029.955
  23059699.696   -12853209.27849 -10000833.96946  23059698.943    23059705.795
  23503090.675    -9156385.38949  -7118812.22845  23503089.500    23503098.876
  21478671.086   -19552880.65449 -15224049.13947  21478670.656    21478675.957
  22511308.850   -13130359.18649 -10211322.90046  22511308.256    22511314.260
  22537834.235   -13869841.10649 -10799045.76546  22537833.403    22537840.565
 03  6  4  1  8  0.0000000  0  6G20G16G 2G25G11G 1
  21100355.048   -21404658.08049 -16669207.06647  21100353.999    21100359.532
  23043959.673   -12935922.96649 -10065286.09746  23043959.038    23043965.900
  23487179.853    -9239997.46149  -7183964.30345  23487178.635    23487188.196
  21490341.862   -19491550.23349 -15176259.21047  21490341.476    21490346.747
  22524694.024   -13060019.83649 -10156513.06046  22524693.399    22524699.394
  22526990.993   -13926822.46449 -10843446.76046  22526990.180    22526997.374
 03  6  4  1  8 30.0000000  0  6G20G16G 2G25G11G 1
  21088749.516   -21465645.16349 -16716729.44947  21088748.523    21088754.024
  23028261.883   -13018415.00649 -10129565.51146  23028261.267    23028268.222
  23471289.193    -9323502.28149  -7249032.87245  23471288.087    23471297.508
  21502070.909   -19429913.59049 -15128230.66047  21502070.536    21502075.807
  22538136.475   -12989379.33149 -10101468.56746  22538135.893    22538141.934
  22516170.923   -13983681.97649 -10887752.81046  22516170.090    22516177.309
 03  6  4  1  9  0.0000000  0  6G20G16G 2G25G11G 1
  21077209.300   -21526289.11749 -16763984.45347  21077208.322    21077213.803
  23012606.805   -13100682.66149 -10193670.06046  23012606.164    23012613.184
  23455419.406    -9406897.79849  -7314016.24745  23455418.313    23455427.785
  21513857.779   -19367973.21349 -15079965.44147  21513857.406    21513862.692
  22551635.663   -12918441.00449 -10046192.00146  22551635.087    22551641.140
  22505373.897   -14040420.37949 -10931964.50146  22505373.095    22505380.307
 03  6  4  1  9 30.0000000  0  6G20G16G 2G25G11G 1
  21065734.973   -21586587.07649 -16810969.85747  21065733.996    21065739.473
  22996995.347   -13182722.14049 -10257596.84746  22996994.613    22997001.444
  23439571.006    -9490180.62149  -7378911.78546  23439570.023    23439579.555
  21525702.155   -19305730.65349 -15031464.75647  21525701.807    21525707.095
  22565191.175   -12847206.74349  -9990684.83246  22565190.584    22565196.588
  22494599.947   -14097037.24549 -10976081.48246  22494599.233    22494606.499
 03  6  4  1 10  0.0000000  0  6G20G16G 2G25G11G 1
  21054326.818   -21646537.15549 -16857684.18547  21054325.834    21054331.328
  22981427.455   -13264531.27849 -10321344.11046  22981426.730    22981433.587
  23423744.420    -9573348.90649  -7443718.08346  23423743.489    23423752.971
  21537603.467   -19243189.03149 -14982731.03947  21537603.068    21537608.364
  22578802.214   -12775680.00849  -9934949.76546  22578801.621    22578807.784
  22483849.166   -14153533.35049 -11020104.37746  22483848.426    22483855.615
 03  6  4  1 10 30.0000000  0  6G20G16G 2G25G11G 1
  21042984.987   -21706138.71749 -16904126.94247  21042984.015    21042989.511
  22965903.728   -13346108.27649 -10384910.52146  22965903.036    22965909.836
  23407940.168    -9656401.18149  -7508434.00445  23407939.111    23407948.413
  21549561.043   -19180351.50249 -14933766.73947  21549560.640    21549565.958
  22592468.082   -12703865.14349  -9878990.18546  22592467.570    22592473.775
  22473121.029   -14209910.15849 -11064034.30646  22473120.243    22473127.443
 03  6  4  1 11  0.0000000  0  6G20G16G 2G25G11G 1
  21031710.350   -21765387.25649 -16950294.61547  21031709.401    21031714.906
  22950425.395   -13427447.91649 -10448291.98846  22950424.622    22950431.258
  23392158.734    -9739332.68449  -7573055.79245  23392157.586    23392166.988
  21561574.976   -19117217.84149 -14884571.69347  21561574.583    21561579.920
  22606188.862   -12631762.56949  -9822806.41346  22606188.262    22606194.539
  22462415.864   -14266165.68349 -11107869.72646  22462415.074    22462422.290
 03  6  4  1 11 30.0000000  0  6G20G16G 2G25G11G 1
  21020503.245   -21824280.97949 -16996185.80447  21020502.279    21020507.755
  22934992.559   -13508547.45049 -10511486.33446  22934991.766    22934998.453
  23376400.697    -9822141.21949  -7637581.76045  23376399.476    23376408.933
  21573644.797   -19053790.93649 -14835148.14147  21573644.377    21573649.672
  22619963.613   -12559375.63649  -9766401.06746  22619963.075    22619969.385
  22451733.714   -14322300.45349 -11151611.06046  22451732.939    22451740.112
 03  6  4  1 12  0.0000000  0  6G20G16G 2G25G11G 1
  21009364.222   -21882817.12549 -17041798.37047  21009363.231    21009368.676
  22919606.004   -13589403.61649 -10574491.03446  22919605.237    22919612.073
  23360666.474    -9904823.94149  -7702009.75645  23360665.347    23360674.654
  21585770.039   -18990072.80249 -14785497.65647  21585769.563    21585774.841
  22633792.129   -12486706.96849  -9709776.17646  22633791.532    22633797.826
  22441074.622   -14378314.40749 -11195258.22646  22441073.798    22441080.947
 03  6  4  1 12 30.0000000  0  6G20G16G 2G25G11G 1
  20998293.605   -21940993.51249 -17087130.60447  20998292.615    20998298.035
  22904266.469   -13670013.31349 -10637303.70346  22904265.677    22904272.407
  23344956.747    -9987378.11749  -7766337.54545  23344955.594    23344964.981
  21597950.236   -18926065.27049 -14735621.66747  21597949.741    21597955.105
  22647673.701   -12413759.25249  -9652933.85146  22647673.092    22647679.319
  22430438.402   -14434207.50949 -11238811.24346  22430437.641    22430444.728
 03  6  4  1 13  0.0000000  0  6G20G16G 2G25G11G 1
  20987291.869   -21998808.11149 -17132180.92047  20987290.871    20987296.267
  22888974.385   -13750373.49949 -10699921.94046  22888973.613    22888980.303
  23329272.025   -10069801.19449  -7830563.19445  23329270.952    23329280.264
  21610185.039   -18861770.52749 -14685521.88047  21610184.581    21610190.049
  22661607.870   -12340535.25449  -9595876.24046  22661607.226    22661613.379
  22419825.147   -14489979.80949 -11282270.11846  22419824.399    22419831.517
 03  6  4  1 13 30.0000000  0  6G20G16G 2G25G11G 1
  20976359.156   -22056259.52849 -17176948.24547  20976358.169    20976363.590
  22873730.060   -13830482.01849 -10762344.06746  22873729.377    22873736.026
  23313612.651   -10152091.65449  -7894685.51846  23313611.513    23313620.811
  21622474.012   -18797191.50849 -14635200.58447  21622473.543    21622479.060
  22675593.868   -12267038.72049  -9538606.27346  22675593.164    22675599.376
  22409234.728   -14545632.70449 -11325635.95646  22409233.960    22409241.009
 03  6  4  1 14  0.0000000  0  6G20G16G 2G25G11G 1
  20965495.920   -22113346.10949 -17221431.27847  20965494.930    20965500.401
  22858534.144   -13910336.77449 -10824568.47746  22858533.486    22858540.070
  23297978.704   -10234247.39749  -7958702.85345  23297977.646    23297986.899
  21634816.463   -18732331.23549 -14584660.12447  21634816.029    21634821.539
  22689630.935   -12193273.09749  -9481126.61146  22689630.286    22689636.508
  22398667.005   -14601166.76449 -11368909.20146  22398666.166    22398673.128
 03  6  4  1 14 30.0000000  0  6G20G16G 2G25G11G 1
  20954702.601   -22170064.94549 -17265627.75947  20954701.642    20954707.112
  22843387.238   -13989933.61049 -10886591.91646  22843386.642    22843393.162
  23282371.340   -10316264.96949  -8022612.52646  23282370.311    23282379.369
  21647212.298   -18667191.04449 -14533901.54747  21647211.847    21647217.314
  22703718.737   -12119240.89049  -9423439.22846  22703718.203    22703724.362
  22388121.769   -14656581.47049 -11412089.43946  22388121.036    22388128.037
 03  6  4  1 15  0.0000000  0  6G20G16G 2G25G11G 1
  20943979.799   -22226413.48349 -17309535.69447  20943978.845    20943984.301
  22828290.135   -14069269.45149 -10948411.97046  22828289.484    22828296.042
  23266790.620   -10398141.53749  -8086412.32346  23266789.636    23266798.574
  21659660.996   -18601772.69749 -14482926.22947  21659660.539    21659666.025
  22717857.047   -12044944.04649  -9365545.63746  22717856.445    22717862.676
  22377599.462   -14711876.69349 -11455176.55546  22377598.641    22377605.726
 03  6  4  1 15 30.0000000  0  6G20G16G 2G25G11G 1
  20933327.931   -22282389.59249 -17353153.42747  20933326.950    20933332.388
  22813243.176   -14148341.26549 -11010026.27446  22813242.471    22813249.073
  23251237.134   -10479874.67949  -8150100.34146  23251236.174    23251245.099
  21672162.221   -18536078.27749 -14431735.79247  21672161.775    21672167.284
  22732045.031   -11970385.70349  -9307448.27046  22732044.493    22732050.724
  22367099.759   -14767052.68649 -11498170.78546  22367098.959    22367106.021
 03  6  4  1 16  0.0000000  0  6G20G16G 2G25G11G 1
  20922747.488   -22337990.05849 -17396478.44647  20922746.494    20922751.963
  22798247.248   -14227145.08249 -11071431.77146  22798246.602    22798253.134
  23235711.737   -10561460.77749  -8213673.83246  23235710.843    23235719.647
  21684715.666   -18470109.30949 -14380331.42347  21684715.244    21684720.746
  22746282.483   -11895567.87749  -9249148.72146  22746281.936    22746288.083
  22356622.927   -14822108.64849 -11541071.48646  22356622.123    22356629.133
 03  6  4  1 16 30.0000000  0  6G20G16G 2G25G11G 1
  20912239.031   -22393212.49949 -17439508.90047  20912237.999    20912243.498
  22783302.922   -14305677.62849 -11132625.87846  22783302.268    22783308.815
  23220214.717   -10642897.14249  -8277130.62346  23220213.881    23220222.686
  21697321.037   -18403867.72649 -14328714.62747  21697320.627    21697326.119
  22760568.821   -11820493.08049  -9190648.91846  22760568.236    22760574.395
  22346168.828   -14877044.55949 -11583878.63646  22346168.060    22346175.147
 03  6  4  1 17  0.0000000  0  6G20G16G 2G25G11G 1
  20901802.834   -22448055.04149 -17482243.33147  20901801.824    20901807.289
  22768410.654   -14383936.24949 -11193606.52746  22768409.979    22768416.637
  23204746.792   -10724181.54049  -8340468.99046  23204745.839    23204754.674
  21709977.955   -18337355.58649 -14276887.00747  21709977.505    21709982.947
  22774903.351   -11745164.67649  -9131951.52246  22774902.822    22774909.054
  22335737.575   -14931860.77749 -11626592.53046  22335736.841    22335743.926
 03  6  4  1 17 30.0000000  0  6G20G16G 2G25G11G 1
  20891439.125   -22502516.78349 -17524681.03247  20891438.108    20891443.562
  22753570.766   -14461919.52749 -11254372.63446  22753570.111    22753576.813
  23189307.972   -10805312.64449  -8403687.90646  23189307.077    23189315.915
  21722685.575   -18270576.54549 -14224851.40747  21722685.158    21722690.558
  22789285.212   -11669587.34449  -9073060.15546  22789284.666    22789290.980
  22325328.966   -14986558.59649 -11669214.15546  22325328.187    22325335.292
 03  6  4  1 18  0.0000000  0  6G20G16G 2G25G11G 1
  20881148.265   -22556595.16949 -17566820.01547  20881147.263    20881152.765
  22738784.055   -14539623.65249 -11314921.23046  22738783.498    22738790.166
  23173898.845   -10886287.36249  -8466784.97746  23173897.915    23173906.776
  21735443.650   -18203532.45849 -14172609.28347  21735443.236    21735448.638
  22803714.265   -11593762.49649  -9013975.91046  22803713.678    22803720.027
  22314942.817   -15041137.89549 -11711743.43146  22314942.037    22314949.155
 03  6  4  1 18 30.0000000  0  6G20G16G 2G25G11G 1
  20870930.895   -22610287.85849 -17608658.45647  20870929.876    20870935.392
  22724051.205   -14617045.72449 -11375250.04646  22724050.557    22724057.144
  23158520.135   -10967102.88349  -8529758.01646  23158519.151    23158527.896
  21748251.789   -18136225.21949 -14120162.09847  21748251.359    21748256.779
  22818189.766   -11517693.18749  -8954701.18446  22818189.166    22818195.605
  22304579.280   -15095598.71749 -11754180.38646  22304578.462    22304585.599
 03  6  4  1 19  0.0000000  0  6G20G16G 2G25G11G 1
  20860787.360   -22663592.16249 -17650194.25847  20860786.388    20860791.913
  22709372.565   -14694182.22549 -11435356.34746  22709371.959    22709378.426
  23143172.347   -11047756.34749  -8592604.76446  23143171.306    23143179.955
  21761109.708   -18068656.60749 -14067511.24447  21761109.258    21761114.708
  22832711.370   -11441382.15249  -8895238.07946  22832710.783    22832717.104
  22294238.236   -15149940.74249 -11796524.77746  22294237.510    22294244.574
 03  6  4  1 19 30.0000000  0  6G20G16G 2G25G11G 1
  20850718.141   -22716506.25349 -17691425.99147  20850717.139    20850722.694
  22694748.759   -14771030.63849 -11495238.15746  22694748.203    22694754.664
  23127855.724   -11128245.28849  -8655323.28046  23127854.620    23127863.481
  21774016.926   -18000828.76549 -14014658.39647  21774016.482    21774021.912
  22847278.329   -11364832.47849  -8835589.05246  22847277.718    22847284.022
  22283919.836   -15204164.40749 -11838776.94846  22283919.104    22283926.139
 03  6  4  1 20  0.0000000  0  6G20G16G 2G25G11G 1
  20840723.595   -22769027.59649 -17732351.68848  20840722.618    20840728.196
  22680180.471   -14847587.57649 -11554892.84446  22680179.829    22680186.267
  23112570.643   -11208566.90349  -8717911.45246  23112569.691    23112578.501
  21786973.090   -17932743.77049 -13961605.16147  21786972.663    21786978.085
  22861890.229   -11288046.51349  -8775755.87246  22861889.713    22861895.993
  22273623.937   -15258269.41649 -11880936.64946  22273623.172    22273630.222
 03  6  4  1 20 30.0000000  0  6G20G16G 2G25G11G 1
  20830804.318   -22821153.61149 -17772969.33248  20830803.365    20830808.944
  22665668.139   -14923849.64549 -11614317.74946  22665667.495    22665673.916
  23097318.198   -11288718.15149  -8780366.86446  23097317.340    23097326.153
  21799977.818   -17864403.55149 -13908353.05847  21799977.380    21799982.800
  22876546.524   -11211026.95849  -8715740.70246  22876546.018    22876552.388
  22263350.688   -15312255.47449 -11923003.66346  22263349.983    22263356.940
 03  6  4  1 21  0.0000000  0  6G20G16G 2G25G11G 1
  20820960.619   -22872882.67449 -17813277.67148  20820959.660    20820965.220
  22651212.433   -14999814.32549 -11673510.94846  22651211.843    22651218.143
  23082098.679   -11368696.98249  -8842687.93146  23082097.746    23082106.491
  21813030.620   -17795810.66749 -13854904.07647  21813030.183    21813035.587
  22891246.567   -11133777.27149  -8655546.17346  22891246.210    22891252.474
  22253100.093   -15366123.05649 -11964978.35847  22253099.310    22253106.157
 03  6  4  1 21 30.0000000  0  6G20G16G 2G25G11G 1
  20811192.915   -22924212.40949 -17853274.84148  20811191.932    20811197.461
  22636814.016   -15075478.23749 -11732469.76146  22636813.420    22636819.706
  23066912.660   -11448500.58549  -8904872.43446  23066911.569    23066920.363
  21826131.158   -17726966.80549 -13801259.52947  21826130.714    21826136.151
  22905990.226   -11056299.93249  -8595174.29846  22905989.713    22905995.977
  22242871.834   -15419872.24549 -12006860.79347  22242871.081    22242878.012
 03  6  4  1 22  0.0000000  0  6G20G16G 2G25G11G 1
  20801501.687   -22975140.19149 -17892958.80148  20801500.691    20801506.198
  22622473.522   -15150838.36849 -11791191.87546  22622472.838    22622479.110
  23051760.472   -11528126.04849  -8966918.16746  23051759.350    23051767.975
  21839279.180   -17657873.86849 -13747420.89147  21839278.712    21839284.129
  22920776.683   -10978597.58749  -8534627.06746  22920776.047    22920782.248
  22232666.287   -15473502.69949 -12048650.71547  22232665.556    22232672.427
 03  6  4  1 22 30.0000000  0  6G20G16G 2G25G11G 1
  20791887.117   -23025664.98749 -17932328.74448  20791886.127    20791891.608
  22608191.127   -15225892.85549 -11849675.81646  22608190.375    22608196.660
  23036642.310   -11607571.88649  -9028823.94746  23036641.326    23036649.814
  21852473.979   -17588534.99149 -13693390.61847  21852473.497    21852478.931
  22935605.113   -10900674.25749  -8473907.64846  22935604.432    22935610.658
  22222483.201   -15527015.49849 -12090348.96047  22222482.475    22222489.271
 03  6  4  1 23  0.0000000  0  6G20G16G 2G25G11G 1
  20782349.770   -23075784.22949 -17971382.67548  20782348.769    20782354.187
  22593967.455   -15300638.11449 -11907918.80646  22593966.773    22593973.051
  23021559.076   -11686835.10649  -9090587.39246  23021558.037    23021566.529
  21865715.218   -17518951.73749 -13639169.91547  21865714.721    21865720.214
  22950475.087   -10822532.00949  -8413017.63246  22950474.456    22950480.711
  22212322.491   -15580410.36049 -12131955.30147  22212321.740    22212328.494
 03  6  4  1 23 30.0000000  0  6G20G16G 2G25G11G 1
  20772890.244   -23125494.61149 -18010118.01448  20772889.228    20772894.594
  22579803.335   -15375070.24849 -11965917.78846  22579802.658    22579809.002
  23006511.223   -11765912.03349  -9152205.68146  23006510.115    23006518.545
  21879002.705   -17449125.28949 -13584759.71747  21879002.262    21879007.808
  22965386.271   -10744173.03349  -8351958.74746  22965385.715    22965391.900
  22202184.340   -15633686.33049 -12173469.00247  22202183.618    22202190.330
 03  6  4  1 24  0.0000000  0  6G20G16G 2G25G11G 1
  20763508.707   -23174794.87549 -18048533.78248  20763507.683    20763513.035
  22565699.399   -15449186.83749 -12023670.92346  22565698.732    22565704.994
  22991499.040   -11844800.81349  -9213677.37746  22991498.027    22991506.486
  21892335.989   -17379058.41749 -13530162.17047  21892335.551    21892341.108
  22980338.150   -10665600.45349  -8290733.41646  22980337.613    22980343.932
  22192068.702   -15686844.34849 -12214890.80047  22192067.981    22192074.624
 03  6  4  1 24 30.0000000  0  6G20G16G 2G25G11G 1
  20754205.502   -23223683.36449 -18086628.69348  20754204.493    20754209.835
  22551656.009   -15522985.67249 -12081176.43846  22551655.244    22551661.495
  22976522.979   -11923499.46149  -9275000.90246  22976522.045    22976530.495
  21905714.466   -17308753.79049 -13475379.36247  21905714.050    21905719.649
  22995329.935   -10586818.42349  -8229344.86846  22995329.365    22995335.681
  22181975.430   -15739884.85749 -12256221.02547  22181974.679    22181981.329
 03  6  4  1 25  0.0000000  0  6G20G16G 2G25G11G 1
  20744981.215   -23272157.07049 -18124400.39248  20744980.209    20744985.572
  22537673.584   -15596463.23649 -12138431.62546  22537672.874    22537679.127
  22961583.973   -12002004.54949  -9336173.60046  22961582.997    22961591.439
  21919137.899   -17238213.11749 -13420412.62147  21919137.547    21919143.116
  23010361.166   -10507828.95749  -8167794.70646  23010360.539    23010366.925
  22171904.579   -15792807.11249 -12297459.10047  22171903.831    22171910.498
 03  6  4  1 25 30.0000000  0  6G20G16G 2G25G11G 1
  20735836.328   -23320213.62349 -18161847.04048  20735835.320    20735840.665
  22523753.004   -15669616.20849 -12195433.87846  22523752.281    22523758.535
  22946682.215   -12080313.13749  -9397193.18746  22946681.284    22946689.757
  21932605.968   -17167437.61949 -13365262.89547  21932605.653    21932611.222
  23025431.279   -10428634.89649  -8106085.10346  23025430.697    23025437.121
  22161856.243   -15845610.97049 -12338604.93047  22161855.527    22161862.221
 03  6  4  1 26  0.0000000  0  6G20G16G 2G25G11G 1
  20726771.050   -23367851.70649 -18198967.61048  20726770.056    20726775.422
  22509894.550   -15742442.51849 -12252181.58646  22509893.855    22509900.072
  22931818.163   -12158423.57749  -9458058.38746  22931817.274    22931825.739
  21946118.207   -17096430.17749 -13309932.43247  21946117.889    21946123.467
  23040539.765   -10349239.15349  -8044218.33846  23040539.296    23040545.729
  22151830.315   -15898297.38949 -12379659.23947  22151829.558    22151836.315
 03  6  4  1 26 30.0000000  0  6G20G16G 2G25G11G 1
  20717785.807   -23415069.23749 -18235760.47348  20717784.816    20717790.210
  22496098.813   -15814939.14149 -12308672.40346  22496098.175    22496104.351
  22916992.389   -12236333.29149  -9518767.16046  22916991.537    22916999.937
  21959674.196   -17025193.13449 -13254423.06947  21959673.854    21959679.466
  23055686.118   -10269644.82949  -7982196.85946  23055685.511    23055692.152
  22141826.712   -15950866.32749 -12420622.00847  22141825.983    22141832.791
 03  6  4  1 27  0.0000000  0  6G20G16G 2G25G11G 1
  20708881.054   -23461863.78049 -18272223.73948  20708880.071    20708885.486
  22482366.523   -15887102.68149 -12364903.66346  22482365.842    22482372.006
  22902205.386   -12314039.09849  -9579317.05946  22902204.494    22902212.849
  21973273.536   -16953728.27049 -13198736.17847  21973273.219    21973278.833
  23070869.532   -10189854.70449  -7920022.77946  23070869.059    23070875.723
  22131845.610   -16003317.31149 -12461492.86647  22131844.853    22131851.750
 03  6  4  1 27 30.0000000  0  6G20G16G 2G25G11G 1
  20700057.141   -23508233.70349 -18308356.13148  20700056.149    20700061.534
  22468697.937   -15958930.97349 -12420873.69546  22468697.275    22468703.491
  22887457.564   -12391539.28049  -9639706.70746  22887456.624    22887464.989
  21986915.747   -16882038.19049 -13142873.80047  21986915.415    21986921.010
  23086089.884   -10109872.00849  -7857698.66946  23086089.392    23086096.003
  22121886.763   -16055651.07349 -12502272.37747  22121886.007    22121892.910
 03  6  4  1 28  0.0000000  0  6G20G16G 2G25G11G 1
  20691314.551   -23554176.22249 -18344155.48148  20691313.572    20691318.946
  22455093.929   -16030420.12649 -12476579.45546  22455093.233    22455099.460
  22872749.515   -12468830.67649  -9699933.67046  22872748.486    22872756.905
  22000600.529   -16810124.39949 -13086837.09847  22000600.181    22000605.745
  23101346.449   -10029698.98649  -7795226.23446  23101345.901    23101352.440
  22111950.386   -16107866.90349 -12542960.00047  22111949.696    22111956.530
 03  6  4  1 28 30.0000000  0  6G20G16G 2G25G11G 1
  20682653.609   -23599689.81649 -18379620.60548  20682652.647    20682657.982
  22441554.937   -16101568.29549 -12532019.52146  22441554.195    22441560.355
  22858081.505   -12545911.37649  -9759996.48946  22858080.510    22858088.831
  22014327.401   -16737989.21549 -13030627.88447  22014327.068    22014332.617
  23116638.485    -9949339.20149  -7732608.29146  23116637.865    23116644.509
  22102036.314   -16159965.60849 -12583556.35447  22102035.609    22102042.396
 03  6  4  1 29  0.0000000  0  6G20G16G 2G25G11G 1
  20674074.919   -23644771.17349 -18414748.92148  20674073.956    20674079.272
  22428081.592   -16172371.18349 -12587190.53546  22428080.822    22428086.963
  22843454.272   -12622777.35049  -9819891.95146  22843453.306    22843461.640
  22028096.250   -16665633.48149 -12974246.81647  22028095.897    22028101.494
  23131965.639    -9868794.38749  -7669846.14846  23131965.144    23131971.701
  22092144.752   -16211945.82849 -12624060.38047  22092144.047    22092150.890
 03  6  4  1 29 30.0000000  0  6G20G16G 2G25G11G 1
  20665578.625   -23689419.47549 -18449539.78648  20665577.688    20665582.950
  22414674.218   -16242826.92749 -12642091.04646  22414673.515    22414679.603
  22828868.136   -12699427.25549  -9879619.05546  22828867.224    22828875.572
  22041906.469   -16593060.54549 -12917696.49347  22041906.096    22041911.759
  23147327.309    -9788068.24449  -7606942.72146  23147326.769    23147333.411
  22082275.484   -16263808.74449 -12664472.99347  22082274.780    22082281.641
 03  6  4  1 30  0.0000000  0  6G20G16G 2G25G11G 1
  20657165.315   -23733631.78349 -18483990.91948  20657164.383    20657169.600
  22401333.532   -16312932.51449 -12696718.69146  22401332.790    22401338.948
  22814323.730   -12775857.71149  -9939175.14746  22814322.903    22814331.324
  22055757.724   -16520271.69249 -12860977.93147  22055757.357    22055763.097
  23162722.969    -9707163.78549  -7543900.34646  23162722.431    23162729.157
  22072428.730   -16315553.60149 -12704793.61947  22072428.016    22072434.832
 03  6  4  1 30 30.0000000  0  6G20G16G 2G25G11G 1
  20648835.167   -23777406.94249 -18518101.41248  20648834.200    20648839.449
  22388059.864   -16382685.55249 -12751071.63746  22388059.159    22388065.273
  22799821.469   -12852067.14749  -9998559.03146  22799820.603    22799829.033
  22069649.591   -16447269.94349 -12804093.47347  22069649.140    22069654.889
  23178152.036    -9626084.12749  -7480721.46446  23178151.469    23178158.096
  22062604.301   -16367181.32849 -12745022.97947  22062603.577    22062610.351
 03  6  4  1 31  0.0000000  0  6G20G16G 2G25G11G 1
  20640588.482   -23820743.22149 -18551869.91748  20640587.519    20640592.789
  22374853.804   -16452083.20749 -12805147.65046  22374853.162    22374859.211
  22785361.866   -12928053.17949 -10057768.84046  22785360.933    22785369.246
  22083581.563   -16374057.34049 -12747044.70747  22083581.095    22083586.764
  23193613.890    -9544832.28749  -7417408.38146  23193613.266    23193619.733
  22052802.106   -16418692.17649 -12785161.25647  22052801.413    22052808.152
 03  6  4  1 31 30.0000000  0  7G20G16G 2G13G25G11G 1
  20632425.773   -23863638.58449 -18585294.85448  20632424.790    20632430.082
  22361715.907   -16521123.11149 -12858944.90246  22361715.177    22361721.190
  22770945.153   -13003813.58149 -10116802.83546  22770944.183    22770952.375
  24650512.650    -1466861.80149  -1129974.61945  24650512.285    24650520.104
  22097553.100   -16300636.44549 -12689833.64147  22097552.613    22097558.282
  23209107.838    -9463411.64949  -7353963.81746  23209107.139    23209113.743
  22043022.202   -16470086.35249 -12825208.63347  22043021.434    22043028.090
 03  6  4  1 32  0.0000000  0  7G20G16G 2G13G25G11G 1
  20624346.794   -23906093.64949 -18618376.70348  20624345.823    20624351.135
  22348646.121   -16589804.74049 -12912462.98146  22348645.445    22348651.423
  22756571.316   -13079348.24649 -10175660.91146  22756570.344    22756578.532
  24635886.894    -1543720.13449  -1189864.11344  24635886.451    24635894.092
  22111563.353   -16227011.69749 -12632463.72647  22111562.934    22111568.604
  23224632.766    -9381827.59749  -7290391.87146  23224632.162    23224638.584
  22033263.926   -16521366.18149 -12865166.89147  22033263.180    22033269.824
 03  6  4  1 32 30.0000000  0  7G20G16G 2G13G25G11G 1
  20616353.271   -23948100.09549 -18651108.97948  20616352.266    20616357.561
  22335646.342   -16658119.19249 -12965694.95246  22335645.614    22335651.555
  22742242.079   -13154648.48649 -10234336.32646  22742241.084    22742249.183
  24621267.551    -1620544.20749  -1249726.90045  24621267.311    24621274.804
  22125613.334   -16153178.73649 -12574931.56947  22125612.897    22125618.565
  23240189.616    -9300076.53449  -7226689.81046  23240188.942    23240195.388
  22023528.553   -16572525.47649 -12905031.23247  22023527.839    22023534.525
 03  6  4  1 33  0.0000000  0  7G20G16G 2G13G25G11G 1
  20608445.168   -23989657.52549 -18683491.37448  20608444.131    20608449.440
  22322716.544   -16726065.09649 -13018639.74046  22322715.806    22322721.833
  22727957.608   -13229713.44749 -10292828.41546  22727956.663    22727964.739
  24606654.584    -1697335.74349  -1309564.37145  24606654.417    24606661.730
  22139702.179   -16079141.42649 -12517240.17647  22139701.733    22139707.345
  23255777.168    -9218163.09849  -7162861.24446  23255776.561    23255782.976
  22013815.792   -16623565.93649 -12944802.96347  22013815.083    22013821.812
 03  6  4  1 33 30.0000000  0  7G20G16G 2G13G25G11G 1
  20600622.764   -24030764.45049 -18715522.72648  20600621.736    20600627.035
  22309857.292   -16793640.51649 -13071295.84846  22309856.608    22309862.586
  22713718.392   -13304541.01949 -10351135.50446  22713717.391    22713725.455
  24592047.626    -1774095.25449  -1369376.83845  24592047.550    24592054.783
  22153829.394   -16004902.09149 -12459391.36747  22153829.003    22153834.617
  23271395.032    -9136090.49749  -7098908.62446  23271394.389    23271400.907
  22004125.624   -16674488.14149 -12984482.56247  22004124.901    22004131.562
 03  6  4  1 34  0.0000000  0  7G20G16G 2G13G25G11G 1
  20592886.348   -24071419.48449 -18747201.95748  20592885.322    20592890.616
  22297069.155   -16860843.08049 -13123661.41646  22297068.371    22297074.336
  22699524.702   -13379129.20849 -10409256.08546  22699523.637    22699531.699
  24577446.762    -1850823.52649  -1429164.96445  24577446.598    24577453.982
  22167994.683   -15930463.26949 -12401387.11547  22167994.247    22167999.861
  23287042.546    -9053862.52649  -7034834.95246  23287041.946    23287048.649
  21994457.789   -16725292.57749 -13024070.40047  21994457.074    21994463.720
 03  6  4  1 34 30.0000000  0  7G20G16G 2G13G25G11G 1
  20585236.252   -24111620.93549 -18778527.74848  20585235.248    20585240.521
  22284352.224   -16927670.39949 -13175734.58146  22284351.475    22284357.451
  22685376.875   -13453476.05349 -10467188.59946  22685375.842    22685383.871
  24562851.746    -1927520.59149  -1488928.76545  24562851.641    24562858.933
  22182197.422   -15855827.44149 -12343229.35147  22182196.965    22182202.602
  23302719.184    -8971482.48449  -6970642.77946  23302718.524    23302725.173
  21984812.327   -16775979.58049 -13063566.72147  21984811.612    21984818.292
 03  6  4  1 35  0.0000000  0  7G20G16G 2G13G25G11G 1
  20577672.862   -24151366.69549 -18809498.45248  20577671.874    20577677.128
  22271707.317   -16994119.26949 -13227512.85546  22271706.588    22271712.575
  22671275.433   -13527578.82249 -10524930.92846  22671274.443    22671282.558
  24548262.680    -2004186.56849  -1548668.35345  24548262.542    24548269.709
  22196437.224   -15780996.62749 -12284919.65947  22196436.816    22196442.469
  23318423.960    -8888952.99449  -6906334.13346  23318423.361    23318430.040
  21975189.372   -16826548.87649 -13102971.32647  21975188.623    21975195.225
 03  6  4  1 35 30.0000000  0  7G20G16G 2G13G25G11G 1
  20570196.661   -24190654.32149 -18840112.17248  20570195.660    20570200.907
  22259135.016   -17060186.48649 -13278993.73946  22259134.292    22259140.268
  22657221.042   -13601434.62849 -10582480.81446  22657220.093    22657228.188
  24533679.453    -2080821.14149  -1608383.50345  24533679.308    24533686.489
  22210713.941   -15705972.28649 -12226459.15347  22210713.503    22210719.187
  23334156.937    -8806276.24849  -6841910.75446  23334156.260    23334163.107
  21965588.844   -16877000.13049 -13142283.94847  21965588.070    21965594.676
 03  6  4  1 36  0.0000000  0  7G20G16G 2G13G25G11G 1
  20562807.968   -24229482.21849 -18870367.66248  20562806.965    20562812.204
  22246635.867   -17125869.71449 -13330175.41246  22246635.165    22246641.051
  22643214.169   -13675041.10349 -10639836.40646  22643213.120    22643221.165
  24519102.181    -2157424.34349  -1668074.16045  24519102.029    24519109.228
  22225026.997   -15630756.31949 -12167849.34047  22225026.604    22225032.340
  23349917.096    -8723455.58449  -6777375.23946  23349916.539    23349923.434
  21956010.606   -16927333.32149 -13181504.57147  21956009.871    21956016.565
 03  6  4  1 36 30.0000000  0  7G20G16G 2G13G25G11G 1
  20555507.065   -24267848.52549 -18900263.46948  20555506.069    20555511.307
  22234210.305   -17191166.69049 -13381056.11446  22234209.567    22234215.452
  22629255.168   -13748395.99749 -10696995.98946  22629254.124    22629262.118
  24504530.970    -2233996.42649  -1727740.59645  24504530.907    24504538.058
  22239376.123   -15555351.34349 -12109092.23147  22239375.700    22239381.439
  23365704.371    -8640494.17349  -6712730.01346  23365703.580    23365710.506
  21946454.786   -16977548.88349 -13220633.55047  21946454.086    21946460.759
 03  6  4  1 37  0.0000000  0  7G20G16G 2G13G25G11G 1
  20548294.300   -24305751.54349 -18929798.27048  20548293.323    20548298.548
  22221858.596   -17256074.71349 -13431633.74146  22221857.868    22221863.819
  22615344.416   -13821496.88449 -10753957.62046  22615343.394    22615351.306
  24489965.646    -2310537.59649  -1787382.94345  24489965.480    24489972.628
  22253760.783   -15479759.57849 -12050189.58547  22253760.362    22253766.133
  23381517.282    -8557394.98949  -6647977.47346  23381516.693    23381523.817
  21936921.445   -17027646.69449 -13259670.77347  21936920.746    21936927.410
 03  6  4  1 37 30.0000000  0  7G20G16G 2G13G25G11G 1
  20541170.229   -24343188.64949 -18958970.02848  20541169.255    20541174.480
  22209581.507   -17320590.72149 -13481905.89446  22209580.847    22209586.716
  22601482.637   -13894341.08249 -10810719.24646  22601481.570    22601489.408
  24475406.141    -2387047.27149  -1847000.75445  24475405.960    24475413.206
  22268180.732   -15403982.45549 -11991142.49447  22268180.270    22268186.009
  23397356.223    -8474160.51949  -6583119.48945  23397355.747    23397362.911
  21927410.615   -17077626.27849 -13298615.87147  21927409.890    21927416.542
 03  6  4  1 38  0.0000000  0  7G20G16G 2G13G25G11G 1
  20534135.203   -24380158.01249 -18987777.30548  20534134.225    20534139.465
  22197379.696   -17384711.83949 -13531870.34646  22197379.014    22197384.794
  22587670.114   -13966926.04549 -10867278.88046  22587669.072    22587676.840
  24460852.685    -2463525.53049  -1906594.10645  24460852.515    24460859.668
  22282635.568   -15328021.82349 -11931952.41847  22282635.132    22282640.859
  23413220.587    -8390793.52649  -6518158.24945  23413220.035    23413227.063
  21917922.364   -17127487.63149 -13337468.84847  21917921.629    21917928.236
 03  6  4  1 38 30.0000000  0  7G20G16G 2G13G25G11G 1
  20527189.328   -24416658.54949 -19016219.26448  20527188.383    20527193.598
  22185253.430   -17448435.92649 -13581525.42546  22185252.709    22185258.390
  22573907.203   -14039249.71849 -10923634.89746  22573906.230    22573913.990
  24446305.125    -2539972.83349  -1966163.30445  24446304.966    24446312.082
  22297124.858   -15251880.25949 -11872621.34847  22297124.442    22297130.165
  23429109.300    -8307297.73149  -6453096.64245  23429108.716    23429115.739
  21908456.453   -17177231.10549 -13376229.96547  21908455.722    21908462.355
 03  6  4  1 39  0.0000000  0  7G20G16G 2G13G25G11G 1
  20520333.205   -24452687.89849 -19044294.06248  20520332.250    20520337.450
  22173203.260   -17511759.93149 -13630868.75346  22173202.551    22173208.217
  22560194.628   -14111309.50849 -10979785.30446  22560193.673    22560201.383
  24431763.447    -2616388.85349  -2025708.10145  24431763.104    24431770.534
  22311648.261   -15175559.53949 -11813150.68347  22311647.798    22311653.516
  23445022.142    -8223675.19049  -6387936.26245  23445021.639    23445028.464
  21899013.085   -17226856.38049 -13414898.97747  21899012.359    21899018.993
 03  6  4  1 39 30.0000000  0  7G20G16G 2G13G25G11G 1
  20513567.066   -24488244.35149 -19072000.36948  20513566.094    20513571.249
  22161229.666   -17574681.30149 -13679898.33846  22161229.001    22161234.613
  22546532.670   -14183103.38049 -11035728.51546  22546531.691    22546539.371
  24417227.716    -2692774.07849  -2085228.95245  24417227.405    24417234.645
  22326205.404   -15099061.54049 -11753541.87547  22326204.940    22326210.637
  23460958.570    -8139929.32749  -6322679.81845  23460958.027    23460964.891
  21889592.069   -17276363.88249 -13453476.22747  21889591.341    21889597.969
 03  6  4  1 40  0.0000000  0  7G20G16G 2G13G25G11G 1
  20506891.311   -24523325.71649 -19099336.47848  20506890.315    20506895.479
  22149333.198   -17637197.36449 -13728612.09946  22149332.566    22149338.139
  22532921.748   -14254628.22149 -11091462.07546  22532920.834    22532928.568
  24402697.928    -2769128.09049  -2144725.44845  24402697.584    24402704.811
  22340795.968   -15022387.78849 -11693796.11447  22340795.539    22340801.271
  23476917.851    -8056062.76949  -6257329.31946  23476917.438    23476924.388
  21880193.597   -17325752.88249 -13491961.12647  21880192.858    21880199.539
 03  6  4  1 40 30.0000000  0  7G20G16G 2G13G25G11G 1
  20500306.214   -24557930.38449 -19126301.13648  20500305.244    20500310.429
  22137514.300   -17699305.55049 -13777008.02546  22137513.688    22137519.325
  22519362.583   -14325881.91049 -11146984.36546  22519361.680    22519369.402
  24388174.107    -2845450.81549  -2204197.55345  24388173.670    24388180.985
  22355419.409   -14945540.86049 -11633915.41447  22355419.035    22355424.756
  23492899.759    -7972078.51049  -6191887.06745  23492899.254    23492906.032
  21870817.682   -17375023.53249 -13530353.80247  21870816.959    21870823.609
 03  6  4  1 41  0.0000000  0  7G20G16G 2G13G25G11G 1
  20493812.178   -24592056.69249 -19152893.04948  20493811.200    20493816.381
  22125773.625   -17761003.02849 -13825083.92446  22125772.987    22125778.634
  22505855.454   -14396862.12849 -11202293.55446  22505854.551    22505862.248
  24373656.043    -2921742.51949  -2263645.49045  24373655.780    24373662.950
  22370075.541   -14868522.57849 -11573901.19447  22370075.119    22370080.867
  23508903.484    -7887979.32149  -6126355.29646  23508902.904    23508909.692
  21861464.225   -17424175.92449 -13568654.33647  21861463.554    21861470.156
 03  6  4  1 41 30.0000000  0  7G20G16G 2G13G25G11G 1
  20487409.564   -24625702.50549 -19179110.55048  20487408.602    20487413.776
  22114111.547   -17822287.35949 -13872837.90546  22114110.910    22114116.569
  22492400.859   -14467566.41149 -11257387.72146  22492399.916    22492407.584
  24359144.058    -2998003.13249  -2323069.23145  24359143.666    24359150.943
  22384763.853   -14791335.08349 -11513755.11047  22384763.461    22384769.193
  23524928.497    -7803767.91449  -6060736.07245  23524927.951    23524934.623
  21852133.375   -17473209.96449 -13606862.65447  21852132.693    21852139.225
 03  6  4  1 42  0.0000000  0  7G20G16G 2G13G25G11G 1
  20481098.712   -24658866.17849 -19204952.35548  20481097.751    20481102.910
  22102528.600   -17883156.03649 -13920267.98446  22102527.939    22102533.581
  22478999.216   -14537992.37449 -11312265.02646  22478998.264    22479005.848
  24344637.914    -3074232.83349  -2382468.90245  24344637.558    24344644.906
  22399484.067   -14713980.25649 -11453478.64047  22399483.630    22399489.291
  23540974.281    -7719447.35849  -5995031.75445  23540973.692    23540980.029
  21842825.104   -17522125.59249 -13644978.70047  21842824.337    21842830.832
 03  6  4  1 42 30.0000000  0  7G20G16G 2G13G25G11G 1
  20474880.007   -24691545.62449 -19230416.84448  20474879.036    20474884.200
  22091025.304   -17943606.11549 -13967371.88847  22091024.652    22091030.240
  22465651.089   -14608137.23149 -11366923.28146  22465650.115    22465657.703
  24330137.919    -3150431.03849  -2441844.01645  24330137.646    24330144.726
  22414235.757   -14636459.91049 -11393073.19147  22414235.288    22414240.920
  23557040.048    -7635020.47549  -5929244.67945  23557039.511    23557046.036
  21833539.331   -17570922.25149 -13683002.03747  21833538.596    21833545.106
 03  6  4  1 43  0.0000000  0  7G20G16G 2G13G25G11G 1
  20468753.761   -24723739.28949 -19255502.80748  20468752.807    20468757.965
  22079602.041   -18003635.40449 -14014147.89846  22079601.380    22079606.991
  22452356.766   -14677998.96449 -11421360.92546  22452355.818    22452363.346
  24315643.850    -3226597.80349  -2501194.57445  24315643.610    24315650.501
  22429018.601   -14558775.76649 -11332540.11347  22429018.094    22429023.765
  23573125.704    -7550490.36649  -5863377.10445  23573125.135    23573131.646
  21824276.246   -17619600.01749 -13720932.74047  21824275.508    21824281.987
 03  6  4  1 43 30.0000000  0  7G20G16G 2G13G25G11G 1
  20462720.306   -24755445.14249 -19280208.65848  20462719.344    20462724.514
  22068259.478   -18063241.01449 -14060593.78047  22068258.793    22068264.298
  22439116.777   -14747575.23449 -11475576.12046  22439115.834    22439123.352
  24301155.663    -3302733.42249  -2560520.95545  24301155.560    24301162.354
  22443832.122   -14480929.80749 -11271880.94947  22443831.659    22443837.425
  23589230.581    -7465859.65549  -5797431.09945  23589229.866    23589236.387
  21815035.824   -17668158.87449 -13758770.78647  21815035.056    21815041.513
 03  6  4  1 44  0.0000000  0  7G20G16G 2G13G25G11G 1
  20456779.993   -24786661.53149 -19304533.10848  20456779.047    20456784.218
  22056998.000   -18122420.54149 -14106707.64747  22056997.299    22057002.726
  22425931.614   -14816863.36349 -11529566.79346  22425930.662    22425938.221
  24286673.403    -3378837.49049  -2619822.68745  24286673.406    24286680.136
  22458676.167   -14402923.58549 -11211096.89446  22458675.743    22458681.503
  23605353.831    -7381131.17349  -5731409.01445  23605353.224    23605359.936
  21805818.049   -17716598.43249 -13796515.87147  21805817.327    21805823.754
 03  6  4  1 44 30.0000000  0  7G20G16G 2G13G25G11G 1
  20450933.209   -24817386.57649 -19328474.69148  20450932.234    20450937.412
  22045818.075   -18181171.20649 -14152487.33447  22045817.388    22045822.812
  22412801.755   -14885860.82649 -11583330.97146  22412800.751    22412808.359
  24272197.130    -3454909.96349  -2679099.82145  24272197.118    24272204.029
  22473550.207   -14324759.36349 -11150189.73346  22473549.875    22473555.667
  23621495.204    -7296307.65649  -5665312.77545  23621494.600    23621501.339
  21796623.060   -17764918.34549 -13834167.72747  21796622.342    21796628.768
 03  6  4  1 45  0.0000000  0  7G20G16G 2G13G25G11G 1
  20445180.251   -24847618.43849 -19352031.97548  20445179.287    20445184.465
  22034720.259   -18239490.41749 -14197930.82347  22034719.611    22034724.992
  22399727.643   -14954565.20949 -11636866.78146  22399726.652    22399734.274
  24257726.925    -3530950.55349  -2738352.12145  24257726.885    24257733.974
  22488454.090   -14246438.95449 -11089160.86546  22488453.757    22488459.572
  23637653.913    -7211391.59949  -5599144.49945  23637653.443    23637660.456
  21787450.827   -17813118.60149 -13871726.34647  21787450.122    21787456.546
 03  6  4  1 45 30.0000000  0  7G20G16G 2G13G25G11G 1
  20439521.361   -24877355.88649 -19375204.00148  20439520.425    20439525.613
  22023704.847   -18297376.29649 -14243036.64647  22023704.207    22023709.628
  22386709.716   -15022974.95049 -11690172.99846  22386708.694    22386716.296
  24243262.906    -3606959.56749  -2797579.81245  24243262.719    24243269.847
  22503387.272   -14167964.97749 -11028012.34046  22503386.929    22503392.690
  23653830.063    -7126386.70649  -5532906.94045  23653829.465    23653836.454
  21778301.243   -17861199.91449 -13909192.28547  21778300.546    21778306.900
 03  6  4  1 46  0.0000000  0  7G20G16G 2G13G25G11G 1
  20433956.904   -24906597.23449 -19397989.45648  20433955.967    20433961.165
  22012772.421   -18354826.27149 -14287802.80747  22012771.755    22012777.238
  22373748.256   -15091087.41149 -11743247.55946  22373747.237    22373754.846
  24228804.739    -3682937.77449  -2856783.51245  24228804.497    24228811.580
  22518349.301   -14089338.94549 -10966745.32546  22518349.001    22518354.724
  23670022.175    -7041295.59049  -5466602.27545  23670021.535    23670028.553
  21769174.318   -17909161.90449 -13946565.23847  21769173.685    21769179.982
 03  6  4  1 46 30.0000000  0  7G20G16G 2G13G25G11G 1
  20428487.307   -24935340.26049 -19420386.61048  20428486.383    20428491.558
  22001923.668   -18411837.01549 -14332226.71147  22001922.976    22001928.408
  22360843.928   -15158899.99349 -11796088.45746  22360842.921    22360850.503
  24214352.489    -3758884.28949  -2915962.50545  24214352.303    24214359.297
  22533340.117   -14010562.39949 -10905361.02446  22533339.733    22533345.417
  23686230.425    -6956120.72349  -5400232.27245  23686230.034    23686236.839
  21760070.306   -17957003.89249 -13983844.69047  21760069.657    21760075.909
 03  6  4  1 47  0.0000000  0  7G20G16G 2G13G25G11G 1
  20423112.753   -24963583.88749 -19442394.62248  20423111.804    20423116.965
  21991158.634   -18468407.27349 -14376307.37647  21991157.938    21991163.420
  22347997.070   -15226410.48149 -11848693.96346  22347996.055    22348003.593
  24199906.211    -3834799.19249  -2975116.86245  24199906.174    24199913.113
  22548359.133   -13931637.64349 -10843861.23046  22548358.716    22548364.303
  23702453.971    -6870865.64649  -5333799.79945  23702453.552    23702460.355
  21750989.078   -18004726.10749 -14021030.80847  21750988.394    21750994.661
 03  6  4  1 47 30.0000000  0  7G20G16G 2G13G25G11G 1
  20417833.544   -24991325.88849 -19464011.75748  20417832.629    20417837.806
  21980478.143   -18524533.77549 -14420042.26747  21980477.423    21980482.923
  22335208.162   -15293616.34149 -11901062.08946  22335207.108    22335214.653
  24185466.132    -3910682.11449  -3034246.29245  24185466.011    24185472.883
  22563405.934   -13852566.23049 -10782247.17046  22563405.549    22563411.130
  23718692.380    -6785532.53449  -5267306.50245  23718691.871    23718698.705
  21741930.642   -18052328.09049 -14058123.24347  21741929.945    21741936.288
 03  6  4  1 48  0.0000000  0  7G20G16G 2G13G25G11G 1
  20412650.140   -25018564.84649 -19485236.90948  20412649.227    20412654.390
  21969882.386   -18580214.37649 -14463429.70347  21969881.687    21969887.169
  22322477.519   -15360515.64349 -11953191.33946  22322476.462    22322484.068
  24171031.947    -3986533.34349  -3093351.03645  24171031.763    24171038.600
  22578480.288   -13773350.10649 -10720520.34346  22578479.903    22578485.469
  23734944.925    -6700124.73449  -5200755.07845  23734944.370    23734951.451
  21732895.122   -18099810.04449 -14095122.14347  21732894.410    21732900.753
 03  6  4  1 48 30.0000000  0  7G20G16G 2G13G25G11G 1
  20407562.881   -25045298.69949 -19506068.47648  20407561.959    20407567.111
  21959372.130   -18635446.02949 -14506467.31347  21959371.434    21959376.876
  22309805.742   -15427105.66249 -12005079.59746  22309804.714    22309812.324
  24156603.834    -4062352.44549  -3152430.78045  24156603.781    24156610.625
  22593581.913   -13693990.70249 -10658681.87946  22593581.509    22593587.124
  23751211.384    -6614644.41649  -5134147.10045  23751210.839    23751217.876
  21723882.660   -18147171.16549 -14132026.90047  21723881.920    21723888.230
 03  6  4  1 49  0.0000000  0  7G20G16G 2G13G25G11G 1
  20402571.962   -25071526.30349 -19526505.56548  20402571.014    20402576.146
  21948947.785   -18690226.55649 -14549153.39747  21948947.070    21948952.415
  22297193.166   -15493384.49349 -12056725.37246  22297192.185    22297199.757
  24142182.000    -4138139.69449  -3211485.68645  24142181.917    24142188.646
  22608710.393   -13614490.36249 -10596733.58946  22608709.985    22608715.495
  23767491.006    -6529094.59149  -5067484.96545  23767490.468    23767497.480
  21714893.022   -18194411.76649 -14168837.73547  21714892.303    21714898.675
 03  6  4  1 49 30.0000000  0  7G20G16G 2G13G25G11G 1
  20397677.605   -25097246.31749 -19546547.12448  20397676.652    20397681.802
  21938609.493   -18744554.16249 -14591486.55047  21938608.797    21938614.156
  22284640.305   -15559349.85749 -12108126.87446  22284639.315    22284646.885
  24127766.224    -4213895.03849  -3270515.74645  24127765.925    24127772.778
  22623865.270   -13534850.95249 -10534676.92946  22623864.845    22623870.422
  23783783.518    -6443478.28049  -5000771.00745  23783782.909    23783789.720
  21705926.382   -18241531.58549 -14205554.45247  21705925.660    21705932.090
 03  6  4  1 50  0.0000000  0  7G20G16G 2G13G25G11G 1
  20392880.111   -25122457.09849 -19566191.88548  20392879.184    20392884.339
  21928357.867   -18798426.79149 -14633465.18447  21928357.145    21928362.499
  22272147.576   -15624999.46849 -12159282.35347  22272146.604    22272154.110
  24113356.608    -4289618.51849  -3329520.97745  24113356.251    24113362.936
  22639046.184   -13455074.31749 -10472513.35046  22639045.795    22639051.439
  23800087.762    -6357799.01249  -4934007.98545  23800087.143    23800093.943
  21696982.775   -18288530.55749 -14242176.99947  21696982.012    21696988.424
 03  6  4  1 50 30.0000000  0  7G20G16G 2G13G25G11G 1
  20388179.933   -25147156.73749 -19585438.34748  20388178.987    20388184.147
  21918193.331   -18851841.55849 -14675087.03947  21918192.641    21918197.972
  22259715.347   -15690330.97949 -12210189.95147  22259714.380    22259721.882
  24098953.014    -4365309.73849  -3388501.07445  24098952.532    24098959.190
  22654253.021   -13375162.06549 -10410244.09046  22654252.608    22654258.215
  23816403.378    -6272058.72949  -4867197.47745  23816402.778    23816409.841
  21688062.273   -18335408.37349 -14278705.14347  21688061.458    21688067.842
 03  6  4  1 51  0.0000000  0  7G20G16G 2G13G25G11G 1
  20383577.374   -25171343.61249 -19604285.25648  20383576.394    20383581.539
  21908116.376   -18904796.02049 -14716350.22647  21908115.687    21908120.966
  22247344.126   -15755342.08949 -12260847.88847  22247343.155    22247350.645
  24084555.586    -4440968.72849  -3447456.06145  24084555.158    24084561.807
  22669485.275   -13295116.01949 -10347870.58246  22669484.842    22669490.471
  23832730.400    -6186260.63549  -4800341.84445  23832729.934    23832736.895
  21679164.600   -18382165.04749 -14315138.88847  21679163.867    21679170.283
 03  6  4  1 51 30.0000000  0  7G20G16G 2G13G25G11G 1
  20379072.572   -25195016.26849 -19622731.47848  20379071.622    20379076.771
  21898127.493   -18957287.79949 -14757252.87547  21898126.782    21898132.036
  22235034.261   -15820030.58549 -12311254.43747  22235033.307    22235040.787
  24070164.153    -4516595.35649  -3506385.77245  24070163.722    24070170.517
  22684742.616   -13214938.09049 -10285394.30546  22684742.220    22684747.862
  23849067.849    -6100407.04449  -4733443.00045  23849067.255    23849074.317
  21670290.186   -18428800.10749 -14351477.86547  21670289.471    21670295.885
 03  6  4  1 52  0.0000000  0  7G20G16G 2G13G25G11G 1
  20374665.989   -25218173.00349 -19640775.68348  20374665.023    20374670.184
  21888227.116   -19009314.45249 -14797793.08647  21888226.436    21888231.730
  22222786.215   -15884394.21849 -12361407.84247  22222785.216    22222792.743
  24055778.838    -4592189.65749  -3565290.31045  24055778.401    24055785.333
  22700024.748   -13134630.20249 -10222816.75946  22700024.340    22700030.009
  23865415.185    -6014500.70949  -4666503.07645  23865414.737    23865421.854
  21661438.965   -18475313.31049 -14387721.89447  21661438.268    21661444.686
 03  6  4  1 52 30.0000000  0  7G20G16G 2G13G25G11G 1
  20370357.804   -25240812.68649 -19658416.98448  20370356.836    20370361.991
  21878415.670   -19060873.85649 -14837969.21147  21878415.009    21878420.254
  22210600.354   -15948430.82649 -12411306.42947  22210599.412    22210606.896
  24041399.894    -4667751.35949  -3624169.47645  24041399.526    24041406.407
  22715331.195   -13054194.42049 -10160139.55846  22715330.754    22715336.458
  23881772.269    -5928544.89649  -4599524.55945  23881771.794    23881778.868
  21652611.032   -18521704.59449 -14423870.91347  21652610.300    21652616.768
 03  6  4  1 53  0.0000000  0  7G20G16G 2G13G25G11G 1
  20366148.278   -25262933.74849 -19675654.16948  20366147.319    20366152.446
  21868693.538   -19111963.81849 -14877779.53747  21868692.879    21868698.083
  22198477.185   -16012138.42449 -12460948.65347  22198476.255    22198483.676
  24027026.921    -4743280.59849  -3683023.35145  24027026.616    24027033.550
  22730661.777   -12973632.17449 -10097363.81546  22730661.221    22730667.024
  23898138.180    -5842541.43649  -4532508.97045  23898137.684    23898144.889
  21643806.292   -18567973.88249 -14459924.87847  21643805.575    21643811.995
 03  6  4  1 53 30.0000000  0  7G20G16G 2G13G25G11G 1
  20362037.777   -25284534.56449 -19692485.96748  20362036.845    20362041.954
  21859061.206   -19162582.23449 -14917222.41947  21859060.527    21859065.690
  22186417.122   -16075514.29149 -12510332.38447  22186416.174    22186423.554
  24012660.281    -4818776.94249  -3741851.59945  24012659.982    24012666.969
  22746016.045   -12892944.93249 -10034490.67846  22746015.491    22746021.339
  23914512.489    -5756495.20149  -4465459.95545  23914511.957    23914518.982
  21635024.782   -18614120.65949 -14495883.37547  21635024.094    21635030.558
 03  6  4  1 54  0.0000000  0  7G20G16G 2G13G25G11G 1
  20358026.525   -25305613.91549 -19708911.42748  20358025.572    20358030.662
  21849518.906   -19212726.93149 -14956296.16947  21849518.253    21849523.438
  22174420.582   -16138556.57849 -12559456.17847  22174419.579    22174426.957
  23998299.911    -4894240.70949  -3800654.45745  23998299.713    23998306.568
  22761393.607   -12812135.20049  -9971522.09046  22761393.125    22761399.005
  23930894.472    -5670407.86849  -4398378.98545  23930893.887    23930900.978
  21626266.616   -18660144.95849 -14531746.43747  21626265.938    21626272.399
 03  6  4  1 54 30.0000000  0  7G20G16G 2G13G25G11G 1
  20354114.745   -25326170.29949 -19724929.37948  20354113.800    20354118.878
  21840067.322   -19262395.33449 -14994998.79247  21840066.657    21840071.825
  22162487.933   -16201262.97249 -12608318.25447  22162486.910    22162494.262
  23983945.834    -4969671.60549  -3859431.70045  23983945.790    23983952.470
  22776794.172   -12731204.61349  -9908459.33546  22776793.714    22776799.621
  23947283.685    -5584281.99049  -4331268.01345  23947283.001    23947290.296
  21617531.886   -18706046.39049 -14567513.76047  21617531.175    21617537.600
 03  6  4  1 55  0.0000000  0  7G20G16G 2G13G25G11G 1
  20350302.953   -25346201.40749 -19740538.02648  20350301.999    20350307.127
  21830706.790   -19311584.94049 -15033328.32147  21830706.117    21830711.272
  22150619.595   -16263630.83049 -12656916.52647  22150618.646    22150626.011
  23969598.133    -5045068.83649  -3918182.74345  23969598.092    23969604.706
  22792217.411   -12650154.05649  -9845303.09946  22792217.096    22792223.086
  23963679.812    -5498119.76249  -4264128.62845  23963679.240    23963686.400
  21608820.660   -18751824.03649 -14603184.62747  21608819.945    21608826.355
 03  6  4  1 55 30.0000000  0  7G20G16G 2G13G25G11G 1
  20346591.127   -25365706.95349 -19755737.14648  20346590.209    20346595.321
  21821437.674   -19360294.16049 -15071283.52247  21821437.013    21821442.148
  22138816.050   -16325658.69649 -12705249.86847  22138815.067    22138822.439
  23955256.790    -5120433.07249  -3976908.03745  23955256.691    23955263.353
  22807663.188   -12568986.35449  -9782055.57646  22807662.823    22807668.783
  23980081.991    -5411924.74849  -4196963.77645  23980081.455    23980088.921
  21600132.972   -18797478.53349 -14638759.53247  21600132.230    21600138.603
 03  6  4  1 56  0.0000000  0  7G20G16G 2G13G25G11G 1
  20342979.616   -25384685.52649 -19770525.63248  20342978.679    20342983.780
  21812260.328   -19408520.88749 -15108862.75647  21812259.697    21812264.875
  22127077.589   -16387344.64449 -12753316.78047  22127076.614    22127083.949
  23940921.860    -5195764.37349  -4035607.68545  23940921.715    23940928.184
  22823131.021   -12487703.00049  -9718717.93146  22823130.626    22823136.493
  23996490.201    -5325699.99249  -4129775.67145  23996489.705    23996496.849
  21591468.650   -18843009.75249 -14674238.36947  21591467.878    21591474.271
 03  6  4  1 56 30.0000000  0  7G20G16G 2G13G25G11G 1
  20339468.605   -25403135.97549 -19784902.59648  20339467.670    20339472.766
  21803175.183   -19456263.41649 -15146064.69047  21803174.536    21803179.759
  22115404.478   -16448686.72249 -12801115.74847  22115403.565    22115410.863
  23926593.034    -5271062.92449  -4094281.79845  23926592.884    23926599.273
  22838620.417   -12406306.28149  -9655291.95446  22838619.942    22838625.760
  24012903.447    -5239448.60849  -4062566.89045  24012902.864    24012909.898
  21582827.770   -18888417.68049 -14709621.14847  21582827.050    21582833.406
 03  6  4  1 57  0.0000000  0  7G20G16G 2G13G25G11G 1
  20336058.530   -25421055.96649 -19798866.21648  20336057.590    20336062.677
  21794182.777   -19503518.59849 -15182886.87447  21794182.102    21794187.394
  22103797.515   -16509681.76249 -12848644.29847  22103796.580    22103803.824
  23912270.669    -5346327.58349  -4152929.52645  23912270.570    23912276.872
  22854131.176   -12324797.05449  -9591778.30846  22854130.634    22854136.481
  24029321.138    -5153172.37249  -3995338.72345  24029320.738    24029327.673
  21574210.614   -18933701.13349 -14744906.93847  21574209.826    21574216.243
 03  6  4  1 57 30.0000000  0  7G20G16G 2G13G25G11G 1
  20332749.723   -25438443.93449 -19812415.27648  20332748.771    20332753.855
  21785283.652   -19550283.91849 -15219327.34947  21785282.953    21785288.223
                  -1014983.64849   -781628.63543
  23897954.833    -5421557.99249  -4211550.56545  23897954.621    23897961.021
  22869662.870   -12243176.66449  -9528178.03446  22869662.482    22869668.375
  24045743.220    -5066873.82249  -3928093.21745  24045742.799    24045749.940
  21565617.233   -18978859.66449 -14780095.40247  21565616.414    21565622.850
 03  6  4  1 58  0.0000000  0  7G20G16G 2G13G25G11G 1
  20329542.400   -25455298.73249 -19825548.87448  20329541.431    20329546.496
  21776477.983   -19596557.69249 -15255384.79847  21776477.318    21776482.603
                  -1032374.37249   -795115.53843
  23883645.351    -5496753.82049  -4270144.63945  23883645.185    23883651.588
  22885215.553   -12161446.93849  -9464492.59646  22885215.086    22885221.082
  24062169.150    -4980555.72749  -3860832.40345  24062168.717    24062175.734
  21557047.648   -19023893.11549 -14815186.38947  21557046.807    21557053.233
 03  6  4  1 58 30.0000000  0  7G20G16G 2G13G25G11G 1
  20326436.697   -25471619.39949 -19838266.27048  20326435.721    20326440.757
  21767766.214   -19642338.26249 -15291057.93647  21767765.549    21767770.848
  22069376.592    -1092316.21749   -841823.51046  22069375.619    22069382.647
  23869342.439    -5571915.78349  -4328712.35145  23869342.309    23869348.538
  22900788.586   -12079610.28849  -9400723.80746  22900788.114    22900794.055
  24078597.844    -4894221.37149  -3793558.92045  24078597.424    24078604.558
  21548501.814   -19068801.51149 -14850179.93047  21548501.003    21548507.413
 03  6  4  1 59  0.0000000  0  6G20G16G13G25G11G 1
  20323432.734   -25487405.21549 -19850566.90548  20323431.771    20323436.814
  21759148.658   -19687623.58949 -15326345.16547  21759147.995    21759153.318
  23855045.958    -5647044.08649  -4387253.81045  23855045.815    23855052.096
  22916381.642   -11997668.78449  -9336873.32946  22916381.180    22916387.068
  24095029.465    -4807873.53549  -3726274.97045  24095028.820    24095036.205
  21539979.803   -19113584.83449 -14885076.00047  21539978.993    21539985.402
 03  6  4  1 59 30.0000000  0  7G20G16G 2G13G25G11G 1
  20320530.847   -25502654.68749 -19862449.60648  20320529.870    20320534.936
  21750625.789   -19732411.67949 -15361244.93347  21750625.066    21750630.447
                  -1108620.63249   -855366.04943
  23840756.072    -5722138.31049  -4445768.73845  23840755.788    23840762.146
  22931994.355   -11915623.67949  -9272942.10946  22931993.900    22931999.789
  24111462.567    -4721514.98749  -3658982.71145  24111462.182    24111469.849
  21531481.622   -19158242.57049 -14919874.21847  21531480.876    21531487.243
 03  6  4  2  0  0.0000000  0  7G20G16G 2G13G25G11G 1
  20317731.270   -25517366.36049 -19873913.24148  20317730.318    20317735.388
  21742197.856   -19776700.34649 -15395755.55847  21742197.140    21742202.488
                  -1167491.89749   -901574.45243
  23826472.407    -5797197.93949  -4504256.71845  23826472.257    23826478.624
  22947626.485   -11833476.58449  -9208931.42246  22947626.069    22947631.872
  24127897.833    -4635148.58749  -3591684.25045  24127897.325    24127904.571
  21523007.487   -19202774.45249 -14954574.35947  21523006.742    21523013.096
 03  6  4  2  0 30.0000000  0  7G20G16G 2G13G25G11G 1
  20315034.310   -25531539.04349 -19884956.89148  20315033.345    20315038.427
  21733865.323   -19820487.87649 -15429875.68347  21733864.649    21733870.009
                  -1226002.04949   -947661.86343
  23812195.502    -5872223.15949  -4562717.87745  23812195.380    23812201.710
  22963277.627   -11751229.38549  -9144842.73146  22963277.274    22963282.975
  24144333.902    -4548776.74749  -3524381.60745  24144333.206    24144340.698
  21514557.388   -19247180.34849 -14989176.33547  21514556.552    21514562.876
 03  6  4  2  1  0.0000000  0  7G20G16G 2G13G25G11G 1
  20312440.233   -25545171.15349 -19895579.31248  20312439.271    20312444.337
  21725628.715   -19863771.64349 -15463603.25747  21725628.031    21725633.378
                  -1284148.66249   -892652.34946                  22013370.256
  23797925.266    -5947213.35049  -4621151.69745  23797925.080    23797931.623
  22978947.660   -11668883.36549  -9080677.02846  22978947.216    22978952.962
  24160770.612    -4462402.16449  -3457076.82345  24160769.946    24160777.276
  21506131.255   -19291459.48049 -15023679.53147  21506130.466    21506136.806
 03  6  4  2  1 30.0000000  0  7G20G16G 2G13G25G11G 1
  20309949.020   -25558262.32549 -19905780.22348  20309948.066    20309953.148
  21717488.265   -19906550.25349 -15496937.20947  21717487.526    21717492.846
  22002368.232    -1341930.38849   -937677.02847  22002367.838    22002374.822
  23783661.623    -6022168.69349  -4679558.41345  23783661.583    23783667.969
  22994635.942   -11586440.79149  -9016436.11246  22994635.545    22994641.321
  24177207.296    -4376027.80849  -3389772.22345  24177206.588    24177214.004
  21497729.304   -19335612.03149 -15058084.09247  21497728.502    21497734.807
 03  6  4  2  2  0.0000000  0  7G20G16G 2G13G25G11G 1
  20307561.006   -25570811.43249 -19915558.75048  20307560.039    20307565.162
  21709444.168   -19948822.26649 -15529876.41147  21709443.425    21709448.692
  21991442.635    -1399345.67949   -982416.16547  21991441.952    21991449.000
  23769404.748    -6097089.45449  -4737938.15945  23769404.634    23769410.774
  23010342.354   -11503903.58049  -8952121.45246  23010341.872    23010347.636
  24193643.131    -4289656.96149  -3322470.28745  24193642.361    24193649.771
  21489351.378   -19379638.22249 -15092390.19447  21489350.582    21489356.903
 03  6  4  2  2 30.0000000  0  7G20G16G 2G13G25G11G 1
  20305276.458   -25582816.71449 -19924913.51648  20305275.490    20305280.600
  21701496.849   -19990585.02849 -15562418.79247  21701496.197    21701501.442
  21980587.295    -1456391.51649  -1026867.42347  21980586.577    21980593.552
  23755154.423    -6171975.00249  -4796290.44645  23755154.289    23755160.482
  23026066.561   -11421272.51849  -8887733.65346  23026066.066    23026071.902
  24210077.789    -4203291.68249  -3255172.74645  24210077.042    24210084.611
  21480997.703   -19423536.84249 -15126596.88847  21480996.945    21481003.252
 03  6  4  2  3  0.0000000  0  8G 4G20G16G 2G13G25G11G 1
  24763333.393    -1629696.36149  -1264722.09045  24763333.231    24763341.053
  20303095.424   -25594278.12949 -19933844.48948  20303094.450    20303099.558
  21693646.675   -20031837.71049 -15594563.70747  21693646.001    21693651.247
  21969802.291    -1513067.36549  -1071030.37647  21969801.463    21969808.418
  23740910.641    -6246826.19749  -4854616.00845  23740910.679    23740916.731
  23041807.949   -11338550.89749  -8823275.28046  23041807.548    23041813.363
  24226510.928    -4116935.46749  -3187882.27445  24226510.226    24226517.644
  21472668.148   -19467308.74449 -15160704.84147  21472667.422    21472673.727
 03  6  4  2  3 30.0000000  0  8G 4G20G16G 2G13G25G11G 1
  24755302.628    -1671898.31949  -1297606.70945  24755302.452    24755310.247
  20301018.024   -25605194.76949 -19942350.96648  20301017.058    20301022.164
  21685893.977   -20072578.51949 -15626309.75847  21685893.298    21685898.525
  21959087.894    -1569371.39049  -1114903.58947  21959087.090    21959094.094
  23726673.474    -6321642.77049  -4912914.55745  23726673.425    23726679.630
  23057566.240   -11255740.24049  -8758747.52846  23057565.889    23057571.699
  24242941.615    -4030591.43749  -3120601.31745  24242941.021    24242948.488
  21464362.800   -19510953.76149 -15194713.92547  21464362.051    21464368.310
 03  6  4  2  4  0.0000000  0  8G 4G20G16G 2G13G25G11G 1
  24747363.599    -1713617.02349  -1330114.77045  24747363.537    24747371.570
  20299045.072   -25615562.59249 -19950429.79048  20299044.134    20299049.263
  21678239.516   -20112802.89949 -15657653.39947  21678238.838    21678244.074
  21948445.258    -1625298.55449  -1158483.15347  21948444.448    21948451.456
  23712443.436    -6396421.65849  -4971183.76345  23712443.407    23712449.645
  23073341.718   -11172839.33949  -8694149.46446  23073341.408    23073347.359
  24259370.103    -3944259.13049  -3053329.45745  24259369.378    24259377.165
  21456082.258   -19554468.52749 -15228621.51447  21456081.474    21456087.661
 03  6  4  2  4 30.0000000  0  8G 4G20G16G 2G13G25G11G 1
  24739516.874    -1754852.20349  -1362246.04645  24739516.838    24739524.660
  20297176.621   -25625381.33149 -19958080.75648  20297175.678    20297180.796
  21670683.472   -20152509.86649 -15688593.86047  21670682.808    21670688.082
  21937874.601    -1680847.69349  -1201768.15247  21937873.796    21937880.770
  23698220.476    -6471163.69449  -5029424.23745  23698220.443    23698226.715
  23089133.901   -11089850.89249  -8629483.18646  23089133.576    23089139.595
  24275795.464    -3857942.41549  -2986069.72245  24275795.046    24275802.654
  21447826.351   -19597853.68749 -15262428.11247  21447825.539    21447831.699
 03  6  4  2  5  0.0000000  0  8G 4G20G16G 2G13G25G11G 1
  24731762.178    -1795603.65449  -1394000.39045  24731762.098    24731769.864
  20295412.700   -25634650.80749 -19965303.72848  20295411.749    20295416.846
  21663226.141   -20191698.25749 -15719130.24247  21663225.461    21663230.727
  21927376.080    -1736017.76349  -1244757.76947  21927375.254    21927382.252
  23684004.469    -6545869.43749  -5087636.41945  23684004.325    23684010.644
  23104942.489   -11006776.99449  -8564750.32946  23104942.071    23104948.112
  24292217.832    -3771644.71349  -2918824.82145  24292217.307    24292224.847
  21439594.972   -19641109.58349 -15296133.98647  21439594.198    21439600.354
 03  6  4  2  5 30.0000000  0  8G 4G20G16G 2G13G25G11G 1
  24724099.665    -1835870.23649  -1425376.94545  24724099.532    24724107.363
  20293753.534   -25643369.98849 -19972097.89648  20293752.587    20293757.662
  21655867.867   -20230366.15849 -15749261.04947  21655867.185    21655872.409
  21916950.101    -1790806.76149  -1287450.45247  21916949.222    21916956.236
  23669795.208    -6620538.37649  -5145819.93645  23669795.192    23669801.498
  23120766.926   -10923619.37549  -8499952.22146  23120766.516    23120772.506
  24308635.845    -3685368.12649  -2851596.41545  24308635.162    24308643.074
  21431388.359   -19684235.66449 -15329738.70047  21431387.589    21431393.800
 03  6  4  2  6  0.0000000  0  8G 4G20G16G 2G13G25G11G 1
  24716529.774    -1875650.45049  -1456374.48945  24716529.672    24716537.460
  20292199.276   -25651537.56349 -19978462.24148  20292198.343    20292203.411
  21648609.017   -20268511.65149 -15778984.78247  21648608.290    21648613.495
  21906596.970    -1845212.69149  -1329844.63847  21906596.079    21906603.129
  23655593.260    -6695170.28849  -5203974.62145  23655593.304    23655599.366
  23136607.033   -10840379.38649  -8435089.93246  23136606.610    23136612.610
  24325049.169    -3599115.53949  -2784386.80145  24325048.539    24325056.531
  21423206.411   -19727231.47349 -15363241.90747  21423205.694    21423211.950
 03  6  4  2  6 30.0000000  0  8G 4G20G16G 2G13G25G11G 1
  24709052.503    -1914943.91849  -1486992.74645  24709052.269    24709060.186
  20290750.116   -25659153.01849 -19984396.36348  20290749.197    20290754.254
  21641449.738   -20306133.40849 -15808300.40847  21641449.076    21641454.269
  21896316.944    -1899234.13149  -1371939.22147  21896316.056    21896323.129
  23641398.392    -6769765.38949  -5262100.61045  23641398.270    23641404.290
  23152462.459   -10757059.12149  -8370165.09546  23152461.935    23152467.967
  24341457.599    -3512890.26449  -2717198.29045  24341456.860    24341464.613
  21415049.291   -19770097.02149 -15396643.60947  21415048.600    21415054.874
 03  6  4  2  7  0.0000000  0  8G 4G20G16G 2G13G25G11G 1
  24701668.112    -1953749.61949  -1517230.90845  24701668.030    24701675.670
  20289406.271   -25666215.13649 -19989899.31148  20289405.327    20289410.382
  21634390.561   -20343229.68049 -15837206.56847  21634389.894    21634395.057
  21886110.488    -1952869.07249  -1413732.63347  21886109.612    21886116.715
  23627210.442    -6844323.12349  -5320197.46245  23627210.244    23627216.378
  23168332.771   -10673660.01449  -8305178.81546  23168332.227    23168338.232
  24357860.160    -3426694.71349  -2650032.95445  24357859.454    24357867.133
  21406917.115   -19812831.90549 -15429943.50247  21406916.400    21406922.671
 03  6  4  2  7 30.0000000  0  8G 4G20G16G 2G13G25G11G 1
  24694376.807    -1992065.69649  -1547087.58545  24694376.579    24694384.377
  20288167.954   -25672722.53649 -19994970.00848  20288167.014    20288172.097
  21627431.885   -20379797.77549 -15865701.15447  21627431.211    21627436.362
  21875978.109    -2006114.94949  -1455222.88247  21875977.206    21875984.290
  23613029.600    -6918842.95249  -5378264.79545  23613029.460    23613035.660
  23184217.890   -10590182.65449  -8240131.58846  23184217.430    23184223.507
  24374256.744    -3340530.68649  -2582892.24045  24374255.993    24374263.876
  21398810.008   -19855434.96049 -15463140.66447  21398809.322    21398815.567
 03  6  4  2  8  0.0000000  0  8G 4G20G16G 2G13G25G11G 1
  24687178.572    -2029892.36449  -1576562.85845  24687178.322    24687186.251
  20287035.220   -25678675.06949 -19999608.33948  20287034.288    20287039.356
  21620573.855   -20415837.10849 -15893783.73047  21620573.179    21620578.300
  21865919.962    -2058970.87849  -1496409.27647  21865919.059    21865926.089
  23598856.053    -6993325.30749  -5436302.91745  23598855.911    23598862.039
  23200117.517   -10506629.87749  -8175025.57046  23200117.063    23200123.151
  24390646.487    -3254401.37849  -2515778.67645  24390645.887    24390653.840
  21390727.863   -19897906.81549 -15496235.59447  21390727.168    21390733.382
 03  6  4  2  8 30.0000000  0  8G 4G20G16G 2G13G25G11G 1
  24680073.803    -2067227.98149  -1605655.54145  24680073.731    24680081.555
  20286008.289   -25684071.61249 -20003813.43048  20286007.339    20286012.413
  21613816.686   -20451345.72349 -15921452.75147  21613816.046    21613821.222
  21855936.484    -2111434.55649  -1537290.01847  21855935.551    21855942.561
  23584689.881    -7067769.63649  -5494311.42545  23584689.630    23584695.725
  23216031.160   -10423002.81749  -8109861.68046  23216030.786    23216036.866
  24407029.394    -3168309.75349  -2448694.36545  24407028.766    24407036.564
  21382670.854   -19940246.61549 -15529227.61847  21382670.175    21382676.391
 03  6  4  2  9  0.0000000  0  8G 4G20G16G 2G13G25G11G 1
  24673062.550    -2104071.83249  -1634365.01945  24673062.375    24673070.290
  20285087.434   -25688910.81349 -20007584.23448  20285086.497    20285091.552
  21607161.019   -20486321.66749 -15948706.71047  21607160.354    21607165.492
  21846027.952    -2163504.04649  -1577863.60747  21846027.050    21846034.014
  23570530.712    -7142175.65249  -5552290.07145  23570530.502    23570536.641
  23231958.709   -10339302.71549  -8044640.86146  23231958.430    23231964.481
  24423404.531    -3082258.15249  -2381641.14645  24423403.909    24423411.677
  21374639.139   -19982453.66049 -15562116.19947  21374638.476    21374644.664
 03  6  4  2  9 30.0000000  0  8G 4G20G16G 2G13G25G11G 1
  24666145.130    -2140423.08749  -1662690.61645  24666144.933    24666152.717
  20284272.692   -25693192.24749 -20010920.40948  20284271.751    20284276.823
  21600606.887   -20520763.61749 -15975544.56347  21600606.231    21600611.379
  21836194.715    -2215177.86049  -1618128.87447  21836193.798    21836200.762
  23556378.934    -7216543.23649  -5610238.75445  23556378.789    23556384.919
  23247899.831   -10255531.39049  -7979364.55946  23247899.494    23247905.691
  24439771.530    -2996249.08849  -2314621.21845  24439770.818    24439778.688
  21366632.709   -20024527.80149 -15594901.21447  21366632.018    21366638.192
 03  6  4  2 10  0.0000000  0  8G 4G20G16G 2G13G25G11G 1
  24659321.661    -2176280.60049  -1690631.51645  24659321.417    24659329.011
  20283564.268   -25696914.95149 -20013821.21148  20283563.321    20283568.411
  21594154.720   -20554669.88049 -16001965.00547  21594154.078    21594159.175
  21826437.162    -2266453.77249  -1658084.09047  21826436.283    21826443.252
  23542234.654    -7290871.74649  -5668157.01345  23542234.470    23542240.521
  23263854.276   -10171690.62249  -7914034.13246  23263853.920    23263860.029
  24456129.854    -2910285.29749  -2247636.54545  24456129.214    24456137.196
  21358651.639   -20066468.43549 -15627582.19747  21358650.954    21358657.126
 03  6  4  2 10 30.0000000  0  8G 4G20G16G 2G13G25G11G 1
  24652592.220    -2211644.00649  -1718187.39045  24652592.036    24652599.612
  20282962.299   -25700078.29449 -20016286.14648  20282961.378    20282966.465
  21587804.726   -20588039.34149 -16027967.16047  21587804.064    21587809.127
  21816755.633    -2317330.44949  -1697728.21347  21816754.705    21816761.684
  23528097.654    -7365161.39849  -5726044.99445  23528097.547    23528103.682
  23279821.692   -10087782.08949  -7848650.88646  23279821.236    23279827.292
  24472479.153    -2824369.63849  -2180689.39445  24472478.476    24472486.467
  21350695.966   -20108275.58949 -15660159.17647  21350695.281    21350701.519
 03  6  4  2 11  0.0000000  0  8G 4G20G16G 2G13G25G11G 1
  24645956.912    -2246512.22249  -1745357.37345  24645956.809    24645964.442
  20282466.946   -25702681.34149 -20018314.48948  20282466.001    20282471.089
  21581557.157   -20620870.03049 -16053549.49247  21581556.539    21581561.589
  21807150.369    -2367806.05249  -1737059.81947  21807149.484    21807156.433
  23513968.390    -7439411.85249  -5783902.45145  23513968.299    23513974.317
  23295801.660   -10003807.10549  -7783215.87646  23295801.143    23295807.174
  24488818.972    -2738504.37849  -2113781.53445  24488818.095    24488826.091
  21342765.853   -20149948.67449 -15692631.69147  21342765.101    21342771.375
 03  6  4  2 11 30.0000000  0  8G 4G20G16G 2G13G25G11G 1
  24639416.060    -2280884.48949  -1772140.94145  24639415.987    24639423.464
  20282078.339   -25704723.57849 -20019905.84148  20282077.410    20282082.482
  21575412.471   -20653160.56049 -16078710.91447  21575411.843    21575416.874
  21797621.768    -2417879.15549  -1776077.78047  21797620.861    21797627.832
  23499846.524    -7513622.90049  -5841729.17745  23499846.355    23499852.250
  23311793.884    -9919767.24549  -7717730.31746  23311793.362    23311799.491
  24505148.286    -2652692.46449  -2046915.19145  24505147.429    24505155.801
  21334861.288   -20191487.23049 -15724999.38247  21334860.564    21334866.815
 03  6  4  2 12  0.0000000  0  8G 4G20G16G 2G13G25G11G 1
  24632969.904    -2314759.63549  -1798537.13845  24632969.660    24632977.240
  20281796.720   -25706203.43749 -20021058.98248  20281795.765    20281800.839
  21569370.962   -20684908.87049 -16103449.83047  21569370.316    21569375.351
  21788170.161    -2467547.37049  -1814780.24447  21788169.264    21788176.239
  23485732.226    -7587793.86049  -5899524.66145  23485732.166    23485737.985
  23327798.172    -9835663.58649  -7652195.02846  23327797.771    23327804.090
  24521467.352    -2566935.99949  -1980092.02645  24521466.551    24521474.769
  21326982.496   -20232890.43249 -15757261.60347  21326981.788    21326987.974
 03  6  4  2 12 30.0000000  0  8G 4G20G16G 2G13G25G11G 1
  24626618.389    -2348137.02949  -1824545.43845  24626618.207    24626625.649
  20281622.150   -25707120.68949 -20021773.72048  20281621.216    20281626.324
  21563432.827   -20716113.84249 -16127765.37147  21563432.177    21563437.202
  21778795.932    -2516809.02149  -1853165.90747  21778795.044    21778801.989
  23471625.564    -7661924.52349  -5957288.78445  23471625.492    23471631.350
  23343814.193    -9751497.79149  -7586611.34346  23343813.913    23343820.332
  24537775.230    -2481237.92549  -1913314.42245  24537774.373    24537782.603
  21319129.497   -20274158.09249 -15789418.20747  21319128.784    21319134.951
 03  6  4  2 13  0.0000000  0  8G 4G20G16G 2G13G25G11G 1
  24620361.805    -2381015.87749  -1850165.30945  24620361.708    24620369.045
  20281554.853   -25707474.24149 -20022049.21848  20281553.942    20281559.019
  21557598.409   -20746773.78249 -16151656.20547  21557597.746    21557602.819
  21769499.457    -2565662.36149  -1891233.40147  21769498.540    21769505.439
  23457526.585    -7736014.56349  -6015021.20645  23457526.493    23457532.426
  23359841.852    -9667271.36149  -7520980.39146  23359841.667    23359848.182
  24554071.347    -2395600.17249  -1846583.88145  24554070.671    24554078.767
  21311302.512   -20315289.46049 -15821468.60447  21311301.763    21311307.922
 03  6  4  2 13 30.0000000  0  8G 4G20G16G 2G13G25G11G 1
  24614200.118    -2413395.71949  -1875396.37645  24614200.034    24614207.397
  20281594.890   -25707263.95649 -20021885.36248  20281593.955    20281599.020
  21551867.983   -20776887.42849 -16175121.35847  21551867.333    21551872.352
  21760280.905    -2614106.17549  -1928981.78947  21760279.972    21760286.855
  23443435.468    -7810063.80649  -6072721.85345  23443435.358    23443441.292
  23375881.037    -9582985.82849  -7455303.38246  23375880.764    23375887.223
  24570355.728    -2310026.00549  -1779902.76745  24570355.155    24570363.100
  21303501.400   -20356284.46349 -15853412.74647  21303500.654    21303506.805
 03  6  4  2 14  0.0000000  0  8G 4G20G16G 2G13G25G11G 1
  24608133.424    -2445276.08449  -1900238.16245  24608133.304    24608140.717
  20281742.291   -25706489.25449 -20021281.69848  20281741.353    20281746.432
  21546241.659   -20806453.93149 -16198160.17047  21546240.998    21546246.000
  21751140.517    -2662138.92049  -1966409.86247  21751139.599    21751146.468
  23429352.027    -7884072.53749  -6130390.95445  23429351.947    23429357.827
  23391931.125    -9498643.25449  -7389581.92246  23391930.713    23391937.104
  24586627.538    -2224518.09249  -1713273.30645  24586626.991    24586634.829
  21295726.221   -20397142.85849 -15885250.44847  21295725.496    21295731.671
 03  6  4  2 14 30.0000000  0  8G 4G20G16G 2G13G25G11G 1
  24602161.889    -2476656.07449  -1924690.08345  24602161.548    24602169.219
  20281997.207   -25705149.68849 -20020237.88548  20281996.256    20282001.346
  21540719.718   -20835471.72549 -16220771.41947  21540719.041    21540724.067
  21742078.676    -2709758.83549  -2003516.25347  21742077.773    21742084.634
  23415276.466    -7958039.99049  -6188027.89345  23415276.332    23415282.160
  23407991.688    -9414245.10049  -7323817.17146  23407991.215    23407997.623
  24602886.491    -2139079.13149  -1646697.59145  24602885.897    24602893.570
  21287977.163   -20437864.08349 -15916981.26447  21287976.461    21287982.594
 03  6  4  2 15  0.0000000  0  8G 4G20G16G 2G13G25G11G 1
  24596285.919    -2507534.88249  -1948751.49145  24596285.566    24596293.142
  20282359.745   -25703244.35149 -20018753.20948  20282358.795    20282363.911
  21535302.494   -20863939.05949 -16242953.73047  21535301.841    21535306.927
  21733095.711    -2756964.25949  -2040299.66347  21733094.842    21733101.672
  23401208.901    -8031965.75649  -6245632.31245  23401208.730    23401214.544
  23424062.522    -9329792.68049  -7258010.14646  23424062.039    23424068.525
  24619131.363    -2053711.47449  -1580177.40945  24619130.761    24619138.657
  21280254.412   -20478447.44449 -15948604.65047  21280253.707    21280259.849
 03  6  4  2 15 30.0000000  0  8G 4G20G16G 2G13G25G11G 1
  24590505.385    -2537911.38549  -1972421.44945  24590505.067    24590512.649
  20282830.237   -25700771.97149 -20016826.68648  20282829.289    20282834.408
  21529990.441   -20891854.04149 -16264705.64747  21529989.788    21529994.862
  21724192.134    -2803752.89349  -2076758.29947  21724191.245    21724198.067
  23387149.288    -8105849.21749  -6303203.77145  23387149.075    23387154.853
  23440143.370    -9245286.73349  -7192161.39246  23440143.006    23440149.439
  24635362.338    -1968416.71149  -1513714.10945  24635361.764    24635369.834
  21272558.045   -20518892.01849 -15980119.88547  21272557.345    21272563.512
 03  6  4  2 16  0.0000000  0  8G 4G20G16G 2G13G25G11G 1
  24584820.706    -2567784.90149  -1995699.46145  24584820.482    24584827.673
  20283408.727   -25697731.93149 -20014457.82748  20283407.779    20283412.894
  21524783.683   -20919215.61849 -16286026.33747  21524783.033    21524788.112
  21715368.193    -2850123.08549  -2112890.87747  21715367.284    21715374.032
  23373097.675    -8179689.89949  -6360741.89845  23373097.521    23373103.415
  23456234.092    -9160728.72349  -7126272.07146  23456233.897    23456240.279
  24651579.149    -1883197.75149  -1447309.81545  24651578.587    24651586.596
  21264888.237   -20559197.28049 -16011526.57747  21264887.515    21264893.682
 03  6  4  2 16 30.0000000  0  8G 4G20G16G 2G13G25G11G 1
  24579231.680    -2597155.61849  -2018585.76245  24579231.534    24579238.344
  20284095.216   -25694124.28349 -20011646.68148  20284094.294    20284099.412
  21519682.384   -20946022.93749 -16306915.14047  21519681.784    21519686.812
  21706624.050    -2896073.75349  -2148696.55147  21706623.088    21706629.853
  23359054.333    -8253487.90849  -6418246.79445  23359054.134    23359059.967
  23472334.697    -9076120.86049  -7060343.89846  23472334.381    23472340.744
  24667780.876    -1798057.44749  -1380966.78845  24667780.382    24667788.214
  21257244.874   -20599363.27049 -16042824.74147  21257244.166    21257250.305
 03  6  4  2 17  0.0000000  0  8G 4G20G16G 2G13G25G11G 1
  24573738.480    -2626022.57249  -2041079.46845  24573738.195    24573745.284
  20284889.892   -25689948.22649 -20008392.61748  20284888.954    20284894.080
  21514686.828   -20972274.57149 -16327370.93847  21514686.233    21514691.235
  21697959.932    -2941603.35749  -2184174.12647  21697959.036    21697965.827
  23345019.126    -8327242.98149  -6475718.19745  23345018.910    23345024.694
  23488444.354    -8991463.93749  -6994377.51746  23488444.059    23488450.530
  24683967.276    -1712998.35749  -1314687.06545  24683966.625    24683974.459
  21249628.228   -20639389.21349 -16074013.77247  21249627.499    21249633.600
 03  6  4  2 17 30.0000000  0  8G 4G20G16G 2G13G25G11G 1
  24568341.136    -2654385.27049  -2063180.23345  24568340.722    24568348.160
  20285792.830   -25685203.41349 -20004695.36048  20285791.888    20285796.995
  21509797.381   -20997968.96949 -16347392.52947  21509796.748    21509801.745
  21689376.305    -2986710.35549  -2219322.39747  21689375.428    21689382.183
  23330992.428    -8400954.71849  -6533155.85845  23330992.150    23330997.686
  23504562.994    -8906759.58949  -6928374.16546  23504562.790    23504569.299
  24700137.538    -1628022.91649  -1248472.58345  24700136.871    24700144.893
  21242038.299   -20679274.60649 -16105093.28747  21242037.563    21242043.629
 03  6  4  2 18  0.0000000  0  8G 4G20G16G 2G13G25G11G 1
  24563039.822    -2682242.87449  -2084887.44145  24563039.531    24563046.993
  20286804.119   -25679889.02649 -20000554.28948  20286803.158    20286808.297
  21505014.192   -21023104.94149 -16366978.98347  21505013.549    21505018.532
  21680873.538    -3031392.86849  -2254139.90247  21680872.614    21680879.370
  23316973.934    -8474622.27949  -6590559.09845  23316973.676    23316979.069
  23520690.595    -8822008.82149  -6862334.65646  23520690.305    23520696.825
  24716291.530    -1543133.29149  -1182324.89645  24716290.698    24716298.779
  21234475.212   -20719018.71449 -16136062.71447  21234474.489    21234480.575
 03  6  4  2 18 30.0000000  0  7G 4G20G16G 2G13G25G 1
  24557835.701    -2709590.12149  -2106196.96745  24557835.614    24557842.965
  20287924.697   -25674000.18149 -19995965.58848  20287923.773    20287928.914
  21500338.320   -21047676.73249 -16386125.81347  21500337.696    21500342.659
  21672452.688    -3075644.74349  -2288621.84747  21672451.744    21672458.470
  23302964.659    -8548240.74149  -6647924.08245  23302964.503    23302969.909
  23536827.686    -8737208.73849  -6796256.69546  23536827.214    23536833.741
  21226940.065   -20758616.28349 -16166917.96047  21226939.316    21226945.427
 03  6  4  2 19  0.0000000  0  7G 4G20G16G 2G13G25G 1
  24552727.905    -2736431.48449  -2127112.28045  24552727.830    24552735.135
  20289153.849   -25667541.04649 -19990932.49748  20289152.912    20289158.064
  21495769.109   -21071687.91149 -16404835.80747  21495768.499    21495773.463
  21664113.087    -3119469.32549  -2322770.83547  21664112.187    21664118.939
  23288963.823    -8621814.76749  -6705254.42846  23288963.657    23288969.243
  23552972.865    -8652365.42049  -6730145.07546  23552972.377    23552979.004
  21219431.918   -20798071.76549 -16197662.48347  21219431.164    21219437.326
 03  6  4  2 19 30.0000000  0  7G 4G20G16G 2G13G25G 1
  24547716.165    -2762768.63549  -2147634.73145  24547716.119    24547723.342
  20290491.174   -25660513.33749 -19985456.36448  20290490.266    20290495.400
  21491306.455   -21095139.30649 -16423109.60147  21491305.829    21491310.806
  21655854.743    -3162867.18949  -2356587.32047  21655853.834    21655860.570
  23274971.214    -8695346.00749  -6762551.44146  23274971.083    23274976.647
  23569125.534    -8567482.32749  -6664002.44446  23569125.135    23569131.685
  21211950.547   -20837386.57349 -16228297.38547  21211949.813    21211955.962
 03  6  4  2 20  0.0000000  0  7G 4G20G16G 2G13G25G 1
  24542800.540    -2788600.22649  -2167763.19945  24542800.404    24542807.951
  20291936.947   -25652915.74649 -19979536.16748  20291936.045    20291941.144
  21486950.700   -21118028.97349 -16440945.68647  21486950.064    21486955.034
  21647677.960    -3205836.06749  -2390069.52647  21647677.055    21647683.777
  23260987.220    -8768833.12649  -6819814.07946  23260987.004    23260992.538
  23585285.798    -8482560.36449  -6597829.54246  23585285.307    23585291.844
  21204496.209   -20876559.48949 -16258821.71747  21204495.433    21204501.609
 03  6  4  2 20 30.0000000  0  7G 4G20G16G 2G13G25G 1
  24537981.315    -2813925.26149  -2187496.96845  24537981.160    24537988.903
  20293491.306   -25644747.47949 -19973171.28748  20293490.409    20293495.526
  21482702.108   -21140355.28449 -16458342.79247  21482701.455    21482706.439
  21639583.266    -3248373.92849  -2423215.87347  21639582.359    21639589.075
  23247011.665    -8842275.47849  -6877041.80946  23247011.339    23247016.885
  23601453.306    -8397600.21449  -6531626.86146  23601452.725    23601459.096
  21197069.029   -20915589.40549 -16289234.62347  21197068.305    21197074.449
 03  6  4  2 21  0.0000000  0  7G 4G20G16G 2G13G25G 1
  24533258.737    -2838742.53249  -2206835.09245  24533258.628    24533266.208
  20295154.479   -25636007.48249 -19966360.90248  20295153.607    20295158.705
  21478561.130   -21162116.35449 -16475299.44847  21478560.432    21478565.415
  21631570.898    -3290478.59449  -2456024.67047  21631570.036    21631576.757
  23233044.712    -8915672.04549  -6934233.87846  23233044.448    23233050.001
  23617627.759    -8312602.41749  -6465394.85946  23617627.377    23617633.810
  21189669.349   -20954474.83249 -16319534.94147  21189668.638    21189674.741
 03  6  4  2 21 30.0000000  0  7G 4G20G16G 2G13G25G 1
  24528632.928    -2863052.03249  -2225777.50445  24528632.652    24528640.224
  20296926.527   -25626695.56349 -19959104.86048  20296925.621    20296930.718
  21474527.807   -21183311.32449 -16491814.98947  21474527.114    21474532.192
  21623641.306    -3332148.81049  -2488494.93547  21623640.445    21623647.157
  23219086.770    -8989022.20549  -6991389.80246  23219086.451    23219091.907
  23633809.097    -8227568.26949  -6399134.52346  23633808.834    23633815.306
  21182297.286   -20993215.26249 -16349722.26747  21182296.571    21182302.718
 03  6  4  2 22  0.0000000  0  7G 4G20G16G 2G13G25G 1
  24524103.740    -2886853.26749  -2244323.88245  24524103.506    24524111.250
  20298807.445   -25616811.31449 -19951402.84448  20298806.539    20298811.650
  21470602.364   -21203939.25449 -16507888.67547  21470601.712    21470606.838
  21615794.675    -3373383.24349  -2520625.63147  21615793.787    21615800.476
  23205137.569    -9062325.82849  -7048509.45246  23205137.187    23205142.632
  23649997.197    -8142499.45849  -6332847.17546  23649996.817    23650003.246
  21174952.895   -21031810.22849 -16379796.26447  21174952.186    21174958.284
 03  6  4  2 22 30.0000000  0  7G 4G20G16G 2G13G25G 1
  24519671.402    -2910145.35349  -2262473.52345  24519671.184    24519678.802
  20300797.401   -25606354.10649 -19943254.37748  20300796.481    20300801.587
  21466785.182   -21223998.56549 -16523519.28547  21466784.504    21466789.655
  21608031.330    -3414179.95549  -2552415.24647  21608030.432    21608037.070
  23191197.282    -9135582.00649  -7105592.14546  23191196.919    23191202.477
  23666191.755    -8057396.72449  -6266533.40246  23666191.356    23666197.865
  21167636.399   -21070258.67049 -16409756.07347  21167635.661    21167641.774
 03  6  4  2 23  0.0000000  0  7G 4G20G16G 2G13G25G 1
  24515336.113    -2932927.60849  -2280225.90445  24515335.906    24515343.386
  20302896.453   -25595323.36449 -19934658.99448  20302895.528    20302900.620
  21463076.455   -21243488.14549 -16538705.95647  21463075.762    21463080.851
  21600351.535    -3454537.39249  -2583862.56347  21600350.639    21600357.266
  23177266.002    -9208789.83549  -7162637.13346  23177265.704    23177271.418
  23682392.705    -7972261.13149  -6200194.01746  23682392.151    23682398.544
  21160347.861   -21108559.84549 -16439601.12147  21160347.156    21160353.288
 03  6  4  2 23 30.0000000  0  7G 4G20G16G 2G13G25G 1
  24511097.805    -2955200.42149  -2297581.34145  24511097.530    24511104.928
  20305104.653   -25583719.15149 -19925616.74848  20305103.719    20305108.805
  21459476.254   -21262407.24249 -16553448.09147  21459475.554    21459480.657
  21592755.549    -3494454.47149  -2614966.75647  21592754.647    21592761.240
  23163344.100    -9281949.35749  -7219644.50545  23163343.881    23163349.525
  23698599.418    -7887094.39849  -6133830.37746  23698598.881    23698605.269
  21153087.436   -21146713.64249 -16469331.33447  21153086.693    21153092.825
 03  6  4  2 24  0.0000000  0  7G 4G20G16G 2G13G25G 1
  24506956.395    -2976963.29849  -2314539.40545  24506956.048    24506963.659
  20307421.959   -25571541.47849 -19916127.64948  20307421.045    20307426.161
  21455984.701   -21280754.95949 -16567744.99147  21455984.051    21455989.156
  21585243.611    -3533929.76749  -2645726.69347  21585242.718    21585249.290
  23149431.454    -9355060.07849  -7276613.86045  23149431.252    23149436.878
  23714811.821    -7801898.07949  -6067443.67346  23714811.229    23714817.692
  21145855.118   -21184719.38249 -16498946.17147  21145854.390    21145860.553
 03  6  4  2 24 30.0000000  0  7G 4G20G16G 2G13G25G 1
  24502911.841    -2998215.64149  -2331099.67045  24502911.547    24502919.400
  20309848.572   -25558789.68249 -19906191.18948  20309847.655    20309852.778
  21452602.163   -21298530.02149 -16581595.66847  21452601.523    21452606.646
  21577816.033    -3572961.67549  -2676141.13947  21577815.159    21577821.740
  23135528.204    -9428121.44249  -7333544.74746  23135528.097    23135533.738
  23731029.380    -7716672.88449  -6001034.47145  23731029.081    23731035.458
  21138651.162   -21222576.06349 -16528444.87147  21138650.457    21138656.614
 03  6  4  2 25  0.0000000  0  7G 4G20G16G 2G13G25G 1
  24498964.899    -3018958.09249  -2347262.60245  24498964.509    24498972.114
  20312384.327   -25545464.17849 -19895807.68448  20312383.400    20312388.541
  21449328.724   -21315732.10149 -16594999.87047  21449328.089    21449333.214
  21570473.029    -3611549.59749  -2706209.62147  21570472.153    21570478.718
  23121634.406    -9501133.71549  -7390437.39246  23121634.276    23121639.929
  23747252.459    -7631420.69949  -5934604.25845  23747252.020    23747258.488
  21131475.634   -21260283.76349 -16557827.47547  21131474.954    21131481.031
 03  6  4  2 25 30.0000000  0  7G 4G20G16G 2G13G25G 1
  24495114.915    -3039190.30149  -2363027.93845  24495114.555    24495122.114
  20315029.236   -25531565.03649 -19884977.18548  20315028.328    20315033.455
  21446164.401   -21332360.65549 -16607957.16147  21446163.790    21446168.864
  21563214.644    -3649692.38449  -2735931.23747  21563213.758    21563220.349
  23107750.144    -9574096.43549  -7447291.38946  23107749.908    23107755.583
  23763480.148    -7546143.02049  -5868154.17345  23763479.864    23763486.210
  21124328.549   -21297841.89949 -16587093.53347  21124327.862    21124333.980
 03  6  4  2 26  0.0000000  0  7G 4G20G16G 2G13G25G 1
  24491362.003    -3058911.65049  -2378395.22345  24491361.743    24491369.297
  20317783.379   -25517091.79549 -19873699.33748  20317782.462    20317787.627
  21443109.423   -21348414.57549 -16620466.68847  21443108.835    21443113.902
  21556041.342    -3687388.11549  -2765304.50447  21556040.444    21556047.066
  23093875.481    -9647008.65549  -7504106.05846  23093875.173    23093880.886
  23779712.860    -7460840.66649  -5801684.87145  23779712.407    23779718.774
  21117210.116   -21335249.36149 -16616242.19147  21117209.460    21117215.568
 03  6  4  2 26 30.0000000  0  7G 4G20G16G 2G13G25G 1
  24487706.380    -3078122.38849  -2393364.58445  24487706.174    24487713.604
  20320646.709   -25502044.63949 -19861974.28848  20320645.820    20320650.998
  21440163.950   -21363893.08849 -16632527.84847  21440163.324    21440168.404
  21548953.323    -3724635.80849  -2794328.65347  21548952.441    21548959.022
  23080010.303    -9719870.08549  -7560881.18146  23080010.072    23080015.758
  23795949.826    -7375515.31149  -5735197.61745  23795949.387    23795955.662
  21110120.417   -21372506.01349 -16645273.32847  21110119.728    21110125.839
 03  6  4  2 27  0.0000000  0  7G 4G20G16G 2G13G25G 1
  24484147.902    -3096822.04649  -2407935.71345  24484147.667    24484155.227
  20323619.435   -25486423.04749 -19849801.61948  20323618.532    20323623.679
  21437328.157   -21378795.06149 -16644139.75547  21437327.577    21437332.599
  21541950.923    -3761434.01549  -2823002.55447  21541949.998    21541956.500
  23066155.043    -9792680.03849  -7617616.14946  23066154.794    23066160.421
  23812190.874    -7290168.17249  -5668693.40645  23812190.483    23812196.871
  21103059.696   -21409610.71149 -16674186.06647  21103058.986    21103065.064
 03  6  4  2 27 30.0000000  0  7G 4G20G16G 2G13G25G 1
  24480686.695    -3115010.35449  -2422108.40245  24480686.573    24480694.185
  20326701.443   -25470227.06649 -19837181.39248  20326700.528    20326705.657
  21434602.207   -21393119.85049 -16655301.91447  21434601.614    21434606.599
  21535034.168    -3797781.70149  -2851325.39147  21535033.247    21535039.691
  23052309.670    -9865438.22949  -7674310.80146  23052309.319    23052314.887
  23828436.015    -7204800.34449  -5602173.07545  23828435.527    23828441.792
  21096027.869   -21446562.95249 -16702980.00747  21096027.164    21096033.243
 03  6  4  2 28  0.0000000  0  7G 4G20G16G 2G13G25G 1
  24477322.863    -3132687.55649  -2435882.80845  24477322.722    24477330.297
  20329892.711   -25453456.86249 -19824113.71148  20329891.809    20329896.948
  21431986.172   -21406866.87949 -16666013.86847  21431985.595    21431990.615
  21528203.307    -3833677.81149  -2879296.35347  21528202.406    21528208.854
  23038474.128    -9938144.26249  -7730964.81046  23038473.886    23038479.342
  23844684.811    -7119413.03449  -5535637.57945  23844684.288    23844690.589
  21089025.140   -21483362.20849 -16731654.73747  21089024.452    21089030.582
 03  6  4  2 28 30.0000000  0  7G 4G20G16G 2G13G25G 1
  24474056.340    -3149853.14049  -2449258.56545  24474056.273    24474063.846
  20333193.377   -25436111.99249 -19810598.23548  20333192.474    20333197.592
  21429480.364   -21420035.15049 -16676274.84147  21429479.760    21429484.768
  21521458.742    -3869120.70649  -2906914.16047  21521457.835    21521464.268
  23024648.747   -10010797.21149  -7787577.47046  23024648.518    23024653.920
  23860937.117    -7034007.35949  -5469087.71945  23860936.468    23860942.797
  21082051.772   -21520007.43349 -16760209.44947  21082051.110    21082057.177
 03  6  4  2 29  0.0000000  0  7G 4G20G16G 2G13G25G 1
  24470887.242    -3166507.10849  -2462235.64945  24470887.167    24470894.700
  20336603.317   -25418192.56349 -19796635.04948  20336602.403    20336607.527
  21427084.798   -21432623.95949 -16686084.28347  21427084.188    21427089.212
  21514800.622    -3904109.37849  -2934178.02447  21514799.694    21514806.123
  23010833.472   -10083396.93049  -7844148.63846  23010833.262    23010838.616
  23877192.601    -6948584.34649  -5402524.41445  23877191.954    23877198.471
  21075107.932   -21556498.08149 -16788643.70247  21075107.207    21075113.228
 03  6  4  2 29 30.0000000  0  7G 4G20G16G 2G13G25G 1
  24467815.517    -3182649.14849  -2474813.86245  24467815.284    24467822.859
  20340122.668   -25399698.24649 -19782223.89748  20340121.747    20340126.889
  21424799.704   -21444632.26649 -16695441.39147  21424799.090    21424804.097
  21508229.124    -3938642.54949  -2961086.95547  21508228.223    21508234.647
  22997028.453   -10155942.40149  -7900677.50846  22997028.199    22997033.654
  23893451.156    -6863144.97749  -5335948.33045  23893450.588    23893457.041
  21068193.597   -21592833.25149 -16816956.80747  21068192.863    21068198.862
 03  6  4  2 30  0.0000000  0  7G 4G20G16G 2G13G25G 1
  24464840.970    -3198279.23949  -2486993.10345  24464840.794    24464848.460
  20343751.373   -25380629.34049 -19767365.01248  20343750.445    20343755.592
  21422625.220   -21456059.32749 -16704345.58147  21422624.626    21422629.582
  21501744.618    -3972718.83849  -2987639.87447  21501743.723    21501750.167
  22983233.829   -10228433.43449  -7957164.00146  22983233.559    22983238.989
  23909712.526    -6777690.88349  -5269360.75945  23909712.090    23909718.180
  21061308.948   -21629012.14849 -16845148.14447  21061308.230    21061314.246
 03  6  4  2 30 30.0000000  0  8G 4G20G27G16G 2G13G25G 1
  24461962.672    -3213404.72049  -2498779.18745  24461962.506    24461969.969
  20347487.998   -25360993.18349 -19752064.11648  20347487.078    20347492.220
  24861245.112    -2443093.85849  -1879255.12145  24861244.359    24861253.423
  21420560.068   -21466912.04349 -16712802.22447  21420559.425    21420564.358
  21495345.838    -4006344.43749  -3013841.60847  21495344.932    21495351.381
  22969448.354   -10300876.39249  -8013613.01646  22969448.101    22969453.499
  23925975.187    -6692230.14249  -5202768.02745  23925974.732    23925981.083
  21054452.836   -21665041.48449 -16873222.93747  21054452.106    21054458.103
 03  6  4  2 31  0.0000000  0  8G 4G20G27G16G 2G13G25G 1
  24459181.925    -3228017.43349  -2510165.69845  24459181.641    24459189.240
  20351334.117   -25340781.74449 -19736314.95148  20351333.185    20351338.336
  24845972.318    -2523351.79449  -1941793.64345  24845971.652    24845980.733
  21418605.793   -21477181.76949 -16720804.59847  21418605.168    21418610.111
  21489034.575    -4039510.12149  -3039684.97047  21489033.682    21489040.128
  22955673.552   -10373262.76649  -8070017.93946  22955673.378    22955678.778
  23942240.307    -6606755.85749  -5136164.70845  23942240.022    23942246.181
  21047626.797   -21700912.34849 -16901174.24447  21047626.052    21047632.062
 03  6  4  2 31 30.0000000  0  8G 4G20G27G16G 2G13G25G 1
  24456498.947    -3242116.05449  -2521151.60645  24456498.778    24456506.398
  20355289.947   -25319993.62649 -19720116.41848  20355289.037    20355294.160
  24830726.244    -2603469.60249  -2004222.99945  24830725.676    24830734.801
  21416762.822   -21486866.29149 -16728350.95747  21416762.204    21416767.214
  21482811.359    -4072213.25549  -3065167.90447  21482810.450    21482816.870
  22941909.904   -10445590.65149  -8126377.26146  22941909.746    22941915.166
  23958508.372    -6521268.12349  -5069550.95845  23958507.880    23958514.105
  21040831.312   -21736622.60449 -16929000.40247  21040830.586    21040836.600
 03  6  4  2 32  0.0000000  0  8G 4G20G27G16G 2G13G25G 1
  24453913.797    -3255702.06049  -2531738.10445  24453913.518    24453920.907
  20359355.243   -25298630.42849 -19703469.77248  20359354.332    20359359.456
  24815506.735    -2683448.17149  -2066543.83145  24815506.143    24815515.358
  21415031.079   -21495966.58549 -16735442.08347  21415030.473    21415035.440
  21476676.104    -4104454.27249  -3090290.74247  21476675.177    21476681.611
  22928157.271   -10517860.64049  -8182691.48746  22928157.148    22928162.583
  23974778.227    -6435769.59349  -5002928.76445  23974777.787    23974783.974
  21034066.258   -21772173.01949 -16956702.01147  21034065.540    21034071.568
 03  6  4  2 32 30.0000000  0  8G 4G20G27G16G 2G13G25G 1
  24451425.810    -3268775.52249  -2541925.19245  24451425.541    24451432.928
  20363529.939   -25276692.41249 -19686375.21648  20363529.012    20363534.109
  24800313.809    -2763286.91849  -2128755.74445  24800313.301    24800322.488
  21413410.668   -21504482.11149 -16742077.54647  21413410.025    21413414.973
  21470628.932    -4136231.96849  -3115052.55147  21470628.024    21470634.468
  22914415.739   -10590072.22849  -8238960.21446  22914415.670    22914421.084
  23991049.891    -6350260.94849  -4936298.73445  23991049.502    23991055.957
  21027331.735   -21807562.84849 -16984278.50147  21027331.022    21027337.033
 03  6  4  2 33  0.0000000  0  8G 4G20G27G16G 2G13G25G 1
  24449035.112    -3281337.30049  -2551713.54045  24449034.885    24449042.570
  20367813.773   -25254180.52749 -19668833.49148  20367812.847    20367817.935
  24785147.349    -2842986.17949  -2190858.96345  24785146.870    24785156.062
  21411901.388   -21512413.05449 -16748257.48547  21411900.760    21411905.688
  21464669.993    -4167546.22849  -3139453.24147  21464669.079    21464675.543
  22900685.249   -10662225.98649  -8295183.87746  22900685.166    22900690.701
  24007323.434    -6264744.18849  -4869662.36945  24007322.877    24007329.382
  21020627.890   -21842791.91249 -17011729.71147  21020627.183    21020633.129
 03  6  4  2 33 30.0000000  0  8G 4G20G27G16G 2G13G25G 1
  24446741.918    -3293387.70149  -2561103.47945  24446741.683    24446749.443
  20372206.756   -25231095.25749 -19650844.96948  20372205.845    20372210.944
  24770007.566    -2922545.68049  -2252853.26845  24770006.962    24770016.462
  21410503.453   -21519759.29249 -16753981.81247  21410502.837    21410507.747
  21458799.360    -4198396.31449  -3163492.24047  21458798.453    21458804.934
  22886966.069   -10734321.10849  -8351361.84546  22886965.883    22886971.463
  24023598.098    -6179220.79749  -4803020.77545  24023597.520    24023603.791
  21013954.677   -21877859.76349 -17039055.29647  21013953.962    21013959.904
 03  6  4  2 34  0.0000000  0  8G 4G20G27G16G 2G13G25G 1
  24444546.021    -3304926.76249  -2570094.92845  24444545.933    24444553.538
  20376708.811   -25207436.69849 -19632409.72948  20376707.889    20376713.018
  24754894.516    -3001964.72149  -2314738.09445  24754893.873    24754903.429
  21409216.851   -21526520.38749 -16759250.18547  21409216.218    21409221.155
  21453017.266    -4228781.18549  -3187168.73447  21453016.386    21453022.839
  22873257.853   -10806357.23049  -8407493.83846  22873257.763    22873263.422
  24039873.586    -6093691.61549  -4736374.74445  24039873.142    24039879.570
  21007312.369   -21912765.66549 -17066254.69347  21007311.621    21007317.499
 03  6  4  2 34 30.0000000  0  8G 4G20G27G16G 2G13G25G 1
  24442447.545    -3315955.14949  -2578688.46645  24442447.505    24442454.841
  20381319.878   -25183205.47849 -19613528.26448  20381318.956    20381324.102
  24739808.589    -3081243.27649  -2376513.49745  24739807.897    24739817.042
  21408041.534   -21532696.40249 -16764062.65547  21408040.912    21408045.855
  21447323.849    -4258700.33849  -3210482.33547  21447322.937    21447329.404
  22859561.007   -10878334.35749  -8463579.86846  22859560.925    22859566.547
  24056150.036    -6008158.57549  -4669725.65745  24056149.604    24056155.928
  21000700.844   -21947509.34249 -17093327.67647  21000700.118    21000706.000
 03  6  4  2 35  0.0000000  0  8G 4G20G27G16G 2G13G25G 1
  24440446.072    -3326472.98749  -2586884.17245  24440446.021    24440453.433
  20386039.836   -25158401.91649 -19594200.81548  20386038.919    20386044.097
  24724749.180    -3160380.85549  -2438179.07245  24724748.613    24724757.564
  21406977.744   -21538286.69249 -16768418.70847  21406977.118    21406982.076
  21441719.204    -4288152.73249  -3233432.22647  21441718.297    21441724.732
  22845875.709   -10950251.59549  -8519619.24546  22845875.599    22845881.162
  24072427.041    -5922622.64349  -4603074.37745  24072426.496    24072432.925
  20994120.342   -21982089.84349 -17120273.51047  20994119.633    20994125.546
 03  6  4  2 35 30.0000000  0  8G 4G20G27G16G 2G13G25G 1
  24438541.715    -3336480.53849  -2594682.23645  24438541.580    24438548.968
  20390868.623   -25133026.51049 -19574427.78448  20390867.706    20390872.894
  24709716.660    -3239376.84149  -2499734.26945  24709716.029    24709724.735
  21406025.403   -21543291.01449 -16772318.16547  21406024.807    21406029.760
  21436203.553    -4317137.47949  -3256017.71847  21436202.636    21436209.094
  22832201.862   -11022108.23549  -8575611.39246  22832201.726    22832207.389
  24088704.187    -5837084.84149  -4536421.56345  24088703.618    24088710.152
  20987571.027   -22016506.54349 -17147091.71247  20987570.307    20987576.275
 03  6  4  2 36  0.0000000  0  8G 4G20G27G16G 2G13G25G 1
  24436734.366    -3345977.09349  -2602082.11845  24436734.211    24436741.754
  20395806.394   -25107078.35049 -19554208.45348  20395805.468    20395810.679
  24694710.986    -3318229.95349  -2561178.10145  24694710.428    24694719.429
  21405184.920   -21547707.89449 -16775759.87547  21405184.329    21405189.243
  21430777.288    -4345652.54649  -3278237.22547  21430776.382    21430782.828
  22818539.688   -11093902.81549  -8631555.17046  22818539.584    22818545.329
  24104981.731    -5751545.43349  -4469767.55245  24104981.259    24104987.996
  20981053.242   -22050757.65849 -17173780.88847  20981052.570    20981058.565
 03  6  4  2 36 30.0000000  0  8G 4G20G27G16G 2G13G25G 1
  24435024.100    -3354963.56849  -2609084.54245  24435024.115    24435031.586
  20400852.874   -25080558.78749 -19533543.86748  20400851.974    20400857.178
  24679732.686    -3396940.48049  -2622510.84045  24679732.227    24679741.352
  21404456.057   -21551537.96049 -16778744.33447  21404455.484    21404460.320
  21425440.462    -4373697.73649  -3300090.59547  21425439.527    21425445.953
  22804889.272   -11165635.61649  -8687450.82846  22804889.224    22804894.906
  24121259.238    -5666005.89549  -4403113.38645  24121258.850    24121265.516
  20974566.983   -22084843.11349 -17200340.97747  20974566.300    20974572.315
 03  6  4  2 37  0.0000000  0  8G 4G20G27G16G 2G13G25G 1
  24433411.182    -3363440.54449  -2615689.98445  24433411.032    24433418.616
  20406008.039   -25053468.39549 -19512434.47948  20406007.125    20406012.323
  24664781.861    -3475508.25849  -2683732.39445  24664781.178    24664790.224
  21403838.927   -21554781.01749 -16781271.37847  21403838.341    21403843.169
  21420193.159    -4401272.41049  -3321577.32947  21420192.239    21420198.673
  22791250.919   -11237306.17549  -8743297.99146  22791250.795    22791256.382
  24137536.735    -5580467.90549  -4336460.47045  24137536.132    24137542.915
  20968112.333   -22118762.50849 -17226771.67347  20968111.629    20968117.653
 03  6  4  2 37 30.0000000  0  8G 4G20G27G16G 2G13G25G 1
  24431894.893    -3371408.90049  -2621899.06545  24431894.611    24431902.283
  20411271.685   -25025807.93049 -19490880.87448  20411270.751    20411275.959
  24649857.958    -3553933.11749  -2744842.62245  24649857.339    24649866.098
  21403333.409   -21557437.30049 -16783341.19647  21403332.801    21403337.707
  21415035.471    -4428376.18649  -3342697.13147  21415034.540    21415040.988
  22777624.411   -11308914.28449  -8799096.48246  22777624.199    22777629.687
  24153813.633    -5494932.93549  -4269809.84345  24153813.093    24153819.571
  20961689.396   -22152515.36349 -17253072.59147  20961688.695    20961694.708
 03  6  4  2 38  0.0000000  0  8G 4G20G27G16G 2G13G25G 1
  24430475.577    -3378867.91149  -2627711.28145  24430475.393    24430482.965
  20416643.862   -24997576.93349 -19468882.70348  20416642.942    20416648.129
  24634961.397    -3632213.83749  -2805840.48945  24634960.882    24634969.833
  21402939.758   -21559505.68349 -16784952.91247  21402939.154    21402944.097
  21409967.714    -4455007.24349  -3363448.57947  21409966.808    21409973.248
  22764009.958   -11380458.53149  -8854845.22046  22764009.844    22764015.192
  24170089.318    -5409401.45249  -4203162.00945  24170089.015    24170095.745
  20955298.487   -22186099.95249 -17279242.38747  20955297.779    20955303.791
 03  6  4  2 38 30.0000000  0  8G 4G20G27G16G 2G13G25G 1
  24429152.935    -3385817.98449  -2633126.90945  24429152.819    24429160.202
  20422124.459   -24968776.06249 -19446440.47748  20422123.558    20422128.761
  24620092.580    -3710349.97849  -2866725.64645  24620092.075    24620100.958
  21402658.053   -21560986.13449 -16786106.49847  21402657.449    21402662.406
  21404990.039    -4481164.91449  -3383831.16147  21404989.154    21404995.555
  22750407.802   -11451938.27549  -8910543.67546  22750407.690    22750413.020
  24186364.850    -5323874.07649  -4136517.31545  24186364.579    24186371.133
  20948939.682   -22219515.55049 -17305280.50947  20948938.971    20948944.954
 03  6  4  2 39  0.0000000  0  8G 4G20G27G16G 2G13G25G 1
  24427927.076    -3392260.05149  -2638146.68345  24427927.107    24427934.254
  20427713.397   -24939406.10749 -19423554.80748  20427712.489    20427717.684
  24605251.350    -3788341.43449  -2927498.11145  24605250.999    24605259.657
  21402488.252   -21561878.59349 -16786801.91047  21402487.646    21402492.573
  21400102.576    -4506848.70249  -3403844.47947  21400101.668    21400108.088
  22736818.048   -11523353.04449  -8966191.53046  22736817.969    22736823.179
  24202639.161    -5238352.17049  -4069876.92745  24202638.851    24202645.487
  20942613.176   -22252761.65249 -17331186.54747  20942612.441    20942618.415
 03  6  4  2 39 30.0000000  0  8G 4G20G27G16G 2G13G25G 1
  24426797.854    -3398194.68749  -2642771.06145  24426797.730    24426804.850
  20433410.403   -24909468.07549 -19400226.48548  20433409.495    20433414.711
  24590437.465    -3866188.33949  -2988157.95845  24590437.066    24590445.519
  21402430.245   -21562183.48149 -16787039.47247  21402429.626    21402434.555
  21395305.305    -4532058.33649  -3423488.32347  21395304.409    21395310.859
  22723240.768   -11594702.53549  -9021788.50146  22723240.648    22723245.801
  24218912.312    -5152837.64549  -4003242.27145  24218911.885    24218918.516
  20936318.868   -22285837.91349 -17356960.24247  20936318.228    20936324.173
 03  6  4  2 40  0.0000000  0  8G 4G20G27G16G 2G13G25G 1
  24425764.862    -3403622.02949  -2647000.11145  24425764.516    24425771.904
  20439215.485   -24878962.06249 -19376455.57048  20439214.596    20439219.815
  24575651.331    -3943889.66849  -3048704.36445  24575650.941    24575659.393
  21402484.114   -21561900.34749 -16786818.84447  21402483.489    21402488.356
  21390598.468    -4556792.66049  -3442761.80147  21390597.578    21390604.054
  22709675.827   -11665985.89349  -9077333.94946  22709675.729    22709681.048
  24235183.885    -5067330.72249  -3936613.55345  24235183.521    24235189.906
  20930057.246   -22318743.17449 -17382600.69547  20930056.573    20930062.496
 03  6  4  2 40 30.0000000  0  8G 4G20G27G16G 2G13G25G 1
  24424828.617    -3408541.78549  -2650833.65645  24424828.323    24424835.838
  20445128.769   -24847887.72349 -19352241.80548  20445127.853    20445133.079
  24560893.055    -4021444.46249  -3109136.55045  24560892.678    24560901.262
  21402650.124   -21561027.96849 -16786139.05847  21402649.514    21402654.351
  21385982.473    -4581049.97649  -3461663.58047  21385981.603    21385988.028
  22696123.783   -11737201.74849  -9132826.79646  22696123.680    22696129.151
  24251453.967    -4981831.91549  -3869991.16445  24251453.637    24251459.939
  20923828.430   -22351475.72449 -17408106.56647  20923827.765    20923833.709
 03  6  4  2 41  0.0000000  0  8G 4G20G27G16G 2G13G25G 1
  24423988.878    -3412955.36049  -2654272.81145  24423988.655    24423996.152
  20451149.842   -24816246.68449 -19327586.45748  20451148.944    20451154.166
  24546162.433    -4098853.17849  -3169454.83945  24546162.115    24546170.800
  21402928.037   -21559567.38849 -16785000.93247  21402927.452    21402932.323
  21381457.183    -4604830.58849  -3480193.90547  21381456.296    21381462.695
  22682584.531   -11808350.32249  -9188267.21046  22682584.473    22682590.037
  24267722.202    -4896343.12249  -3803376.59445  24267721.766    24267728.103
  20917632.440   -22384035.84149 -17433478.07347  20917631.765    20917637.737
 03  6  4  2 41 30.0000000  0  8G 4G20G27G16G 2G13G25G 1
  24423245.566    -3416862.47249  -2657317.31645  24423245.249    24423252.855
  20457278.808   -24784038.92349 -19302489.50648  20457277.901    20457283.092
  24531460.070    -4176114.64649  -3229658.54645  24531459.604    24531468.280
  21403317.991   -21557518.22149 -16783404.16547  21403317.392    21403322.303
  21377022.812    -4628133.30549  -3498351.84847  21377021.906    21377028.319
  22669058.486   -11879430.19049  -9243654.07746  22669058.367    22669064.007
  24283988.020    -4810865.02949  -3736770.29745  24283987.755    24283994.034
  20911469.497   -22416422.14649 -17458714.13847  20911468.831    20911474.820
 03  6  4  2 42  0.0000000  0  8G 4G20G27G16G 2G13G25G 1
  24422598.240    -3420264.43749  -2659968.19245  24422597.928    24422605.337
  20463515.349   -24751265.75849 -19276951.98048  20463514.464    20463519.648
  24516785.618    -4253229.21249  -3289747.75845  24516785.054    24516793.664
  21403819.855   -21554880.88949 -16781349.09147  21403819.254    21403824.142
  21372679.356    -4650958.08449  -3516137.36447  21372678.473    21372684.923
  22655545.483   -11950441.42349  -9298987.48246  22655545.382    22655550.954
  24300251.683    -4725398.73049  -3670173.25445  24300251.376    24300257.941
  20905339.706   -22448634.38849 -17483814.56847  20905339.005    20905344.983
 03  6  4  2 42 30.0000000  0  8G 4G20G27G16G 2G13G25G 1
  24422046.950    -3423160.91749  -2662225.19245  24422046.669    24422054.232
  20469859.485   -24717927.02449 -19250973.75348  20469858.592    20469863.779
  24502139.051    -4330195.96849  -3349721.68345  24502138.623    24502147.466
  21404433.754   -21551654.57549 -16778835.07147  21404433.179    21404438.075
  21368427.220    -4673303.27349  -3533549.18047  21368426.326    21368432.765
  22642045.816   -12021382.54549  -9354266.24746  22642045.708    22642051.211
  24316513.189    -4639944.76849  -3603585.80445  24316512.739    24316519.323
  20899243.361   -22480670.92049 -17508778.08547  20899242.665    20899248.634
 03  6  4  2 43  0.0000000  0  8G 4G20G27G16G 2G13G25G 1
  24421591.893    -3425552.45049  -2664088.74745  24421591.614    24421599.142
  20476311.159   -24684023.37049 -19224555.32748  20476310.255    20476315.425
  24487520.762    -4407014.32949  -3409580.04745  24487520.463    24487529.208
  21405159.879   -21547839.13349 -16775861.99247  21405159.267    21405164.163
  21364266.361    -4695168.37649  -3550586.90347  21364265.477    21364271.922
  22628559.626   -12092252.64549  -9409489.67046  22628559.574    22628564.972
  24332771.877    -4554504.22449  -3537008.81945  24332771.462    24332778.107
  20893180.605   -22512530.87949 -17533604.01648  20893179.903    20893185.846
 03  6  4  2 43 30.0000000  0  8G 4G20G27G16G 2G13G25G 1
  24421232.634    -3427440.48249  -2665559.93345  24421232.392    24421239.956
  20482870.014   -24649556.27049 -19197697.85848  20482869.105    20482874.297
  24472930.773    -4483684.63949  -3469323.12345  24472930.503    24472939.196
  21405997.837   -21543435.57349 -16772430.63347  21405997.246    21406002.133
  21360196.911    -4716553.40049  -3567250.53747  21360196.054    21360202.492
  22615087.052   -12163051.92149  -9464657.90846  22615086.921    22615092.258
  24349028.236    -4469078.41549  -3470443.29045  24349027.699    24349034.075
  20887151.510   -22544214.15549 -17558292.27148  20887150.806    20887156.750
 03  6  4  2 44  0.0000000  0  8G 4G20G27G16G 2G13G25G 1
  24420968.992    -3428826.01949  -2666639.56645  24420968.775    24420976.199
  20489535.896   -24614526.80749 -19170402.18548  20489535.010    20489540.229
  24458369.203    -4560206.96949  -3528950.77345  24458368.684    24458377.487
  21406947.661   -21538444.17849 -16768541.21947  21406947.079    21406951.991
  21356218.885    -4737458.12249  -3583539.90747  21356217.998    21356224.419
  22601627.834   -12233780.07949  -9519770.72746  22601627.808    22601633.044
  24365281.132    -4383669.04649  -3403890.61145  24365280.567    24365287.004
  20881156.089   -22575720.08349 -17582842.33048  20881155.417    20881161.357
 03  6  4  2 44 30.0000000  0  8G 4G20G27G16G 2G13G25G 1
  24420800.945    -3429708.13449  -2667326.92745  24420800.801    24420808.435
  20496308.885   -24578934.46949 -19142667.91048  20496308.001    20496313.204
  24443835.962    -4636579.50749  -3588461.73745  24443835.455    24443844.253
  21408009.556   -21532863.67849 -16764192.77347  21408008.934    21408013.886
  21352332.591    -4757880.55149  -3599453.46647  21352331.728    21352338.140
  22588182.719   -12304434.88149  -9574826.38346  22588182.656    22588187.816
  24381530.748    -4298275.90549  -3337350.55645  24381530.240    24381536.843
  20875194.844   -22607046.64749 -17607252.62548  20875194.144    20875200.113
 03  6  4  2 45  0.0000000  0  8G 4G20G27G16G 2G13G25G 1
  24420728.690    -3430088.24649  -2667623.10345  24420728.452    24420735.892
  20503188.734   -24542780.79649 -19114496.23148  20503187.828    20503193.022
  24429331.024    -4712802.79049  -3647856.42545  24429330.616    24429339.222
  21409183.334   -21526695.18649 -16759386.14847  21409182.731    21409187.694
  21348538.033    -4777820.89849  -3614991.37747  21348537.145    21348543.567
  22574751.480   -12375016.43749  -9629824.97646  22574751.425    22574756.584
  24397777.033    -4212900.03749  -3270823.96845  24397776.551    24397783.410
  20869267.712   -22638193.62749 -17631522.98748  20869267.037    20869273.021
 03  6  4  2 45 30.0000000  0  8G 4G20G27G16G 2G13G25G 1
  24420751.850    -3429966.80749  -2667528.48545  24420751.655    24420758.936
  20510175.274   -24506066.11649 -19085887.40348  20510174.362    20510179.587
  24414854.786    -4788876.00449  -3707134.15745  24414854.318    24414862.855
  21410469.065   -21519938.34049 -16754121.05647  21410468.491    21410473.439
  21344835.346    -4797278.35349  -3630153.01047  21344834.499    21344840.926
  22561334.389   -12445523.50949  -9684765.52046  22561334.363    22561339.594
  24414019.752    -4127542.45249  -3204311.60345  24414019.426    24414026.420
  20863375.053   -22669159.77649 -17655652.44348  20863374.386    20863380.374
 03  6  4  2 46  0.0000000  0  8G 4G20G27G16G 2G13G25G 1
  24420870.322    -3429344.93349  -2667043.89745  24420870.203    24420877.360
  20517268.338   -24468791.84549 -19056842.53448  20517267.451    20517272.677
  24400407.303    -4864799.47349  -3766295.20945  24400406.630    24400415.005
  21411866.663   -21512593.88549 -16748398.10447  21411866.083    21411871.017
  21341224.668    -4816252.89049  -3644938.34447  21341223.778    21341230.168
  22547931.542   -12515956.16849  -9739648.08646  22547931.452    22547936.726
  24430258.846    -4042204.56049  -3137814.57045  24430258.664    24430265.744
  20857516.856   -22699944.93549 -17679640.87448  20857516.182    20857522.179
 03  6  4  2 46 30.0000000  0  8G 4G20G27G16G 2G13G25G 1
  24421083.895    -3428222.96949  -2666169.64145  24421083.765    24421090.741
  20524467.833   -24430958.42049 -19027361.95148  20524466.927    20524472.183
  24385987.974    -4940572.52849  -3825339.02345  24385987.243    24385995.715
  21413376.100   -21504661.79149 -16742217.24447  21413375.499    21413380.427
  21337706.022    -4834743.43849  -3659346.54547  21337705.114    21337711.513
  22534542.892   -12586313.43849  -9794471.90446  22534542.861    22534548.124
  24446494.151    -3956887.00449  -3071333.44645  24446493.865    24446501.303
  20851693.337   -22730547.77649 -17703487.23148  20851692.664    20851698.615
 03  6  4  2 47  0.0000000  0  8G 4G20G27G16G 2G13G25G 1
  24421392.352    -3426602.05749  -2664906.58245  24421392.222    24421399.236
  20531773.481   -24392566.80449 -18997446.41748  20531772.570    20531777.857
  24371597.334    -5016194.67349  -3884265.32445  24371596.785    24371605.282
  21414997.245   -21496142.34049 -16735578.70847  21414996.656    21415001.603
  21334279.496    -4852749.63149  -3673377.32547  21334278.616    21334285.049
  22521168.887   -12656594.03249  -9849235.96846  22521168.879    22521174.185
  24462725.700    -3871590.63549  -3004868.75445  24462725.527    24462732.604
  20845904.658   -22760967.37649 -17727190.80448  20845903.971    20845909.927
 03  6  4  2 47 30.0000000  0  8G 4G20G27G16G 2G13G25G 1
  24421795.732    -3424482.39549  -2663254.88145  24421795.503    24421802.423
  20539185.242   -24353617.78349 -18967096.54048  20539184.349    20539189.594
  24357235.749    -5091665.67249  -3943073.79645  24357235.087    24357243.617
  21416730.208   -21487035.56649 -16728482.51247  21416729.617    21416734.536
  21330945.267    -4870270.98149  -3687030.31047  21330944.404    21330950.848
  22507809.565   -12726797.30949  -9903939.79446  22507809.578    22507814.886
  24478952.672    -3786316.28349  -2938421.30545  24478952.484    24478959.933
  20840151.074   -22791202.62149 -17750750.72648  20840150.404    20840156.382
 03  6  4  2 48  0.0000000  0  8G 4G20G27G16G 2G13G25G 1
  24422293.568    -3421865.22149  -2661215.51445  24422293.458    24422300.534
  20546702.838   -24314112.58149 -18936313.27448  20546701.934    20546707.214
  24342902.993    -5166985.65949  -4001764.58645  24342902.269    24342910.675
  21418574.796   -21477342.14249 -16720929.18147  21418574.210    21418579.139
  21327703.338    -4887307.47649  -3700305.48247  21327702.459    21327708.880
  22494465.037   -12796922.72049  -9958582.93346  22494465.106    22494470.471
  24495175.568    -3701065.50449  -2871992.17145  24495175.253    24495182.664
  20834432.596   -22821253.07549 -17774166.65148  20834431.943    20834437.926
 03  6  4  2 48 30.0000000  0  8G 4G20G27G16G 2G13G25G 1
  24422886.179    -3418751.23849  -2658789.03945  24422885.978    24422893.183
  20554326.078   -24274052.11849 -18905097.34248  20554325.197    20554330.450
  24328598.797    -5242154.18749  -4060337.38145  24328598.072    24328606.397
  21420530.961   -21467062.36249 -16712918.96147  21420530.365    21420535.323
  21324553.820    -4903858.49949  -3713202.36647  21324552.919    21324559.312
  22481135.729   -12866969.65949 -10013164.94746  22481135.654    22481140.893
  24511393.592    -3615839.09849  -2805582.06345  24511393.435    24511400.736
  20828749.504   -22851117.75749 -17797437.82048  20828748.887    20828754.847
 03  6  4  2 49  0.0000000  0  8G 4G20G27G16G 2G13G25G 1
  24423573.067    -3415141.09049  -2655975.91445  24423572.913    24423580.152
  20562054.907   -24233437.19849 -18873449.36048  20562054.006    20562059.224
  24314323.477    -5317170.73549  -4118791.77545  24314322.805    24314331.045
  21422598.741   -21456196.22949 -16704451.83347  21422598.134    21422603.046
  21321496.695    -4919923.41949  -3725720.46547  21321495.796    21321502.213
  22467821.346   -12936936.95949 -10067684.90346  22467821.271    22467826.464
  24527606.987    -3530637.25949  -2739191.09445  24527606.781    24527614.217
  20823102.039   -22880795.41649 -17820563.25748  20823101.387    20823107.347
 03  6  4  2 49 30.0000000  0  8G 4G20G27G16G 2G13G25G 1
  24424354.416    -3411035.61349  -2652776.84745  24424354.241    24424361.375
  20569889.085   -24192268.57749 -18841369.92048  20569888.173    20569893.371
  24300077.293    -5392034.74449  -4177127.28945  24300076.597    24300084.795
  21424778.077   -21444743.96549 -16695527.98247  21424777.445    21424782.338
  21318532.231    -4935501.70649  -3737859.36947  21318531.338    21318537.761
  22454522.248   -13006823.76249 -10122142.12246  22454522.238    22454527.426
  24543815.588    -3445461.01249  -2672820.03945  24543815.380    24543822.771
  20817490.340   -22910285.02649 -17843542.16148  20817489.682    20817495.637
 03  6  4  2 50  0.0000000  0  8G 4G20G27G16G 2G13G25G 1
  24425229.623    -3406435.67349  -2649192.47845  24425229.485    24425236.760
  20577828.413   -24150547.32049 -18808859.86248  20577827.476    20577832.691
  24285860.267    -5466746.13149  -4235343.82845  24285859.470    24285867.712
  21427068.795   -21432706.13849 -16686147.85347  21427068.169    21427073.072
  21315660.423    -4950593.01949  -3749618.81847  21315659.546    21315665.988
  22441238.809   -13076629.36849 -10176536.09346  22441238.724    22441243.867
  24560018.915    -3360311.46049  -2606469.82945  24560018.653    24560026.255
  20811914.583   -22939585.76449 -17866373.89248  20811913.912    20811919.889
 03  6  4  2 50 30.0000000  0  8G 4G20G27G16G 2G13G25G 1
  24426198.695    -3401341.70349  -2645223.15445  24426198.655    24426206.280
  20585872.711   -24108274.09649 -18775919.70248  20585871.787    20585877.005
  24271672.294    -5541304.15049  -4293440.92045  24271671.402    24271679.655
  21429470.882   -21420082.80849 -16676311.48847  21429470.266    21429475.180
  21312881.405    -4965196.66349  -3760998.26447  21312880.570    21312886.976
  22427970.911   -13146352.28349 -10230865.61946  22427970.859    22427976.050
  24576217.416    -3275189.11249  -2540140.76645  24576217.278    24576224.475
  20806374.974   -22968696.46449 -17889057.55348  20806374.287    20806380.296
 03  6  4  2 51  0.0000000  0  8G 4G20G27G16G 2G13G25G 1
  24427261.710    -3395755.93949  -2640870.58445  24427261.638    24427269.195
  20594021.742   -24065450.80149 -18742550.91448  20594020.796    20594026.028
  24257513.162    -5615709.84649  -4351419.26745  24257512.334    24257520.683
  21431984.169   -21406875.35249 -16666019.95347  21431983.547    21431988.487
  21310195.081    -4979313.34149  -3771998.25147  21310194.210    21310200.591
  22414718.781   -13215992.96749 -10285131.06946  22414718.703    22414723.806
  24592410.628    -3190095.46749  -2473834.11645  24592410.158    24592417.142
  20800871.527   -22997617.12249 -17911593.12748  20800870.817    20800876.837
 03  6  4  2 51 30.0000000  0  8G 4G20G27G16G 2G13G25G 1
  24428418.357    -3389677.99049  -2636134.54145  24428418.377    24428425.701
  20602275.309   -24022078.01649 -18708753.95848  20602274.362    20602279.569
  24243383.262    -5689961.92349  -4409277.96045  24243382.616    24243390.881
  21434608.687   -21393083.27149 -16655272.87647  21434608.100    21434613.018
  21307601.637    -4992941.82349  -3782617.83447  21307600.775    21307607.129
  22401482.438   -13285549.86249 -10339331.21746  22401482.436    22401487.488
  24608598.052    -3105030.56649  -2407549.81745  24608597.612    24608604.543
  20795404.584   -23026345.91449 -17933979.19048  20795403.902    20795409.915
 03  6  4  2 52  0.0000000  0  8G 4G20G27G16G 2G13G25G 1
  24429668.521    -3383109.45149  -2631016.18745  24429668.392    24429675.682
  20610633.194   -23978157.06149 -18674529.85348  20610632.266    20610637.474
  24229282.677    -5764060.48549  -4467017.00945  24229282.037    24229290.375
  21437344.286   -21378707.62849 -16644071.06847  21437343.696    21437348.620
  21305101.065    -5006082.28549  -3792857.13747  21305100.206    21305106.564
  22388262.265   -13355022.21649 -10393465.50746  22388262.288    22388267.306
  24624779.604    -3019995.70549  -2341288.95345  24624779.330    24624786.381
  20789974.311   -23054882.36349 -17956215.37848  20789973.631    20789979.605
 03  6  4  2 52 30.0000000  0  8G 4G20G27G16G 2G13G25G 1
  24431011.804    -3376051.00749  -2625516.12645  24431011.563    24431018.912
  20619095.210   -23933688.67049 -18639879.17148  20619094.308    20619099.545
  24215211.138    -5838005.04149  -4524636.05745  24215210.649    24215219.063
  21440190.918   -21363748.43849 -16632414.55747  21440190.345    21440195.209
  21302693.459    -5018734.17849  -3802715.73947  21302692.603    21302698.959
  22375058.490   -13424408.91149 -10447533.02946  22375058.450    22375063.481
  24640955.469    -2934991.38949  -2275051.91345  24640955.222    24640962.241
  20784580.886   -23083225.12749 -17978300.64548  20784580.175    20784586.143
 03  6  4  2 53  0.0000000  0  8G 4G20G27G16G 2G13G25G 1
  24432448.089    -3368503.50649  -2619634.93845  24432447.848    24432455.170
  20627661.274   -23888673.91249 -18604802.75248  20627660.368    20627665.616
  24201169.264    -5911795.14049  -4582134.76045  24201168.829    24201177.178
  21443148.522   -21348206.15449 -16620303.67947  21443147.927    21443152.828
  21300378.968    -5030896.94149  -3812193.20047  21300378.115    21300384.476
  22361871.205   -13493708.88549 -10501532.97946  22361871.089    22361876.086
  24657125.202    -2850018.63649  -2208839.44545  24657125.117    24657132.056
  20779224.495   -23111373.00149 -18000234.04648  20779223.793    20779229.783
 03  6  4  2 53 30.0000000  0  8G 4G20G27G16G 2G13G25G 1
  24433977.107    -3360468.53949  -2613373.94545  24433976.840    24433984.122
  20636330.954   -23843114.53249 -18569301.95548  20636330.046    20636335.286
  24187156.888    -5985431.19049  -4639513.39045  24187156.390    24187164.561
  21446216.801   -21332082.19049 -16607739.54947  21446216.194    21446221.104
  21298157.360    -5042571.33449  -3821290.11247  21298156.523    21298162.905
  22348700.335   -13562922.25449 -10555465.44946  22348700.217    22348705.196
  24673289.033    -2765078.76749  -2142652.55545  24673288.788    24673295.472
  20773905.209   -23139325.78749 -18022015.42748  20773904.525    20773910.545
 03  6  4  2 54  0.0000000  0  8G 4G20G27G16G 2G13G25G 1
  24435598.640    -3351946.77649  -2606733.62845  24435598.417    24435605.736
  20645104.023   -23797011.54049 -18533377.55848  20645103.123    20645108.376
  24173173.735    -6058912.67849  -4696771.66145  24173173.241    24173181.239
  21449395.753   -21315376.72849 -16594722.29947  21449395.143    21449400.060
  21296028.906    -5053756.71449  -3830005.97547  21296028.027    21296034.387
  22335546.151   -13632047.73449 -10609329.44346  22335546.004    22335550.991
  24689446.282    -2680172.13949  -2076491.61745  24689445.943    24689452.808
  20768623.329   -23167082.18049 -18043643.77948  20768622.662    20768628.679
 03  6  4  2 54 30.0000000  0  8G 4G20G27G16G 2G13G25G 1
  24437312.790    -3342939.01449  -2599714.58645  24437312.581    24437319.999
  20653980.456   -23750365.64349 -18497030.11548  20653979.577    20653984.831
  24159220.280    -6132239.02649  -4753908.98845  24159219.661    24159227.638
  21452685.341   -21298090.09249 -16581252.19047  21452684.715    21452689.602
  21293993.564    -5064452.38549  -3838340.24947  21293992.696    21293999.047
  22322408.928   -13701083.90849 -10663123.85446  22322408.818    22322413.823
  24705596.847    -2595299.33249  -2010357.04545  24705596.691    24705603.551
  20763379.100   -23194640.89849 -18065118.09348  20763378.422    20763384.430
 03  6  4  2 55  0.0000000  0  8G 4G20G27G16G 2G13G25G 1
  24439119.130    -3333446.58049  -2592317.90245  24439118.880    24439126.282
  20662959.912   -23703178.44649 -18460260.87948  20662959.011    20662964.264
  24145296.147    -6205410.29749  -4810925.47945  24145295.540    24145303.628
  21456085.380   -21280222.92649 -16567329.72047  21456084.752    21456089.573
  21292051.427    -5074658.33249  -3846292.91847  21292050.560    21292056.861
  22309288.892   -13770030.04349 -10716848.08846  22309288.791    22309293.827
  24721741.070    -2510461.38049  -1944249.53245  24721740.925    24721747.696
  20758172.614   -23222001.25149 -18086437.84748  20758171.946    20758177.921
 03  6  4  2 55 30.0000000  0  8G 4G20G27G16G 2G13G25G 1
  24441017.364    -3323470.53449  -2584544.34345  24441017.146    24441024.810
  20672042.136   -23655451.06849 -18423070.73148  20672041.234    20672046.512
  24131401.793    -6278426.05649  -4867820.86045  24131401.189    24131409.171
  21459595.733   -21261775.81949 -16552955.34847  21459595.101    21459599.889
  21290202.534    -5084374.44749  -3853863.90147  21290201.640    21290207.931
  22296186.231   -13838885.24349 -10770501.48146  22296186.121    22296191.145
  24737878.509    -2425658.80949  -1878169.67945  24737878.163    24737885.291
  20753004.090   -23249162.14449 -18107602.17048  20753003.385    20753009.366
 03  6  4  2 56  0.0000000  0  8G 4G20G27G16G 2G13G25G 1
  24443007.640    -3313011.96549  -2576394.82445  24443007.388    24443015.035
  20681226.875   -23607184.87549 -18385460.72048  20681225.965    20681231.251
  24117536.737    -6351286.37649  -4924595.04745  24117536.307    24117544.220
  21463216.256   -21242749.65149 -16538129.75447  21463215.675    21463220.470
  21288446.840    -5093600.59149  -3861053.08747  21288445.956    21288452.217
  22283100.900   -13907648.84449 -10824083.48046  22283100.811    22283105.848
  24754008.953    -2340892.61949  -1812118.21345  24754008.686    24754015.957
  20747873.651   -23276122.67449 -18128610.36648  20747872.966    20747878.948
 03  6  4  2 56 30.0000000  0  8G 4G20G27G16G 2G13G25G 1
  24445089.405    -3302072.06949  -2567870.24445  24445089.057    24445096.728
  20690513.897   -23558381.17149 -18347431.87348  20690513.016    20690518.275
  24103701.618    -6423991.02449  -4981247.94545  24103701.005    24103708.948
  21466946.881   -21223145.22749 -16522853.57747  21466946.252    21466951.078
  21286784.368    -5102336.84549  -3867860.54048  21286783.486    21286789.758
  22270033.321   -13976319.89849 -10877593.38146  22270033.207    22270038.141
  24770132.513    -2256163.74549  -1746095.71145  24770132.114    24770139.334
  20742781.500   -23302881.99149 -18149461.78448  20742780.842    20742786.823
 03  6  4  2 57  0.0000000  0  8G 4G20G27G16G 2G13G25G 1
  24447262.385    -3290652.62649  -2558971.96545  24447262.182    24447269.809
  20699902.907   -23509041.62549 -18308985.48348  20699902.026    20699907.300
  24089895.872    -6496540.20149  -5037779.72945  24089895.333    24089903.258
  21470787.306   -21202963.56849 -16507127.60247  21470786.674    21470791.542
  21285215.043    -5110583.43749  -3874286.44648  21285214.163    21285220.447
  22256983.283   -14044898.02049 -10931030.84746  22256983.122    22256988.107
  24786248.790    -2171473.15049  -1680103.08045  24786248.208    24786255.368
  20737727.825   -23329439.39549 -18170155.85848  20737727.130    20737733.118
 03  6  4  2 57 30.0000000  0  8G 4G20G27G16G 2G13G25G 1
  24449526.812    -3278753.77749  -2549700.13645  24449526.565    24449533.980
  20709393.732   -23459166.97849 -18270122.14148  20709392.856    20709398.138
  24076119.877    -6568933.14849  -5094189.72245  24076119.300    24076127.256
  21474737.541   -21182204.77449 -16490951.91047  21474736.919    21474741.816
  21283739.119    -5118339.50149  -3880330.11948  21283738.245    21283744.550
  22243951.200   -14113381.49849 -10984394.57246  22243951.123    22243956.112
  24802357.118    -2086820.69849  -1614140.24845  24802356.755    24802364.327
  20732712.878   -23355793.10349 -18190691.21248  20732712.202    20732718.166
 03  6  4  2 58  0.0000000  0  8G 4G20G27G16G 2G13G25G 1
  24451882.000    -3266376.82549  -2540055.78245  24451881.794    24451889.251
  20718986.147   -23408758.59249 -18230842.89948  20718985.275    20718990.514
  24062373.655    -6641169.46849  -5150477.71645  24062373.077    24062381.014
  21478797.435   -21160869.42549 -16474326.95847  21478796.828    21478801.821
  21282356.536    -5125604.92949  -3885991.47648  21282355.662    21282361.973
  22230937.443   -14181769.27449 -11037683.73246  22230937.352    22230942.319
  24818458.692    -2002207.50349  -1548207.87845  24818458.289    24818465.728
  20727736.878   -23381942.01949 -18211066.97848  20727736.207    20727742.166
 03  6  4  2 58 30.0000000  0  8G 4G20G27G16G 2G13G25G 1
  24454328.036    -3253523.09949  -2530039.89145  24454327.831    24454335.281
  20728679.866   -23357817.72349 -18191148.73647  20728679.004    20728684.261
  24048657.074    -6713249.20049  -5206643.66445  24048656.621    24048664.504
  21482966.908   -21138958.68449 -16457253.64847  21482966.292    21482971.272
  21281067.280    -5132379.79049  -3891270.57448  21281066.424    21281072.715
  22217941.984   -14250060.40649 -11090897.57946  22217941.909    22217946.932
  24834552.482    -1917633.92649  -1482306.36145  24834551.909    24834559.494
  20722800.001   -23407885.45049 -18231282.63148  20722799.335    20722805.289
 03  6  4  2 59  0.0000000  0  8G 4G20G27G16G 2G13G25G 1
  24456864.428    -3240194.05949  -2519653.65545  24456864.226    24456871.564
  20738474.617   -23306346.11549 -18151041.01047  20738473.733    20738479.011
  24034970.486    -6785172.35749  -5262687.59245  24034969.967    24034977.893
  21487245.724   -21116473.39749 -16439732.63847  21487245.090    21487250.026
  21279871.377    -5138664.29949  -3896167.58348  21279870.522    21279876.784
  22204965.204   -14318254.12349 -11144035.52946  22204965.043    22204970.100
  24850638.173    -1833101.22349  -1416436.77745  24850637.750    24850645.619
  20717902.422   -23433622.59849 -18251337.54048  20717901.745    20717907.650
 03  6  4  2 59 30.0000000  0  8G 4G20G27G16G 2G13G25G 1
  24459490.969    -3226390.67449  -2508897.78745  24459490.817    24459498.257
  20748370.120   -23254344.85549 -18110520.56047  20748369.263    20748374.544
  24021313.935    -6856938.36849  -5318609.10445  24021313.430    24021321.261
  21491633.687   -21093414.12549 -16421764.37047  21491633.082    21491638.024
  21278768.864    -5144457.98549  -3900682.13048  21278767.996    21278774.270
  22192007.029   -14386349.33949 -11197096.70446  22192006.934    22192012.059
  24866716.267    -1748610.16549  -1350599.58845  24866716.051    24866723.825
  20713044.338   -23459151.94649 -18271230.52348  20713043.658    20713049.569
 03  6  4  3  0  0.0000000  0  8G 4G20G27G16G 2G13G25G 1
  24462207.498    -3212114.80449  -2497773.76045  24462207.446    24462214.844
  20758366.066   -23201816.06249 -18069589.04747  20758365.193    20758370.472
  24007687.149    -6928547.84549  -5374408.61045  24007686.615    24007694.277
  21496130.600   -21069782.39049 -16403350.03247  21496130.029    21496135.001
  21277759.561    -5149761.84849  -3904814.99848  21277758.714    21277764.989
  22179067.738   -14454345.67649 -11250080.82846  22179067.621    22179072.774
  24882786.356    -1664161.76449  -1284795.67145  24882786.116    24882793.837
  20708225.834   -23484473.16849 -18290961.32948  20708225.144    20708231.055
 03  6  4  3  0 30.0000000  0  7G 4G20G27G16G 2G13G 1
  24465014.709    -3197363.11949  -2486278.93545  24465014.684    24465022.065
  20768462.986   -23148756.42149 -18028243.89347  20768462.113    20768467.441
  23994091.079    -6999995.81949  -5430082.28945  23994090.397    23994098.141
  21500737.235   -21045574.36049 -16384486.62447  21500736.670    21500741.617
  21276844.446    -5154570.92949  -3908562.32248  21276843.578    21276849.862
  22166148.377   -14522237.39549 -11302983.43346  22166148.255    22166153.369
  20703448.082   -23509580.46749 -18310525.44848  20703447.412    20703453.307
 03  6  4  3  1  0.0000000  0  7G 4G20G27G16G 2G13G 1
  24467911.085    -3182142.55749  -2474418.75545  24467910.987    24467918.548
  20778659.526   -23095173.18049 -17986490.73347  20778658.654    20778663.996
  23980524.509    -7071287.94549  -5485634.50045  23980523.769    23980531.625
  21505452.253   -21020796.74249 -16365179.38747  21505451.686    21505456.600
  21276022.310    -5158891.14649  -3911928.71648  21276021.437    21276027.714
  22153247.962   -14590029.34449 -11355808.29646  22153247.896    22153252.948
  20698710.098   -23534478.61249 -18329926.59248  20698709.422    20698715.326
 03  6  4  3  1 30.0000000  0  7G 4G20G27G16G 2G13G 1
  24470896.500    -3166454.07549  -2462193.97045  24470896.272    24470903.899
  20788955.560   -23041067.20349 -17944330.24747  20788954.706    20788960.037
  23966987.617    -7142423.55949  -5541064.78245  23966987.070    23966994.945
  21510275.593   -20995450.14949 -16345428.79347  21510275.017    21510279.954
  21275293.304    -5162722.12049  -3914913.87548  21275292.422    21275298.674
  22140366.873   -14657719.88649 -11408554.13346  22140366.793    22140371.836
  20694012.263   -23559166.09249 -18349163.58148  20694011.574    20694017.441
 03  6  4  3  2  0.0000000  0  7G 4G20G27G16G 2G13G 1
  24473970.696    -3150298.49949  -2449605.20545  24473970.503    24473978.378
  20799350.865   -22986439.69549 -17901763.37447  20799349.990    20799355.297
  23953480.655    -7213402.22249  -5596372.74045  23953480.121    23953488.103
  21515207.119   -20969534.94949 -16325235.12647  21515206.522    21515211.427
  21274657.420    -5166063.65149  -3917517.65148  21274656.542    21274662.815
  22127505.322   -14725307.75449 -11461219.96946  22127505.187    22127510.195
  20689354.757   -23583641.42849 -18368235.26048  20689354.058    20689359.930
 03  6  4  3  2 30.0000000  0  7G 4G20G27G16G 2G13G 1
  24477133.819    -3133676.92549  -2436653.33845  24477133.453    24477141.314
  20809845.142   -22931291.81149 -17858791.01147  20809844.275    20809849.602
  23940003.836    -7284223.30249  -5651557.92745  23940003.331    23940011.328
  21520246.650   -20943051.63949 -16304598.77847  21520246.114    21520251.022
  21274114.798    -5168915.20149  -3919739.62648  21274113.897    21274120.189
  22114663.503   -14792791.49049 -11513804.66446  22114663.388    22114668.427
  20684737.894   -23607903.00849 -18387140.37548  20684737.195    20684743.091
 03  6  4  3  3  0.0000000  0  7G 4G20G27G16G 2G13G 1
  24480385.252    -3116591.39049  -2423339.93945  24480384.932    24480392.526
  20820438.001   -22875625.96549 -17815415.04747  20820437.141    20820442.467
  23926556.825    -7354887.43149  -5706620.82345  23926556.300    23926564.202
  21525394.056   -20916002.07649 -16283521.19547  21525393.500    21525398.384
  21273665.224    -5171277.70849  -3921580.52248  21273664.329    21273670.616
  22101841.606   -14860170.63849 -11566307.86846  22101841.494    22101846.559
  20680161.736   -23631950.66949 -18405878.80048  20680161.052    20680166.996
 03  6  4  3  3 30.0000000  0  7G 4G20G27G16G 2G13G 1
  24483724.653    -3099042.25849  -2409665.29845  24483724.431    24483732.071
  20831129.364   -22819442.48749 -17771635.73447  20831128.510    20831133.826
  23913139.896    -7425393.36149  -5761560.44045  23913139.419    23913147.357
  21530649.211   -20888386.36349 -16262002.46247  21530648.612    21530653.471
  21273308.841    -5173150.18449  -3923039.58048  21273307.965    21273314.271
  22089040.113   -14927443.21549 -11618728.04246  22089039.926    22089045.023
  20675626.737   -23655782.25749 -18424448.85948  20675626.082    20675631.993
 03  6  4  3  4  0.0000000  0  7G 4G20G27G16G 2G13G 1
  24487151.969    -3081031.39949  -2395630.85945  24487151.917    24487159.420
  20841918.867   -22762743.39349 -17727454.63847  20841918.010    20841923.326
  23899752.983    -7495741.62449  -5816377.19845  23899752.456    23899760.347
  21536011.813   -20860205.68449 -16240043.48547  21536011.210    21536016.098
  21273045.629    -5174533.18449  -3924117.22748  21273044.768    21273051.086
  22076258.930   -14994608.65849 -11671064.72546  22076258.704    22076263.841
  20671133.000   -23679397.19549 -18442850.09348  20671132.323    20671138.234
 03  6  4  3  4 30.0000000  0  7G 4G20G27G16G 2G13G 1
  24490667.173    -3062559.76149  -2381237.40745  24490667.004    24490674.429
  20852806.301   -22705529.84049 -17682872.66547  20852805.393    20852810.723
  23886396.121    -7565931.33349  -5871070.41845  23886395.732    23886403.572
  21541481.851   -20831460.65549 -16217644.76347  21541481.243    21541486.130
  21272875.660    -5175426.51249  -3924813.31048  21272874.775    21272881.087
  22063498.348   -15061665.28249 -11723316.60947  22063498.238    22063503.382
  20666680.692   -23702793.98749 -18461081.34348  20666680.045    20666685.964
 03  6  4  3  5  0.0000000  0  7G 4G20G27G16G 2G13G 1
  24494269.466    -3043629.58649  -2366486.64045  24494269.330    24494276.731
  20863791.104   -22647804.14749 -17637891.62047  20863790.209    20863795.532
  23873069.570    -7635963.29049  -5925640.69945  23873069.168    23873076.993
  21547058.901   -20802153.16149 -16194807.74847  21547058.292    21547063.157
  21272798.665    -5175831.08949  -3925128.55348  21272797.769    21272804.100
  22050758.746   -15128612.68649 -11775483.39747  22050758.617    22050763.658
  20662270.002   -23725972.16749 -18479142.24748  20662269.359    20662275.290
 03  6  4  3  5 30.0000000  0  7G 4G20G27G16G 2G13G 1
  24497958.796    -3024242.39549  -2351379.74045  24497958.666    24497966.020
  20874873.036   -22589568.13049 -17592512.91547  20874872.197    20874877.484
  23859772.909    -7705837.38349  -5980087.97745  23859772.493    23859780.208
  21552742.792   -20772284.28749 -16171533.30447  21552742.157    21552747.003
  21272814.558    -5175747.22649  -3925063.19048  21272813.697    21272820.048
  22038039.966   -15195450.31349 -11827564.63847  22038039.803    22038044.851
  20657901.083   -23748930.91649 -18497032.16848  20657900.453    20657906.382
 03  6  4  3  6  0.0000000  0  7G 4G20G27G16G 2G13G 1
  24501734.873    -3004398.81449  -2335917.22945  24501734.622    24501741.990
  20886051.994   -22530822.56349 -17546737.16147  20886051.118    20886056.399
  23846506.476    -7775552.63649  -6034411.46045  23846506.007    23846513.816
  21558533.400   -20741854.32749 -16147821.64947  21558532.758    21558537.583
  21272923.648    -5175174.25349  -3924616.70648  21272922.762    21272929.060
  22025342.524   -15262175.74749 -11879558.45947  22025342.403    22025347.428
  20653574.314   -23771668.07549 -18514749.42648  20653573.689    20653579.614
 03  6  4  3  6 30.0000000  0  7G 4G20G27G16G 2G13G 1
  24505597.407    -2984100.85049  -2320100.63545  24505597.238    24505604.596
  20897327.469   -22471569.83949 -17500566.22047  20897326.572    20897331.864
  23833270.364    -7845109.65049  -6088611.66545  23833269.701    23833277.636
  21564430.374   -20710865.20849 -16123674.28347  21564429.766    21564434.590
  21273125.559    -5174113.11049  -3923789.82648  21273124.642    21273130.958
  22012666.534   -15328788.70249 -11931464.65047  22012666.358    22012671.338
  20649289.809   -23794183.26449 -18532293.72348  20649289.165    20649295.070
 03  6  4  3  7  0.0000000  0  7G 4G20G27G16G 2G13G 1
  24509546.161    -2963349.64849  -2303930.85445  24509546.084    24509553.439
  20908699.246   -22411810.68549 -17454000.65647  20908698.339    20908703.674
  23820064.259    -7914507.50949  -6142687.84145  23820063.733    23820071.635
  21570433.670   -20679317.43349 -16099091.59947  21570433.100    21570437.927
  21273420.446    -5172563.21649  -3922582.09948  21273419.548    21273425.891
  22000012.157   -15395287.33049 -11983281.73247  22000012.019    22000017.080
  20645047.977   -23816474.44249 -18549663.45948  20645047.321    20645053.163
 03  6  4  3  7 30.0000000  0  7G 4G20G27G16G 2G13G 1
  24513581.032    -2942146.77949  -2287409.15945  24513580.911    24513588.222
  20920166.979   -22351547.33449 -17407042.21247  20920166.100    20920171.451
  23806888.382    -7983746.61449  -6196640.30845  23806887.834    23806895.807
  21576543.019   -20647212.43849 -16074074.71747  21576542.460    21576547.261
  21273808.219    -5170525.31649  -3920994.11248  21273807.340    21273813.684
  21987379.821   -15461670.81149 -12035009.10047  21987379.684    21987384.707
  20640848.862   -23838540.96449 -18566858.13848  20640848.188    20640854.026
 03  6  4  3  8  0.0000000  0  7G 4G20G27G16G 2G13G 1
  24517701.394    -2920494.39749  -2270537.18045  24517701.279    24517708.634
  20931730.300   -22290781.74949 -17359692.42047  20931729.405    20931734.768
  23793742.813    -8052827.12049  -6250469.19446  23793742.265    23793750.176
  21582758.178   -20614551.61849 -16048624.72647  21582757.568    21582762.450
  21274288.776    -5167999.99149  -3919026.31648  21274287.907    21274294.213
  21974769.458   -15527938.41649 -12086646.16647  21974769.314    21974774.342
  20636692.618   -23860382.19749 -18583877.27748  20636691.945    20636697.753
 03  6  4  3  8 30.0000000  0  7G 4G20G27G16G 2G13G 1
  24521906.958    -2898393.29849  -2253315.57045  24521906.888    24521914.331
  20943388.884   -22229515.32949 -17311952.36647  20943387.994    20943393.379
  23780627.395    -8121748.58049  -6304174.18545  23780626.864    23780634.646
  21589078.882   -20581335.94249 -16022742.38547  21589078.322    21589083.195
  21274862.128    -5164987.23249  -3916678.69748  21274861.240    21274867.496
  21962181.522   -15594088.73949 -12138191.84947  21962181.368    21962186.355
  20632579.546   -23881996.52649 -18600719.60248  20632578.873    20632584.655
 03  6  4  3  9  0.0000000  0  7G 4G20G27G16G 2G13G 1
  24526197.553    -2875846.21649  -2235746.45645  24526197.517    24526204.824
  20955142.345   -22167750.61749 -17263824.03247  20955141.457    20955146.877
  23767542.238    -8190511.66149  -6357755.72445  23767541.683    23767549.396
  21595504.888   -20547567.32849 -15996429.17847  21595504.274    21595509.157
  21275528.000    -5161488.02049  -3913952.02848  21275527.129    21275533.368
  21949615.832   -15660121.38949 -12189645.82847  21949615.717    21949620.709
  20628509.715   -23903383.48149 -18617384.75248  20628509.050    20628514.862
 03  6  4  3  9 30.0000000  0  7G 4G20G27G16G 2G13G 1
  24530572.763    -2852854.20149  -2217830.62445  24530572.788    24530580.126
  20966990.358   -22105488.98649 -17215308.48747  20966989.465    20966994.888
  23754487.301    -8259115.70149  -6411213.35645  23754486.701    23754494.314
  21602035.925   -20513246.47749 -15969685.65847  21602035.302    21602040.199
  21276286.462    -5157502.27249  -3910846.23548  21276285.574    21276291.827
  21937072.938   -15726034.73749 -12241006.84847  21937072.830    21937077.772
  20624483.454   -23924541.62549 -18633871.60348  20624482.788    20624488.627
 03  6  4  3 10  0.0000000  0  7G 4G20G27G16G 2G13G 1
  24535032.363    -2829418.99049  -2199569.44145  24535032.310    24535039.586
  20978932.477   -22042732.40049 -17166407.26047  20978931.608    20978937.046
  23741462.507    -8327560.91849  -6464547.22545  23741461.938    23741469.577
  21608671.757   -20478374.97849 -15942513.06147  21608671.138    21608676.053
  21277137.395    -5153030.68349  -3907361.86548  21277136.515    21277142.735
  21924553.024   -15791827.49649 -12292273.91147  21924552.918    21924557.836
  20620500.869   -23945470.00849 -18650179.42248  20620500.195    20620506.082
 03  6  4  3 10 30.0000000  0  7G 4G20G27G16G 2G13G 1
  24539576.007    -2805542.38449  -2180964.28945  24539575.956    24539583.272
  20990968.556   -21979482.47749 -17117121.62047  20990967.695    20990973.127
  23728467.910    -8395847.33849  -6517757.35346  23728467.404    23728475.023
  21615412.049   -20442954.18849 -15914912.44947  21615411.442    21615416.426
  21278080.716    -5148073.61249  -3903499.19948  21278079.822    21278086.006
  21912056.221   -15857498.74349 -12343446.28347  21912056.070    21912060.967
  20616562.261   -23966167.45249 -18666307.29348  20616561.601    20616567.488
 03  6  4  3 11  0.0000000  0  7G 4G20G27G16G 2G13G 1
  24544203.271    -2781225.46749  -2162016.06245  24544203.282    24544210.655
  21003098.159   -21915740.86449 -17067452.84747  21003097.278    21003102.756
  23715503.614    -8463974.50249  -6570843.38446  23715503.219    23715510.838
  21622256.735   -20406985.15349 -15886884.63247  21622256.124    21622261.097
  21279116.455    -5142630.91649  -3899258.12348  21279115.535    21279121.728
  21899582.747   -15923046.86249 -12394522.70847  21899582.654    21899587.620
  20612667.888   -23986632.46149 -18682254.04748  20612667.218    20612673.090
 03  6  4  3 11 30.0000000  0  7G 4G20G27G16G 2G13G 1
  24548914.098    -2756470.01049  -2142726.14545  24548914.011    24548921.387
  21015321.054   -21851509.35349 -17017402.32947  21015320.167    21015325.643
  23702569.839    -8531942.30549  -6623805.23346  23702569.363    23702576.923
  21629205.501   -20370469.12749 -15858430.59247  21629204.903    21629209.847
  21280244.395    -5136703.08249  -3894639.01448  21280243.494    21280249.742
  21887133.021   -15988470.74949 -12445502.33347  21887132.903    21887137.819
  20608817.985   -24006863.94549 -18698018.83348  20608817.323    20608823.183
 03  6  4  3 12  0.0000000  0  7G 4G20G27G16G 2G13G 1
  24553707.955    -2731278.55249  -2123096.44945  24553707.822    24553715.168
  21027636.515   -21786790.90049 -16966972.38147  21027635.641    21027641.156
  23689666.134    -8599751.46249  -6676643.47346  23689665.596    23689673.211
  21636257.967   -20333408.46149 -15829552.15647  21636257.371    21636262.279
  21281464.425    -5130291.38949  -3889642.87648  21281463.549    21281469.806
  21874706.993   -16053769.99249 -12496384.83447  21874706.895    21874711.808
  20605012.594   -24026861.38449 -18713601.24748  20605011.917    20605017.765
 03  6  4  3 12 30.0000000  0  7G 4G20G27G16G 2G13G 1
  24558584.420    -2705652.38649  -2103128.01345  24558584.366    24558591.733
  21040044.487   -21721586.57049 -16916163.83047  21040043.631    21040049.114
  23676792.668    -8667401.50349  -6729357.74446  23676792.208    23676799.723
  21643413.948   -20295803.70849 -15800249.75447  21643413.327    21643418.215
  21282776.648    -5123395.69349  -3884269.59248  21282775.761    21282782.005
  21862305.018   -16118942.71549 -12547168.74847  21862304.881    21862309.785
  20601252.100   -24046623.14349 -18729000.01248  20601251.390    20601257.234
 03  6  4  3 13  0.0000000  0  7G 4G20G27G16G 2G13G 1
  24563543.351    -2679592.78749  -2082821.85745  24563543.383    24563550.649
  21052544.644   -21655897.85449 -16864977.82747  21052543.787    21052549.252
  23663949.615    -8734891.99449  -6781947.66846  23663949.109    23663956.642
  21650673.220   -20257656.02149 -15770524.29247  21650672.572    21650677.458
  21284180.880    -5116016.24149  -3878519.35448  21284180.009    21284186.219
  21849927.340   -16183987.65149 -12597853.09347  21849927.200    21849932.137
  20597536.641   -24066147.82549 -18744214.03748  20597535.923    20597541.793
 03  6  4  3 13 30.0000000  0  7G 4G20G27G16G 2G13G 1
  24568583.244    -2653107.84049  -2062184.24845  24568583.274    24568590.725
  21065135.368   -21589733.23049 -16813420.99247  21065134.511    21065139.977
  23651135.669    -8802229.39449  -6834418.28646  23651135.211    23651142.679
  21658034.205   -20218973.33349 -15740381.94847  21658033.635    21658038.555
  21285675.902    -5108159.86049  -3872397.48748  21285675.014    21285681.198
  21837573.023   -16248909.83049 -12648441.77747  21837572.863    21837577.833
  20593865.317   -24085440.66049 -18759247.40648  20593864.604    20593870.491
 03  6  4  3 14  0.0000000  0  7G 4G20G27G16G 2G13G 1
  24573705.310    -2626191.14149  -2041210.19645  24573705.348    24573712.873
  21077817.884   -21523086.28849 -16761488.32447  21077817.011    21077822.479
  23638352.465    -8869405.38249  -6886763.12746  23638351.979    23638359.420
  21665498.384   -20179748.69849 -15709817.29647  21665497.808    21665502.792
  21287263.161    -5099818.79549  -3865897.94348  21287262.245    21287268.432
  21825243.731   -16313699.71049 -12698927.37347  21825243.708    21825248.686
  20590239.843   -24104492.33149 -18774092.85948  20590239.144    20590245.017
 03  6  4  3 14 30.0000000  0  7G 4G20G27G16G 2G13G 1
  24578908.991    -2598845.49749  -2019901.97745  24578908.906    24578916.486
  21090591.612   -21455960.00349 -16709182.14647  21090590.708    21090596.200
  23625599.818    -8936420.73149  -6938982.78746  23625599.298    23625606.768
  21673065.221   -20139984.59949 -15678832.28447  21673064.650    21673069.663
  21288942.350    -5090994.57249  -3859021.91748  21288941.453    21288947.638
  21812939.901   -16378357.03749 -12749309.68047  21812939.816    21812944.764
  20586660.351   -24123302.44949 -18788750.08648  20586659.682    20586665.543
 03  6  4  3 15  0.0000000  0  7G 4G20G27G16G 2G13G 1
  24584193.975    -2571073.14749  -1998261.14345  24584193.747    24584201.530
  21103456.020   -21388356.93849 -16656504.45247  21103455.182    21103460.696
  23612877.697    -9003276.02549  -6991077.76046  23612877.105    23612884.602
  21680734.355   -20099682.99749 -15647428.44647  21680733.760    21680738.794
  21290713.306    -5081688.20549  -3851770.19148  21290712.407    21290718.600
  21800661.385   -16442881.05249 -12799588.09947  21800661.256    21800666.266
  20583127.038   -24141870.31149 -18803218.54048  20583126.368    20583132.195
 03  6  4  3 15 30.0000000  0  7G 4G20G27G16G 2G13G 1
  24589559.758    -2542876.22249  -1976289.52845  24589559.501    24589567.139
  21116410.849   -21320279.27949 -16603456.94347  21116409.953    21116415.441
  23600185.908    -9069971.61849  -7043048.28246  23600185.342    23600192.878
  21688505.425   -20058845.54349 -15615607.05947  21688504.860    21688509.903
  21292575.781    -5071900.61049  -3844143.48448  21292574.887    21292581.111
  21788408.352   -16507271.15949 -12849762.19347  21788408.249    21788413.192
  20579639.918   -24160195.17849 -18817497.64948  20579639.262    20579645.092
 03  6  4  3 16  0.0000000  0  7G 4G20G27G16G 2G13G 1
  24595005.773    -2514257.47049  -1953989.23745  24595005.682    24595013.003
  21129455.457   -21251729.81149 -16550041.78747  21129454.553    21129460.003
  23587524.437    -9136508.28449  -7094894.97346  23587523.827    23587531.324
  21696378.046   -20017474.61849 -15583369.97847  21696377.490    21696382.504
  21294529.573    -5061633.15549  -3836142.86048  21294528.695    21294534.926
  21776180.967   -16571526.59349 -12899831.34047  21776180.824    21776185.758
  20576199.144   -24178276.70849 -18831587.14148  20576198.464    20576204.319
 03  6  4  3 16 30.0000000  0  7G 4G20G27G16G 2G13G 1
  24600531.720    -2485217.96249  -1931361.01345  24600531.716    24600538.826
  21142589.473   -21182709.86649 -16496260.03647  21142588.601    21142594.080
  23574893.195    -9202885.31649  -7146617.29046  23574892.591    23574900.035
  21704351.995   -19975571.45949 -15550718.16847  21704351.410    21704356.408
  21296574.695    -5050885.98149  -3827768.43348  21296573.809    21296580.073
  21763979.553   -16635645.36649 -12949793.99447  21763979.431    21763984.356
  20572804.967   -24196113.12649 -18845485.63748  20572804.274    20572810.155
 03  6  4  3 17  0.0000000  0  7G 4G20G27G16G 2G13G 1
  24606137.379    -2455760.25649  -1908406.99345  24606137.455    24606144.362
  21155812.510   -21113222.17949 -16442113.80747  21155811.656    21155817.178
  23562292.249    -9269103.39449  -7198215.71146  23562291.674    23562299.052
  21712426.742   -19933138.17549 -15517653.27447  21712426.170    21712431.185
  21298710.852    -5039660.05049  -3819020.95148  21298710.020    21298716.244
  21751804.243   -16699626.74949 -12999649.59347  21751804.139    21751809.022
  20569457.533   -24213703.76649 -18859192.62248  20569456.861    20569462.756
 03  6  4  3 17 30.0000000  0  7G 4G20G27G16G 2G13G 1
  24611822.306    -2425885.89349  -1885128.28945  24611822.241    24611829.251
  21169124.285   -21043268.58249 -16387604.52647  21169123.421    21169128.951
  23549721.656    -9335162.17549  -7249690.00346  23549721.078    23549728.414
  21720602.167   -19890175.76849 -15484176.07447  21720601.630    21720606.723
  21300938.060    -5027955.93049  -3809900.85148  21300937.208    21300943.422
  21739655.396   -16763469.53949 -13049397.18147  21739655.240    21739660.143
  20566157.147   -24231047.32249 -18872707.06848  20566156.496    20566162.423
 03  6  4  3 18  0.0000000  0  7G 4G20G27G16G 2G13G 1
  24617586.108    -2395596.82949  -1861526.44745  24617586.119    24617593.203
  21182524.259   -20972851.15649 -16332733.82747  21182523.424    21182528.935
  23537181.332    -9401061.80549  -7301040.29746  23537180.789    23537188.019
  21728877.998   -19846686.23249 -15450288.12847  21728877.411    21728882.552
  21303256.177    -5015774.10649  -3800408.51248  21303255.353    21303261.521
  21727533.187   -16827172.29449 -13099035.66347  21727532.982    21727537.847
  20562903.985   -24248142.75649 -18886028.17448  20562903.308    20562909.224
 03  6  4  3 18 30.0000000  0  7G 4G20G27G16G 2G13G 1
  24623428.431    -2364895.29149  -1837603.18745  24623428.364    24623435.474
  21196012.108   -20901972.27049 -16277503.54947  21196011.267    21196016.755
  23524671.023    -9466802.75849  -7352266.94246  23524670.510    23524677.840
  21737253.767   -19802671.48249 -15415990.92147  21737253.173    21737258.222
  21305664.968    -5003115.84649  -3790544.92648  21305664.116    21305670.315
  21715437.709   -16890734.37749 -13148564.52147  21715437.515    21715442.419
  20559698.203   -24264989.19249 -18899155.25948  20559697.528    20559703.411
 03  6  4  3 19  0.0000000  0  7G 4G20G27G16G 2G13G 1
  24629348.771    -2333783.44749  -1813360.20045  24629348.806    24629355.752
  21209587.340   -20830634.00149 -16221915.30747  21209586.519    21209591.976
  23512191.113    -9532384.84549  -7403369.79646  23512190.560    23512198.003
  21745729.243   -19758132.86749 -15381285.51247  21745728.645    21745733.608
  21308164.318    -4989981.65249  -3780310.48048  21308163.465    21308169.703
  21703369.360   -16954153.99549 -13197982.37947  21703369.160    21703374.075
  20556540.100   -24281585.10649 -18912087.12648  20556539.444    20556545.299
 03  6  4  3 19 30.0000000  0  7G 4G20G27G16G 2G13G 1
  24635346.966    -2302263.36549  -1788799.11145  24635346.864    24635353.705
  21223249.525   -20758838.96149 -16165971.13447  21223248.691    21223254.143
  23499741.421    -9597808.44249  -7454349.15846  23499740.809    23499748.200
  21754303.925   -19713072.52749 -15346173.56347  21754303.329    21754308.285
  21310754.039    -4976372.60049  -3769706.01348  21310753.203    21310759.418
  21691328.171   -17017430.52149 -13247288.73947  21691327.966    21691332.892
  20553429.787   -24297929.77849 -18924823.22148  20553429.137    20553434.976
 03  6  4  3 20  0.0000000  0  7G 4G20G27G16G 2G13G 1
  24641422.508    -2270336.45049  -1763920.99345  24641422.348    24641429.317
  21236998.317   -20686588.66149 -16109672.21747  21236997.453    21237002.901
  23487322.017    -9663073.10149  -7505204.66646  23487321.426    23487328.784
  21762977.660   -19667491.69749 -15310656.03547  21762977.054    21762982.052
  21313434.032    -4962289.03549  -3758731.79648  21313433.187    21313439.387
  21679314.555   -17080561.83449 -13296481.94647  21679314.463    21679319.399
  20550367.600   -24314021.65049 -18937362.32948  20550366.947    20550372.807
 03  6  4  3 20 30.0000000  0  7G 4G20G27G16G 2G13G 1
  24647575.042    -2238004.61349  -1738727.36445  24647574.729    24647582.038
  21250833.292   -20613885.25349 -16053020.22547  21250832.425    21250837.898
  23474932.830    -9728178.91649  -7555936.41346  23474932.222    23474939.470
  21771750.209   -19621391.97349 -15274734.17947  21771749.551    21771754.550
  21316204.168    -4947731.63849  -3747388.36048  21316203.330    21316209.568
  21667328.998   -17143546.66349 -13345561.00447  21667328.840    21667333.785
  20547353.751   -24329859.38849 -18949703.41048  20547353.104    20547358.981
 03  6  4  3 21  0.0000000  0  7G 4G20G27G16G 2G13G 1
  24653804.322    -2205270.29349  -1713220.13645  24653804.096    24653811.342
  21264754.134   -20540730.95049 -15996016.88847  21264753.258    21264758.701
  23462573.664    -9793125.96549  -7606544.43246  23462573.058    23462580.369
  21780621.052   -19574775.21049 -15238409.43347  21780620.430    21780625.438
  21319064.310    -4932701.24049  -3735676.34948  21319063.470    21319069.731
  21655371.423   -17206383.90949 -13394525.06447  21655371.269    21655376.200
  20544388.460   -24345442.07649 -18961845.75148  20544387.816    20544393.701
 03  6  4  3 21 30.0000000  0  7G 4G20G27G16G 2G13G 1
  24660109.705    -2172135.07149  -1687400.48045  24660109.591    24660116.895
  21278760.397   -20467127.61849 -15938663.65947  21278759.491    21278764.936
  23450244.867    -9857914.06449  -7657028.59446  23450244.223    23450251.502
  21789590.001   -19527642.99849 -15201683.03847  21789589.411    21789594.424
  21322014.409    -4917198.46749  -3723596.26248  21322013.577    21322019.799
  21643442.117   -17269072.20749 -13443373.05247  21643441.987    21643446.933
  20541471.920   -24360768.27149 -18973788.22448  20541471.295    20541477.229
 03  6  4  3 22  0.0000000  0  7G 4G20G27G16G 2G13G 1
  24666490.788    -2138601.73849  -1661270.64445  24666490.674    24666498.182
  21292851.487   -20393078.55449 -15880963.10647  21292850.586    21292856.034
  23437946.209    -9922544.09549  -7707389.58746  23437945.538    23437952.748
  21798656.665   -19479997.56649 -15164556.73247  21798656.074    21798661.001
  21325054.125    -4901224.79949  -3711149.24048  21325053.253    21325059.474
  21631541.421   -17331610.66449 -13492104.28647  21631541.286    21631546.246
  20538604.302   -24375837.49449 -18985530.46348  20538603.711    20538609.645
 03  6  4  3 22 30.0000000  0  8G 4G20G27G16G 2G13G 1G 3
  24672947.608    -2104671.41149  -1634831.45045  24672947.453    24672954.911
  21307027.212   -20318584.72549 -15822915.99047  21307026.303    21307031.759
  23425677.672    -9987015.19549  -7757626.75046  23425677.001    23425684.189
  21807820.793   -19431839.97449 -15127031.34247  21807820.200    21807825.131
  21328183.363    -4884780.18649  -3698335.25348  21328182.527    21328188.755
  21619669.631   -17393997.22549 -13540717.16347  21619669.484    21619674.445
  20535786.027   -24390647.75449 -18997070.91548  20535785.402    20535791.333
  24607722.811    -2828199.92949  -2180799.02345  24607722.168    24607729.640
 03  6  4  3 23  0.0000000  0  8G 4G20G27G16G 2G13G 1G 3
  24679479.420    -2070346.71549  -1608084.94745  24679479.292    24679486.602
  21321287.020   -20243648.91549 -15764524.46047  21321286.131    21321291.580
  23413439.293   -10051327.80849  -7807740.40346  23413438.714    23413445.912
  21817081.939   -19383172.46749 -15089108.60947  21817081.339    21817086.285
  21331402.034    -4867865.82549  -3685155.22348  21331401.188    21331407.436
  21607826.930   -17456231.02049 -13589211.00547  21607826.733    21607831.652
  20533017.128   -24405198.24949 -19008408.94648  20533016.499    20533022.422
  24593368.143    -2903633.71649  -2239578.58045  24593367.576    24593374.847
 03  6  4  3 23 30.0000000  0  8G 4G20G27G16G 2G13G 1G 3
  24686085.994    -2035629.56849  -1581032.64545  24686085.828    24686092.996
  21335630.568   -20168273.13349 -15705790.10247  21335629.691    21335635.128
  23401231.093   -10115481.84249  -7857730.49446  23401230.485    23401237.657
  21826439.840   -19333996.38549 -15050789.59247  21826439.231    21826444.180
  21334709.978    -4850482.43949  -3671609.71948  21334709.128    21334715.386
  21596013.690   -17518309.98449 -13637584.19347  21596013.521    21596018.401
  20530297.970   -24419487.59849 -19019543.49248  20530297.351    20530303.234
  24579022.772    -2979018.43349  -2298319.89445  24579022.187    24579029.404
 03  6  4  3 24  0.0000000  0  8G 4G20G27G16G 2G13G 1G 3
  24692766.613    -2000522.37449  -1553676.40645  24692766.433    24692773.651
  21350057.240   -20092460.39049 -15646715.25347  21350056.384    21350061.827
  23389052.886   -10179477.98249  -7907597.54846  23389052.366    23389059.632
  21835894.026   -19284314.30749 -15012076.28747  21835893.415    21835898.389
  21338106.948    -4832631.35349  -3657699.77348  21338106.097    21338112.317
  21584229.967   -17580233.64049 -13685836.36347  21584229.839    21584234.674
  20527628.652   -24433515.09249 -19030473.99348  20527627.999    20527633.900
  24564687.310    -3054351.90149  -2357021.26145  24564686.730    24564693.922
 03  6  4  3 24 30.0000000  0  8G 4G20G27G16G 2G13G 1G 3
  24699521.109    -1965027.13649  -1526017.77745  24699520.927    24699528.374
  21364566.760   -20016212.54249 -15587301.37447  21364565.869    21364571.325
  23376905.003   -10243316.05549  -7957341.44846  23376904.485    23376911.587
  21845444.202   -19234127.82149 -14972969.93847  21845443.584    21845448.542
  21341592.745    -4814313.40549  -3643426.04748  21341591.893    21341598.091
  21572476.164   -17642000.57749 -13733966.41947  21572475.976    21572480.764
  20525009.405   -24447279.38949 -19041199.40448  20525008.752    20525014.635
  24550362.358    -3129631.14849  -2415680.41245  24550361.838    24550368.691
 03  6  4  3 25  0.0000000  0  8G 4G20G27G16G 2G13G 1G 3
  24706349.033    -1929146.30349  -1498058.72345  24706348.861    24706356.190
  21379158.472   -19939532.20549 -15527550.48247  21379157.617    21379163.138
  23364787.003   -10306996.56849  -8006962.57046  23364786.465    23364793.487
  21855089.997   -19183439.02249 -14933472.17547  21855089.377    21855094.299
  21345167.145    -4795529.74649  -3628789.42448  21345166.309    21345172.504
  21560752.273   -17703609.63149 -13781973.43547  21560752.122    21560756.878
  20522440.392   -24460779.69149 -19051719.10648  20522439.721    20522445.589
  24536047.919    -3204853.27449  -2474295.02445  24536047.439    24536054.232
 03  6  4  3 25 30.0000000  0  8G 4G20G27G16G 2G13G 1G 3
  24713250.003    -1892880.89449  -1469800.00045  24713249.792    24713257.332
  21393832.320   -19862420.76649 -15467463.66447  21393831.449    21393836.974
  23352698.993   -10370518.43249  -8056460.06646  23352698.534    23352705.506
  21864831.130   -19132249.02849 -14893583.87247  21864830.533    21864835.420
  21348830.194    -4776280.19849  -3613789.76748  21348829.363    21348835.572
  21549058.925   -17765058.42849 -13829855.58947  21549058.767    21549063.531
  20519922.052   -24474013.78649 -19062031.36948  20519921.364    20519927.212
  24521744.866    -3280014.52949  -2532862.17745  24521744.519    24521751.552
 03  6  4  3 26  0.0000000  0  8G 4G20G27G16G 2G13G 1G 3
  24720223.712    -1856233.89349  -1441243.90345  24720223.506    24720231.032
  21408587.701   -19784880.95849 -15407043.05947  21408586.834    21408592.356
  23340641.139   -10433882.39949  -8105834.54046  23340640.740    23340647.632
  21874667.216   -19080560.09049 -14853306.78747  21874666.624    21874671.476
  21352581.540    -4756566.42549  -3598428.37948  21352580.716    21352586.938
  21537396.195   -17826346.01049 -13877612.12147  21537396.091    21537400.898
  20517454.411   -24486981.19549 -19072135.82948  20517453.712    20517459.571
  24507454.149    -3355112.35649  -2591379.95045  24507453.684    24507460.950
 03  6  4  3 26 30.0000000  0  8G 4G20G27G16G 2G13G 1G 3
  24727269.493    -1819207.53549  -1412392.21245  24727269.368    24727277.024
  21423424.056   -19706915.39549 -15346290.69347  21423423.222    21423428.695
  23328613.369   -10497088.69949  -8155086.13946  23328612.857    23328619.815
  21884597.854   -19028374.30649 -14812642.54447  21884597.239    21884602.097
  21356421.108    -4736389.50149  -3582706.09048  21356420.288    21356426.477
  21525764.380   -17887471.24649 -13925242.13347  21525764.274    21525769.123
  20515037.731   -24499680.80949 -19082031.62048  20515037.065    20515042.894
  24493176.110    -3430143.95249  -2649846.10445  24493175.488    24493182.896
 03  6  4  3 27  0.0000000  0  8G 4G20G27G16G 2G13G 1G 3
  24734387.286    -1781804.34349  -1383246.86645  24734387.110    24734394.744
  21438340.948   -19628526.93049 -15285208.79047  21438340.076    21438345.525
  23316615.509   -10560137.96749  -8204215.38246  23316614.944    23316621.892
  21894622.528   -18975694.01849 -14771592.97347  21894621.918    21894626.846
  21360348.504    -4715750.82549  -3566623.99648  21360347.699    21360353.884
  21514163.737   -17948433.30249 -13972745.00247  21514163.625    21514168.414
  20512672.151   -24512111.88749 -19091718.16148  20512671.483    20512677.298
  24478911.200    -3505106.73249  -2708258.62245  24478910.453    24478917.987
 03  6  4  3 27 30.0000000  0  8G 4G20G27G16G 2G13G 1G 3
  24741576.115    -1744026.29249  -1353809.42845  24741575.894    24741583.491
  21453337.864   -19549717.52949 -15223798.89047  21453337.004    21453342.445
  23304647.502   -10623029.83449  -8253221.97446  23304646.959    23304653.973
  21904741.002   -18922520.97049 -14730159.43247  21904740.414    21904745.370
  21364363.669    -4694651.04649  -3550182.59948  21364362.839    21364369.028
  21502594.491   -18009230.12649 -14020119.11147  21502594.324    21502599.148
  20510357.993   -24524272.79249 -19101194.18248  20510357.335    20510363.123
  24464660.132    -3579997.32849  -2766614.89545  24464659.338    24464666.669
 03  6  4  3 28  0.0000000  0  8G 4G20G27G16G 2G13G 1G 3
  24748835.952    -1705875.36449  -1324081.44945  24748835.797    24748843.300
  21468414.459   -19470489.45649 -15162062.75247  21468413.607    21468419.049
  23292709.406   -10685764.56249  -8302106.11646  23292708.903    23292715.824
  21914952.901   -18868857.02549 -14688343.37647  21914952.304    21914957.228
  21368466.369    -4673091.06449  -3533382.60148  21368465.539    21368471.758
  21491056.898   -18069860.27849 -14067363.35447  21491056.771    21491061.605
  20508095.476   -24536162.27549 -19110458.70048  20508094.821    20508100.617
  24450423.317    -3654812.60649  -2824912.47545  24450422.524    24450429.920
 03  6  4  3 28 30.0000000  0  8G 4G20G27G16G 2G13G 1G 3
  24756166.261    -1667354.25549  -1294065.00345  24756166.272    24756173.755
  21483570.303   -19390845.09649 -15100002.23847  21483569.464    21483574.901
  23280801.255   -10748342.35149  -8350867.98646  23280800.707    23280807.583
  21925257.919   -18814704.03249 -14646146.24547  21925257.280    21925262.194
  21372656.435    -4651072.13549  -3516224.98648  21372655.599    21372661.819
  21479551.243   -18130322.98549 -14114477.12047  21479551.126    21479555.909
  20505884.758   -24547779.42249 -19119511.01248  20505884.122    20505889.927
  24436201.158    -3729550.02349  -2883149.37345  24436200.440    24436207.970
 03  6  4  3 29  0.0000000  0  8G 4G20G27G16G 2G13G 1G 3
  24763566.790    -1628464.85349  -1263761.60445  24763566.778    24763574.059
  21498804.929   -19310786.90849 -15037619.25347  21498804.058    21498809.490
  23268922.987   -10810763.08949  -8399507.46346  23268922.350    23268929.231
  21935655.537   -18760064.14749 -14603569.72247  21935654.912    21935659.795
  21376933.643    -4628595.12849  -3498710.41848  21376932.807    21376939.007
  21468077.763   -18190616.23149 -14161458.82847  21468077.629    21468082.419
  20503726.132   -24559122.89749 -19128350.07048  20503725.506    20503731.303
  24421994.495    -3804206.25149  -2941323.01845  24421993.905    24422001.467
 03  6  4  3 29 30.0000000  0  8G 4G20G27G16G 2G13G 1G 3
  24771036.962    -1589208.94949  -1233172.62145  24771036.938    24771044.070
  21514117.782   -19230316.95949 -14974915.40947  21514116.957    21514122.408
  23257074.629   -10873026.67249  -8448024.48646  23257074.032    23257080.873
  21946145.487   -18704938.87649 -14560614.96347  21946144.910    21946149.772
  21381297.938    -4605660.75149  -3480839.46148  21381297.096    21381303.296
  21456636.896   -18250738.10749 -14208307.00447  21456636.809    21456641.610
  20501619.941   -24570191.25549 -19136974.75248  20501619.294    20501625.069
  24407803.846    -3878778.19849  -2999430.97545  24407803.340    24407810.820
 03  6  4  3 30  0.0000000  0  8G 4G20G27G16G 2G13G 1G 3
  24778576.230    -1549589.23549  -1202300.11745  24778576.239    24778583.396
  21529508.581   -19149437.93249 -14911892.81447  21529507.742    21529513.220
  23245256.104   -10935133.46049  -8496419.31246  23245255.474    23245262.353
  21956727.420   -18649330.59349 -14517283.85247  21956726.844    21956731.701
  21385748.997    -4582270.24449  -3462613.08348  21385748.155    21385754.339
  21445228.870   -18310687.81549 -14255021.03347  21445228.717    21445233.494
  20499566.253   -24580983.49349 -19145384.28448  20499565.616    20499571.362
  24393629.857    -3953263.10149  -3057471.06845  24393629.351    24393636.648
 03  6  4  3 30 30.0000000  0  8G 4G20G27G16G 2G13G 1G 3
  24786184.562    -1509607.62749  -1171145.66145  24786184.573    24786191.717
  21544976.845   -19068151.99249 -14848553.13147  21544976.013    21544981.501
  23233467.412   -10997083.18149  -8544691.77246  23233466.785    23233473.647
  21967400.931   -18593240.77849 -14473577.50847  21967400.375    21967405.215
  21390286.686    -4558424.45349  -3444031.93848  21390285.853    21390292.045
  21433853.892   -18370463.48549 -14301599.44947  21433853.802    21433858.509
  20497565.456   -24591498.08449 -19153577.46048  20497564.781    20497570.515
  24379472.839    -4027657.52849  -3115440.68945  24379472.314    24379479.836
 03  6  4  3 31  0.0000000  0  8G 4G20G27G16G 2G13G 1G 3
  24793861.201    -1469266.90349  -1139711.36645  24793861.037    24793868.342
  21560521.904   -18986462.12649 -14784898.70947  21560521.082    21560526.570
  23221708.433   -11058876.78349  -8592842.57246  23221707.826    23221714.582
  21978165.578   -18536672.17449 -14429498.07647  21978165.003    21978169.859
  21394910.749    -4534125.05049  -3425097.32348  21394909.892    21394916.046
  21422512.282   -18430064.20949 -14348041.54547  21422512.163    21422516.842
  20495617.495   -24601734.46049 -19161553.84248  20495616.840    20495622.598
  24365333.808    -4101958.85449  -3173337.76445  24365333.290    24365340.709
 03  6  4  3 31 30.0000000  0  8G 4G20G27G16G 2G13G 1G 3
  24801605.735    -1428569.72649  -1107999.29845  24801605.496    24801612.825
  21576143.441   -18904370.72349 -14720931.39547  21576142.617    21576148.055
  23209979.135   -11120514.45849  -8640871.87246  23209978.547    23209985.305
  21989020.871   -18479626.99149 -14385047.29947  21989020.318    21989025.178
  21399620.844    -4509373.38949  -3405810.30948  21399619.971    21399626.102
  21411204.163   -18489488.68449 -14394346.30447  21411204.052    21411208.676
  20493722.714   -24611691.52149 -19169312.57648  20493722.071    20493727.819
  24351213.144    -4176164.37249  -3231160.22445  24351212.656    24351219.860
 03  6  4  3 32  0.0000000  0  8G 4G20G27G16G 2G13G 1G 3
  24809417.580    -1387517.96249  -1076010.92645  24809417.308    24809424.901
  21591840.938   -18821880.27449 -14656653.13747  21591840.060    21591845.454
  23198279.486   -11181996.14649  -8688779.62346  23198278.926    23198285.706
  21999966.542   -18422107.06449 -14340226.58047  21999965.971    21999970.881
  21404416.846    -4484170.24049  -3386171.48448  21404415.961    21404422.104
  21399929.893   -18548735.12949 -14440512.34247  21399929.787    21399934.419
  20491881.381   -24621367.89249 -19176852.59448  20491880.716    20491886.457
  24337110.974    -4250270.92749  -3288905.54045  24337110.540    24337117.716
 03  6  4  3 32 30.0000000  0  8G 4G20G27G16G 2G13G 1G 3
  24817296.630    -1346113.34049  -1043747.61145  24817296.432    24817303.926
  21607613.977   -18738992.38149 -14592065.18647  21607613.101    21607618.494
  23186609.619   -11243321.18049  -8736565.30246  23186609.035    23186615.843
  22011002.300   -18364113.63649 -14295036.90747  22011001.750    22011006.691
  21409298.693    -4458515.90649  -3366181.08448  21409297.832    21409303.994
  21388689.920   -18607801.48949 -14486538.04847  21388689.798    21388694.439
  20490093.741   -24630761.59549 -19184172.35348  20490093.104    20490098.833
  24323028.452    -4324274.77149  -3346570.80745  24323027.998    24323035.256
 03  6  4  3 33  0.0000000  0  8G 4G20G27G16G 2G13G 1G 3
  24825242.184    -1304359.34049  -1011212.05245  24825241.884    24825249.548
  21623461.988   -18655710.57849 -14527170.30747  21623461.119    21623466.535
  23174969.355   -11304490.74549  -8784229.83746  23174968.754    23174975.643
  22022127.611   -18305650.01049 -14249480.84347  22022127.009    22022131.979
  21414265.954    -4432412.85649  -3345841.03948  21414265.113    21414271.228
  21377484.357   -18666687.02749 -14532422.85347  21377484.246    21377488.886
  20488360.009   -24639872.54949 -19191271.79048  20488359.354    20488365.093
  24308965.788    -4398173.85949  -3404154.41145  24308965.194    24308972.737
 03  6  4  3 33 30.0000000  0  8G 4G20G27G16G 2G13G 1G 3
  24833254.009    -1262257.23349   -978405.22045  24833253.627    24833261.388
  21639384.642   -18572036.71749 -14461969.91247  21639383.766    21639389.171
  23163358.687   -11365504.05349  -8831772.62046  23163358.211    23163365.204
  22033342.145   -18246717.14949 -14203559.15147  22033341.575    22033346.583
  21419318.573    -4405861.20449  -3325151.43748  21419317.705    21419323.809
  21366313.614   -18725389.59149 -14578165.08547  21366313.479    21366318.094
  20486680.431   -24648698.68949 -19198149.29548  20486679.777    20486685.535
  24294923.786    -4471964.31649  -3461653.41745  24294923.365    24294930.859
 03  6  4  3 34  0.0000000  0  8G 4G20G27G16G 2G13G 1G 3
  24841331.421    -1219809.97049   -945329.42245  24841330.934    24841338.817
  21655381.367   -18487973.54149 -14396466.15747  21655380.482    21655385.913
  23151777.769   -11426362.06649  -8879194.39746  23151777.249    23151784.195
  22044645.488   -18187317.86649 -14157274.01047  22044644.910    22044649.855
  21424456.182    -4378862.81149  -3304113.72248  21424455.338    21424461.418
  21355177.854   -18783908.29249 -14623764.04547  21355177.738    21355182.338
  20485055.199   -24657239.42349 -19204804.40148  20485054.542    20485060.282
  24280902.954    -4545643.76349  -3519065.92245  24280902.591    24280909.963
 03  6  4  3 34 30.0000000  0  8G 4G20G27G16G 2G13G 1G 3
  24849473.969    -1177019.93949   -911986.57345  24849473.518    24849481.245
  21671451.594   -18403523.90249 -14330661.26547  21671450.727    21671456.152
  23140226.333   -11487064.92649  -8926495.28146  23140225.825    23140232.758
  22056037.102   -18127454.39649 -14110627.16547  22056036.544    22056041.499
  21429678.576    -4351418.84549  -3282728.81148  21429677.713    21429683.797
  21344077.340   -18842241.84649 -14669218.73847  21344077.233    21344081.846
  20483484.453   -24665493.71349 -19211236.30848  20483483.789    20483489.533
  24266903.926    -4619209.11649  -3576389.53845  24266903.443    24266910.692
 03  6  4  3 35  0.0000000  0  7G20G27G16G 2G13G 1G 3
  21687596.200   -18318683.45449 -14264551.84247  21687595.310    21687600.776
  23128705.820   -11547605.92549  -8973670.03046  23128705.290    23128712.188
  22067517.879   -18067122.12549 -14063615.02247  22067517.366    22067522.327
  21434986.886    -4323523.57149  -3260992.22748  21434986.008    21434992.112
  21333013.696   -18900381.39749 -14714522.24847  21333013.612    21333018.255
  20481969.778   -24673453.37749 -19217438.62948  20481969.108    20481974.861
  24252928.551    -4692650.32849  -3633616.41745  24252928.167    24252935.180
 03  6  4  3 35 30.0000000  0  7G20G27G16G 2G13G 1G 3
  21703812.984   -18233463.51549 -14198146.72547  21703812.134    21703817.604
  23117214.264   -11607994.35049  -9020725.89246  23117213.716    23117220.553
  22079085.767   -18006332.17749 -14016246.24447  22079085.287    22079090.225
  21440379.034    -4295187.49949  -3238912.16748  21440378.165    21440384.273
  21321985.474   -18958334.81749 -14759680.73447  21321985.407    21321990.020
  20480509.610   -24681126.47749 -19223417.65848  20480508.929    20480514.694
  24238975.718    -4765973.60849  -3690751.35345  24238975.317    24238982.226
 03  6  4  3 36  0.0000000  0  7G20G27G16G 2G13G 1G 3
  21720101.348   -18147867.15149 -14131448.27647  21720100.508    21720106.037
  23105751.592   -11668230.61949  -9067663.19746  23105751.141    23105757.895
  22090740.413   -17945086.98049 -13968522.72847  22090739.939    22090744.875
  21445854.773    -4266412.08049  -3216489.75448  21445853.914    21445860.025
  21310992.934   -19016100.94949 -14804693.27647  21310992.857    21310997.437
  20479104.170   -24688512.11349 -19229172.68848  20479103.482    20479109.275
  24225045.769    -4839176.13649  -3747792.22445  24225045.390    24225052.284
 03  6  4  3 36 30.0000000  0  7G20G27G16G 2G13G 1G 3
  21736461.263   -18061895.14449 -14064457.12647  21736460.432    21736465.997
  23094318.269   -11728312.98549  -9114480.57346  23094317.817    23094324.565
  22102481.666   -17883386.68549 -13920444.59347  22102481.151    22102486.077
  21451414.323    -4237196.58949  -3193724.43248  21451413.455    21451419.509
  21300036.704   -19073676.32849 -14849557.18347  21300036.592    21300041.166
  20477754.029   -24695607.07149 -19234701.21648  20477753.337    20477759.133
  24211139.411    -4912253.23049  -3804735.32845  24211139.087    24211146.168
 03  6  4  3 37  0.0000000  0  7G20G27G16G 2G13G 1G 3
  21752892.263   -17975549.89049 -13997175.13547  21752891.427    21752896.984
  23082914.156   -11788241.69849  -9161178.21246  23082913.661    23082920.418
  22114309.004   -17821233.68849 -13872013.70647  22114308.543    22114313.475
  21457057.394    -4207542.23249  -3170617.13848  21457056.489    21457062.561
  21289116.988   -19131059.41149 -14894271.24947  21289116.911    21289121.540
  20476459.386   -24702410.24249 -19240002.38148  20476458.733    20476464.537
  24197257.736    -4985201.65949  -3861578.13145  24197257.427    24197264.585
 03  6  4  3 37 30.0000000  0  7G20G27G16G 2G13G 1G 3
  21769393.796   -17888833.92049 -13929604.27147  21769392.943    21769398.476
  23071539.338   -11848016.82349  -9207756.17646  23071538.846    23071545.592
  22126222.157   -17758630.10349 -13823231.70647  22126221.606    22126226.554
  21462783.704    -4177450.45249  -3147168.99548  21462782.805    21462788.874
  21278234.298   -19188248.43649 -14938834.10747  21278234.225    21278238.785
  20475220.548   -24708920.29949 -19245075.14648  20475219.870    20475225.676
  24183401.228    -5058018.17149  -3918318.16545  24183400.910    24183408.065
 03  6  4  3 38  0.0000000  0  7G20G27G16G 2G13G 1G 3
  21785965.340   -17801750.05049 -13861746.72647  21785964.471    21785970.017
  23060193.643   -11907638.68049  -9254214.72546  23060193.150    23060199.849
  22138220.508   -17695578.24349 -13774100.39947  22138220.009    22138224.925
  21468592.989    -4146922.49949  -3123380.97448  21468592.073    21468598.179
  21267388.770   -19245242.09949 -14983244.72547  21267388.653    21267393.198
  20474037.674   -24715136.23549 -19249918.72448  20474037.039    20474042.803
  24169570.354    -5130700.17749  -3974953.43045  24169569.965    24169577.111
 03  6  4  3 38 30.0000000  0  7G20G27G16G 2G13G 1G 3
  21802606.679   -17714299.43049 -13793603.40947  21802605.780    21802611.352
  23048877.426   -11967106.06949  -9300552.90846  23048876.885    23048883.553
  22150304.152   -17632078.83449 -13724620.36247  22150303.594    22150308.514
  21474485.237    -4115958.24449  -3099252.97848  21474484.344    21474490.487
  21256580.926   -19302037.55149 -15027500.90047  21256580.815    21256585.351
  20472911.294   -24721055.51749 -19254531.14348  20472910.649    20472916.385
  24155765.680    -5203243.08549  -4031480.31745  24155765.241    24155772.444
 03  6  4  3 39  0.0000000  0  7G20G27G16G 2G13G 1G 3
  21819317.101   -17626485.41949 -13725176.92847  21819316.242    21819321.814
  23037590.213   -12026420.10949  -9346771.58646  23037589.659    23037596.460
  22162472.302   -17568135.08249 -13674794.07547  22162471.700    22162476.614
  21480460.147    -4084559.94249  -3074786.76948  21480459.268    21480465.369
  21245810.889   -19358634.21949 -15071602.18747  21245810.791    21245815.320
  20471841.431   -24726677.79149 -19258912.12848  20471840.760    20471846.499
  24141988.022    -5275644.66149  -4087897.08245  24141987.710    24141994.866
 03  6  4  3 39 30.0000000  0  7G20G27G16G 2G13G 1G 3
  21836096.261   -17538310.30149 -13656469.06547  21836095.416    21836101.071
  23026332.329   -12085580.47849  -9392870.51846  23026331.782    23026338.525
  22174724.646   -17503748.69449 -13624622.87747  22174724.058    22174728.975
  21486517.470    -4052728.62249  -3049983.13648  21486516.574    21486522.646
  21235079.222   -19415029.67049 -15115546.66947  21235079.071    21235083.610
  20470828.382   -24732001.60549 -19263060.55048  20470827.701    20470833.413
  24128237.961    -5347901.74849  -4144201.25545  24128237.490    24128244.677
 03  6  4  3 40  0.0000000  0  7G20G27G16G 2G13G 1G 3
  21852943.684   -17449776.74949 -13587481.90847  21852942.832    21852948.505
  23015103.602   -12144587.62849  -9438850.07446  23015103.055    23015109.791
  22187060.766   -17438922.02649 -13574108.60147  22187060.168    22187065.078
  21492656.864    -4020465.68549  -3024843.17848  21492655.974    21492662.082
  21224386.111   -19471222.42449 -15159333.20847  21224385.953    21224390.495
  20469872.233   -24737025.86449 -19266975.54648  20469871.563    20469877.285
  24114515.779    -5420011.16949  -4200390.35045  24114515.269    24114522.629
 03  6  4  3 40 30.0000000  0  7G20G27G16G 2G13G 1G 3
  21869858.762   -17360887.62849 -13518217.68047  21869857.902    21869863.524
  23003903.998   -12203441.82449  -9484710.44146  23003903.499    23003910.130
  22199480.178   -17373657.71849 -13523253.31347  22199479.570    22199484.450
  21498878.143    -3987772.68349  -2999368.11148  21498877.267    21498883.355
  21213731.766   -19527211.29549 -15202960.87947  21213731.589    21213736.167
  20468973.310   -24741749.52149 -19270656.31148  20468972.655    20468978.423
  24100822.274    -5491970.14449  -4256462.24745  24100821.829    24100829.178
 03  6  4  3 41  0.0000000  0  7G20G27G16G 2G13G 1G 3
  21886841.055   -17271645.39049 -13448678.29247  21886840.136    21886845.752
  22992733.514   -12262143.00849  -9530451.59146  22992733.002    22992739.493
  22211982.487   -17307957.69849 -13472058.50147  22211981.865    22211986.734
  21505181.073    -3954650.50649  -2973558.62148  21505180.184    21505186.249
  21203116.526   -19582994.62049 -15246428.37747  21203116.378    21203120.945
  20468131.864   -24746171.14049 -19274101.71648  20468131.238    20468137.015
  24087157.980    -5563775.30249  -4312414.27345  24087157.478    24087164.993
 03  6  4  3 41 30.0000000  0  7G20G27G16G 2G13G 1G 3
  21903889.859   -17182052.97449 -13378866.03047  21903889.013    21903894.680
  22981592.087   -12320691.82949  -9576073.99846  22981591.485    22981597.965
  22224567.220   -17241824.58749 -13420526.21946  22224566.603    22224571.437
  21511565.314    -3921101.14149  -2947416.25548  21511564.434    21511570.476
  21192540.671   -19638570.99749 -15289734.61547  21192540.510    21192545.126
  20467348.029   -24750290.04249 -19277311.24148  20467347.400    20467353.212
  24073523.663    -5635423.79349  -4368244.20645  24073523.326    24073530.818
 03  6  4  3 42  0.0000000  0  7G20G27G16G 2G13G 1G 3
  21921004.706   -17092114.14249 -13308783.84047  21921003.825    21921009.432
  22970479.344   -12379089.48549  -9621578.63846  22970478.728    22970485.218
  22237233.783   -17175261.36949 -13368658.78346  22237233.154    22237238.008
  21518030.410    -3887126.82249  -2920942.76048  21518029.518    21518035.569
  21182004.315   -19693939.66949 -15332879.01047  21182004.154    21182008.738
  20466621.871   -24754106.03849 -19280284.73748  20466621.273    20466627.039
  24059919.885    -5706913.64349  -4423950.55445  24059919.374    24059926.650
 03  6  4  3 42 30.0000000  0  7G20G27G16G 2G13G 1G 3
  21938185.153   -17001830.19049 -13238432.73347  21938184.311    21938189.904
  22959395.589   -12437334.72649  -9666964.49046  22959395.011    22959401.468
  22249981.945   -17108269.36149 -13316457.22846  22249981.309    22249986.232
  21524576.340    -3852727.69849  -2894138.24648  21524575.456    21524581.499
  21171507.971   -19749098.20649 -15375859.66347  21171507.830    21171512.400
  20465953.830   -24757616.59849 -19283020.22948  20465953.225    20465958.944
  24046346.862    -5778240.78449  -4479530.13445  24046346.440    24046353.510
 03  6  4  3 43  0.0000000  0  7G20G27G16G 2G13G 1G 3
  21955430.879   -16911203.78949 -13167814.76647  21955430.002    21955435.556
  22948340.793   -12495428.08849  -9712232.00346  22948340.215    22948346.678
  22262811.181   -17040850.97449 -13263923.43246  22262810.587    22262815.565
  21531202.825    -3817905.24149  -2867003.86048  21531201.949    21531208.006
  21161051.896   -19804044.87949 -15418675.22747  21161051.769    21161056.406
  20465344.149   -24760820.72149 -19285516.93548  20465343.508    20465349.207
  24032805.323    -5849402.07149  -4534980.47845  24032804.786    24032811.804
 03  6  4  3 43 30.0000000  0  7G20G27G16G 2G13G 1G 3
  21972741.124   -16820237.68949 -13096932.10847  21972740.249    21972745.773
  22937314.857   -12553369.58449  -9757381.18246  22937314.228    22937320.711
  22275721.209   -16973008.47049 -13211059.14746  22275720.600    22275725.606
  21537909.594    -3782660.76449  -2839540.63048  21537908.736    21537914.846
  21150636.476   -19858777.86749 -15461324.28347  21150636.399    21150641.065
  20464792.909   -24763717.11649 -19287773.85748  20464792.299    20464797.997
  24019295.734    -5920394.23949  -4590299.00745  24019295.168    24019302.193
 03  6  4  3 44  0.0000000  0  7G20G27G16G 2G13G 1G 3
  21990115.437   -16728934.73349 -13025786.97347  21990114.621    21990120.206
  22926317.726   -12611159.60249  -9802412.32946  22926317.081    22926323.629
  22288711.441   -16904744.26049 -13157866.27046  22288710.857    22288715.823
  21544696.394    -3746995.93649  -2811749.85547  21544695.508    21544701.601
  21140262.053   -19913295.72249 -15503805.70547  21140261.981    21140266.647
  20464300.479   -24766304.95149 -19289790.34348  20464299.860    20464305.552
  24005818.996    -5991214.51249  -4645483.60345  24005818.597    24005825.656
 03  6  4  3 44 30.0000000  0  7G20G27G16G 2G13G 1G 3
  22007553.419   -16637297.63849 -12954381.47147  22007552.578    22007558.195
  22915349.314   -12668798.42649  -9847325.66146  22915348.764    22915355.318
  22301781.478   -16836060.72749 -13104346.63446  22301780.848    22301785.827
  21551562.898    -3710912.14149  -2783632.60547  21551562.024    21551568.117
  21129928.870   -19967597.04949 -15546118.40647  21129928.795    21129933.419
  20463866.970   -24768582.89749 -19291565.34948  20463866.370    20463872.060
  23992375.743    -6061860.07249  -4700532.06345  23992375.234    23992382.315
 03  6  4  3 45  0.0000000  0  7G20G27G16G 2G13G 1G 3
  22025054.353   -16545329.89349 -12882718.31547  22025053.483    22025059.112
  22904409.634   -12726286.97149  -9892121.89746  22904409.047    22904415.635
  22314930.644   -16766960.86449 -13050502.60146  22314930.105    22314935.069
  21558508.637    -3674411.78449  -2755190.76047  21558507.766    21558513.872
  21119637.029   -20021680.87249 -15588261.62047  21119636.940    21119641.582
  20463492.531   -24770550.64549 -19293098.64748  20463491.909    20463497.597
  23978966.184    -6132328.42049  -4755442.43345  23978965.657    23978972.536
 03  6  4  3 45 30.0000000  0  7G20G27G16G 2G13G 1G 3
  22042617.899   -16453032.92849 -12810798.62747  22042617.004    22042622.632
  22893498.677   -12783624.33749  -9936800.33846  22893498.161    22893504.614
  22328158.962   -16697445.81249 -12996335.03246  22328158.437    22328163.447
  21565533.647    -3637495.04049  -2726424.46447  21565532.762    21565538.887
  21109387.134   -20075544.35549 -15630233.14047  21109387.035    21109391.666
  20463177.594   -24772205.83249 -19294388.39348  20463176.967    20463182.650
  23965591.166    -6202615.22149  -4810211.34545  23965590.657    23965597.392
 03  6  4  3 46  0.0000000  0  7G20G27G16G 2G13G 1G 3
  22060243.285   -16360411.01149 -12738625.73147  22060242.392    22060248.017
  22882616.257   -12840812.14249  -9981362.23546  22882615.655    22882622.111
  22341465.577   -16627519.50049 -12941847.01046  22341464.986    22341470.009
  21572637.321    -3600164.88049  -2697336.02347  21572636.475    21572642.565
  21099179.211   -20129187.36749 -15672032.86347  21099179.112    21099183.745
  20462921.986   -24773548.86149 -19295434.90048  20462921.354    20462927.069
  23952250.834    -6272719.09249  -4864837.68445  23952250.292    23952257.078
 03  6  4  3 46 30.0000000  0  7G20G27G16G 2G13G 1G 3
  22077930.267   -16267465.14549 -12666200.39547  22077929.338    22077934.968
  22871762.400   -12897849.19449 -10025806.64746  22871761.819    22871768.330
  22354850.145   -16557182.62149 -12887039.06146  22354849.609    22354854.689
  21579819.759    -3562421.02249  -2667925.21847  21579818.892    21579824.983
  21089013.771   -20182606.67049 -15713658.26747  21089013.700    21089018.349
  20462726.351   -24774577.00749 -19296236.04048  20462725.710    20462731.421
  23938946.052    -6342635.36349  -4919317.83945  23938945.513    23938952.430
 03  6  4  3 47  0.0000000  0  7G20G27G16G 2G13G 1G 3
  22095678.253   -16174198.67949 -12593525.25747  22095677.361    22095683.002
  22860937.074   -12954736.15449 -10070134.11346  22860936.513    22860943.081
  22368312.293   -16486438.23749 -12831913.57946  22368311.780    22368316.880
  21587080.454    -3524265.64449  -2638193.74647  21587079.596    21587085.703
  21078891.216   -20235800.93249 -15755108.31747  21078891.157    21078895.815
  20462590.724   -24775289.66949 -19296791.34748  20462590.064    20462595.790
  23925677.512    -6412361.49749  -4973649.86645  23925677.049    23925683.921
 03  6  4  3 47 30.0000000  0  7G20G27G16G 2G13G 1G 3
  22113486.826   -16080614.47649 -12520602.51847  22113485.882    22113491.495
  22850140.344   -13011473.55949 -10114345.04846  22850139.767    22850146.301
  22381851.485   -16415289.03549 -12776472.64846  22381851.027    22381856.083
  21594419.159    -3485700.56649  -2608143.02847  21594418.295    21594424.369
  21068811.656   -20288768.95849 -15796382.07647  21068811.645    21068816.288
  20462515.305   -24775685.88549 -19297100.07348  20462514.646    20462520.383
  23912445.792    -6481894.67349  -5027831.55245  23912445.208    23912451.915
 03  6  4  3 48  0.0000000  0  7G20G27G16G 2G13G 1G 3
  22131355.253   -15986715.20549 -12447434.28447  22131354.332    22131359.973
  22839371.999   -13068061.20449 -10158439.29446  22839371.442    22839377.963
  22395467.454   -16343736.89949 -12720717.74546  22395466.941    22395471.967
  21601835.622    -3446726.90149  -2577773.93047  21601834.721    21601840.814
  21058775.563   -20341508.97749 -15837478.16747  21058775.533    21058780.131
  20462500.375   -24775764.16549 -19297161.05848  20462499.706    20462505.475
  23899251.575    -6551231.55149  -5081860.27945  23899250.962    23899257.529
 03  6  4  3 48 30.0000000  0  8G20G27G16G 2G13G 8G 1G 3
  22149281.918   -15892510.21249 -12374027.82247  22149280.992    22149286.636
  22828630.861   -13124506.20349 -10202422.37346  22828630.308    22828636.805
  22409158.320   -16271791.20049 -12664656.17846  22409157.783    22409162.784
  21609328.137    -3407353.00649  -2547092.96747  21609327.284    21609333.407
  21048781.987   -20394025.80349 -15878400.34647  21048781.941    21048786.518
  24732881.263    -3176722.57549  -2464062.55245  24732880.474    24732888.878
  20462544.870   -24775530.10449 -19296978.66748  20462544.225    20462549.981
  23886093.787    -6620375.93449  -5135738.98945  23886093.341    23886099.777
 03  6  4  3 49  0.0000000  0  8G20G27G16G 2G13G 8G 1G 3
  22167267.506   -15797995.32849 -12300379.88647  22167266.601    22167272.271
  22817918.121   -13180801.62349 -10246288.90846  22817917.575    22817924.158
  22422924.999   -16199447.24049 -12608284.27346  22422924.442    22422929.455
  21616897.955    -3367573.47249  -2516095.92047  21616897.094    21616903.211
  21038832.530   -20446310.91349 -15919141.97247  21038832.390    21038836.966
  24716740.488    -3261542.57149  -2530155.98645  24716739.537    24716748.020
  20462650.357   -24774975.71249 -19296546.65948  20462649.722    20462655.466
  23872974.473    -6689317.75249  -5189459.82645  23872974.034    23872980.722
 03  6  4  3 49 30.0000000  0  8G20G27G16G 2G13G 8G 1G 3
  22185312.051   -15703170.88049 -12226490.72846  22185311.109    22185316.809
  22807234.162   -13236945.58349 -10290037.41546  22807233.691    22807240.349
  22436767.355   -16126704.99149 -12551602.01146  22436766.869    22436771.934
  21624545.095    -3327387.41049  -2484782.10047  21624544.230    21624550.335
  21028927.778   -20498360.38149 -15959699.97447  21028927.656    21028932.259
  24700619.853    -3346257.11349  -2596167.27745  24700619.047    24700627.203
  20462817.436   -24774097.53849 -19295862.35648  20462816.827    20462822.591
  23859894.717    -6758051.49049  -5243018.52245  23859894.320    23859901.094
 03  6  4  3 50  0.0000000  0  8G20G27G16G 2G13G 8G 1G 3
  22203414.563   -15608041.27849 -12152363.79246  22203413.667    22203419.360
  22796578.772   -13292939.90249 -10333669.32146  22796578.327    22796585.026
  22450684.885   -16053568.44949 -12494612.51546  22450684.315    22450689.400
  21632268.987    -3286798.07949  -2453154.04447  21632268.122    21632274.189
  21019068.021   -20550173.69549 -16000073.96947  21019067.892    21019072.451
  24684518.988    -3430867.33349  -2662097.22945  24684518.353    24684526.352
  20463046.071   -24772896.12149 -19294926.18148  20463045.438    20463051.188
  23846854.773    -6826575.77349  -5296414.01145  23846854.526    23846861.252
 03  6  4  3 50 30.0000000  0  8G20G27G16G 2G13G 8G 1G 3
  22221574.622   -15512610.01149 -12078001.79746  22221573.685    22221579.347
  22785951.756   -13348785.18549 -10377185.09646  22785951.224    22785957.966
  22464676.719   -15980040.65149 -12437318.14646  22464676.218    22464681.328
  21640069.254    -3245807.46749  -2421213.30647  21640068.402    21640074.419
  21009253.349   -20601749.91349 -16040263.20747  21009253.247    21009257.819
  24668437.852    -3515373.40349  -2727946.05345  24668437.227    24668445.481
  20463336.322   -24771370.85149 -19293737.64948  20463335.678    20463341.443
  23833855.500    -6894887.92549  -5349644.24545  23833855.106    23833861.711
 03  6  4  3 51  0.0000000  0  9G20G27G16G 2G13G31G 8G 1G 3
  22239791.401   -15416880.37349 -12003407.31146  22239790.473    22239796.130
  22775352.809   -13404482.49449 -10420585.58646  22775352.352    22775359.104
  22478742.558   -15906124.77749 -12379721.37146  22478741.991    22478747.039
  21647945.405    -3204418.12049  -2388961.85747  21647944.540    21647950.529
  20999483.939   -20653088.41749 -16080267.21347  20999483.810    20999488.369
  24569068.764    -3663957.31849  -2847480.06645  24569068.458    24569074.860
  24652376.433    -3599775.81349  -2793714.09745  24652375.735    24652384.128
  20463688.228   -24769521.52649 -19292296.60848  20463687.604    20463693.357
  23820896.804    -6962985.95549  -5402707.65045  23820896.457    23820902.893
 03  6  4  3 51 30.0000000  0  9G20G27G16G 2G13G31G 8G 1G 3
  22258064.179   -15320855.61349 -11928582.84646  22258063.303    22258069.041
  22764781.994   -13460032.67049 -10463871.41546  22764781.510    22764788.189
  22492881.502   -15831823.78549 -12321824.50846  22492881.012    22492886.084
  21655896.998    -3162632.10349  -2356401.31347  21655896.165    21655902.188
  20989760.071   -20704187.66849 -16120084.78847  20989759.942    20989764.481
  24551844.533    -3754471.53149  -2918010.54445  24551844.133    24551850.775
  24636334.632    -3684074.68649  -2859401.42445  24636333.951    24636342.539
  20464101.989   -24767347.31949 -19290602.40348  20464101.337    20464107.083
  23807979.612    -7030867.17649  -5455602.09545  23807979.179    23807985.556
 03  6  4  3 52  0.0000000  0  9G20G27G16G 2G13G31G 8G 1G 3
  22276392.821   -15224537.83949 -11853530.06346  22276392.035    22276397.709
  22754239.337   -13515434.91649 -10507041.96046  22754238.779    22754245.479
  22507093.474   -15757139.18249 -12263628.72646  22507092.964    22507098.109
  21663923.983    -3120450.01949  -2323532.15247  21663923.118    21663929.153
  20980082.139   -20755045.26549 -16159714.06847  20980082.031    20980086.569
  24534611.439    -3845031.15549  -2988576.44445  24534610.913    24534617.781
  24620313.171    -3768268.83549  -2925007.21645  24620312.492    24620321.069
  20464577.919   -24764846.24549 -19288653.50648  20464577.268    20464583.004
  23795104.222    -7098527.68249  -5508324.52545  23795103.763    23795110.358
 03  6  4  3 52 30.0000000  0  9G20G27G16G 2G13G31G 8G 1G 3
  22294776.870   -15127929.85949 -11778251.13446  22294775.998    22294781.645
  22743724.703   -13570689.64449 -10550097.57346  22743724.147    22743730.796
  22521377.986   -15682073.60849 -12205136.08346  22521377.455    22521382.669
  21672026.008    -3077873.68649  -2290355.78447  21672025.149    21672031.146
  20970450.621   -20805659.47749 -16199153.69747  20970450.469    20970454.943
  24517370.172    -3935633.47349  -3059175.61645  24517369.709    24517376.666
  24604311.586    -3852357.93149  -2990531.09345  24604310.910    24604319.349
  20465116.262   -24762017.29149 -19286449.11748  20465115.585    20465121.348
  23782271.290    -7165964.46249  -5560872.61245  23782270.857    23782277.682
 03  6  4  3 53  0.0000000  0  9G20G27G16G 2G13G31G 8G 1G 3
  22313215.446   -15031034.93649 -11702748.62646  22313214.543    22313220.217
  22733237.931   -13625797.93349 -10593039.07246  22733237.367    22733243.986
  22535734.462   -15606630.03649 -12146348.90946  22535733.916    22535739.105
  21680202.521    -3034905.48349  -2256874.06547  21680201.679    21680207.720
  20960865.477   -20856029.50049 -16238403.04247  20960865.355    20960869.824
  24500121.592    -4026276.22849  -3129806.29745  24500120.989    24500127.819
  24588329.909    -3936342.53949  -3055973.58645  24588329.254    24588337.440
  20465717.014   -24758860.07649 -19283988.94648  20465716.359    20465722.126
  23769481.575    -7233175.36449  -5613244.68945  23769481.071    23769487.987
 03  6  4  3 53 30.0000000  0  9G20G27G16G 2G13G31G 8G 1G 3
  22331707.898   -14933855.83049 -11627024.69046  22331707.021    22331712.851
  22722779.139   -13680759.56049 -10635866.29846  22722778.528    22722785.107
  22550162.464   -15530810.67149 -12087268.89646  22550161.898    22550167.034
  21688453.433    -2991546.56449  -2223087.89047  21688452.607    21688458.642
  20951327.219   -20906153.23349 -16277460.47747  20951327.078    20951331.526
  24482865.831    -4116956.06149  -3200465.89745  24482865.225    24482871.843
  24572368.123    -4020222.03149  -3121334.11745  24572367.504    24572375.508
  20466380.509   -24755373.12849 -19281271.83248  20466379.890    20466385.648
  23756735.360    -7300157.09349  -5665438.22645  23756734.855    23756741.696
 03  6  4  3 54  0.0000000  0  9G20G27G16G 2G13G31G 8G 1G 3
  22350253.886   -14836395.68149 -11551081.73346  22350253.082    22350258.899
  22712348.033   -13735575.10649 -10678579.68146  22712347.449    22712354.069
  22564661.398   -15454618.26749 -12027898.20046  22564660.811    22564666.008
  21696778.330    -2947798.89449  -2188998.79247  21696777.484    21696783.558
  20941836.144   -20956029.03849 -16316324.71547  20941835.999    20941840.432
  24465603.550    -4207670.39149  -3271152.37245  24465602.766    24465609.389
  24556426.346    -4103996.30549  -3186612.73445  24556425.741    24556433.789
  20467106.887   -24751555.89449 -19278297.35348  20467106.257    20467112.036
  23744033.252    -7366906.67249  -5717450.88845  23744032.908    23744039.500
 03  6  4  3 54 30.0000000  0  9G20G27G16G 2G13G31G 8G 1G 3
  22368853.046   -14738656.72649 -11474921.51646  22368852.176    22368857.994
  22701944.773   -13790244.30449 -10721179.03846  22701944.201    22701950.805
  22579230.884   -15378054.83249 -11968238.40246  22579230.324    22579235.568
  21705176.938    -2903663.71749  -2154607.73847  21705176.089    21705182.232
  20932392.682   -21005654.77149 -16354994.09047  20932392.556    20932397.001
  24448335.254    -4298415.53349  -3341862.83845  24448334.530    24448341.119
  24540504.670    -4187664.58049  -3251808.68945  24540504.073    24540512.233
  20467896.509   -24747406.61949 -19275064.14748  20467895.861    20467901.603
  23731376.141    -7433420.53849  -5769279.86145  23731375.651    23731382.206
 03  6  4  3 55  0.0000000  0  9G20G27G16G 2G13G31G 8G 1G 3
  22387504.678   -14640641.85449 -11398546.31546  22387503.814    22387509.581
  22691569.388   -13844767.62549 -10763664.72446  22691568.784    22691575.319
  22593870.522   -15301123.22949 -11908291.70546  22593869.919    22593875.172
  21713648.998    -2859142.78549  -2119916.09747  21713648.154    21713654.294
  20922997.055   -21055029.03249 -16393467.51047  20922996.911    20923001.359
  24431061.652    -4389188.94049  -3412595.34845  24431060.899    24431067.547
  24524603.355    -4271226.62049  -3316921.92945  24524602.730    24524610.788
  20468749.416   -24742924.58349 -19271571.64148  20468748.760    20468754.507
  23718764.202    -7499696.21149  -5820923.19845  23718763.721    23718770.426
 03  6  4  3 55 30.0000000  0  9G20G27G16G 2G13G31G 8G 1G 3
  22406208.204   -14542354.34549 -11321958.66946  22406207.326    22406213.117
  22681221.613   -13899145.56149 -10806037.11146  22681221.018    22681227.589
  22608579.674   -15223826.03849 -11848060.14746  22608579.076    22608584.356
  21722194.131    -2814237.94049  -2084925.30247  21722193.279    21722199.381
  20913649.576   -21104150.35549 -16431743.84447  20913649.432    20913653.879
  24413783.101    -4479987.86349  -3483347.72045  24413782.440    24413789.162
  24508722.234    -4354682.51449  -3381952.42045  24508721.555    24508729.557
  20469665.799   -24738108.86849 -19267819.12748  20469665.166    20469670.884
  23706198.369    -7565730.64049  -5872378.55745  23706197.791    23706204.585
 03  6  4  3 56  0.0000000  0  9G20G27G16G 2G13G31G 8G 1G 3
  22424963.161   -14443796.67249 -11245160.50346  22424962.212    22424967.984
  22670901.452   -13953378.23549 -10848296.29646  22670900.902    22670907.430
  22623358.003   -15146165.46949 -11787545.43946  22623357.446    22623362.676
  21730812.002    -2768950.65549  -2049636.50047  21730811.133    21730817.254
  20904350.521   -21153016.79349 -16469821.55847  20904350.419    20904354.917
  24396500.356    -4570809.04549  -3554117.39545  24396499.605    24396506.349
  24492861.275    -4438031.95349  -3446899.98845  24492860.645    24492868.612
  20470645.935   -24732958.19749 -19263805.61148  20470645.297    20470651.016
  23693678.889    -7631520.77349  -5923643.54145  23693678.358    23693685.077
 03  6  4  3 56 30.0000000  0  9G20G27G16G 2G13G31G 8G 1G 3
  22443768.949   -14344972.09549 -11168154.37446  22443767.983    22443773.782
  22660608.827   -14007466.39249 -10890442.88246  22660608.267    22660614.759
  22638204.982   -15068144.36649 -11726749.78846  22638204.348    22638209.552
  21739502.255    -2723283.03849  -2014051.34147  21739501.406    21739507.511
  20895100.307   -21201627.08049 -16507699.67847  20895100.173    20895104.638
  24379214.058    -4661649.87549  -3624902.44745  24379213.291    24379220.015
  24477020.658    -4521274.85949  -3511764.48945  24477020.002    24477028.009
  20471689.905   -24727471.92649 -19259530.58948  20471689.265    20471694.997
  23681206.405    -7697064.09449  -5974716.24245  23681205.922    23681212.606
 03  6  4  3 57  0.0000000  0  9G20G27G16G 2G13G31G 8G 1G 3
  22462624.900   -14245883.25449 -11090942.32546  22462623.958    22462629.758
  22650343.662   -14061409.79749 -10932476.67846  22650343.124    22650349.669
  22653120.019   -14989765.16849 -11665675.11446  22653119.352    22653124.593
  21748264.530    -2677236.73049  -1978171.10047  21748263.690    21748269.799
  20885899.156   -21249979.16249 -16545376.59747  20885899.073    20885903.522
  24361924.386    -4752507.20849  -3695700.33445  24361923.672    24361930.472
  24461200.344    -4604410.79249  -3576545.68345  24461199.744    24461207.714
  20472797.996   -24721648.83249 -19254993.10748  20472797.357    20472803.122
  23668781.524    -7762357.36349  -6025594.08445  23668780.955    23668787.557
 03  6  4  3 57 30.0000000  0  9G20G27G16G 2G13G31G 8G 1G 3
  22481530.761   -14146532.46249 -11013526.14146  22481529.851    22481535.571
  22640105.983   -14115208.34549 -10974397.59346  22640105.471    22640112.105
  22668102.748   -14911029.81849 -11604322.91346  22668102.139    22668107.411
  21757098.644    -2630812.89949  -1941996.68647  21757097.835    21757103.940
  20876747.502   -21298071.03249 -16582850.74147  20876747.429    20876751.916
  24344632.084    -4843377.49449  -3766508.28045  24344631.512    24344638.524
  24445400.818    -4687438.90749  -3641242.85245  24445400.022    24445407.965
  20473970.422   -24715487.45549 -19250192.02648  20473969.806    20473975.567
  23656404.799    -7827397.08249  -6076274.36245  23656404.192    23656410.802
 03  6  4  3 58  0.0000000  0  9G20G27G16G 2G13G31G 8G 1G 3
  22500485.738   -14046923.48449 -10935908.79146  22500484.838    22500490.576
  22629895.789   -14168863.34649 -11016206.66146  22629895.280    22629901.836
  22683152.681   -14831941.63949 -11542695.78746  22683152.071    22683157.410
  21766004.152    -2584014.08949  -1905530.08047  21766003.349    21766009.436
  20867645.650   -21345901.69549 -16620121.35647  20867645.560    20867650.023
  24327338.002    -4934258.60649  -3837324.71645  24327337.325    24327344.209
  24429621.309    -4770359.94549  -3705856.54845  24429620.526    24429628.530
  20475207.314   -24708987.49849 -19245127.11548  20475206.669    20475212.452
  23644076.928    -7892180.87149  -6126755.19945  23644076.167    23644082.780
 03  6  4  3 58 30.0000000  0  9G20G27G16G 2G13G31G 8G 1G 3
  22519489.401   -13947058.68149 -10858092.08946  22519488.552    22519494.290
  22619712.972   -14222374.42749 -11057903.57046  22619712.429    22619719.027
  22698269.454   -14752502.67549 -11480795.30546  22698268.886    22698274.149
  21774980.861    -2536841.39449  -1868772.13647  21774980.045    21774986.110
  20858593.895   -21393468.94849 -16657186.71347  20858593.816    20858598.260
  24310042.551    -5025146.88049  -3908146.66445  24310041.758    24310048.808
  24413862.557    -4853173.01749  -3770386.16945  24413861.825    24413869.750
  20476508.928   -24702147.35549 -19239797.12348  20476508.298    20476514.065
  23631798.342    -7956705.19549  -6177033.86245  23631797.677    23631804.234
 03  6  4  3 59  0.0000000  0  9G20G27G16G 2G13G31G 8G 1G 3
  22538541.206   -13846941.25949 -10780078.54846  22538540.313    22538546.068
  22609557.399   -14275742.28049 -11099488.88546  22609556.860    22609563.378
  22713452.471   -14672715.87649 -11418623.80946  22713451.784    22713457.023
  21784028.282    -2489297.04549  -1831724.59247  21784027.432    21784033.506
  20849592.502   -21440771.40749 -16694045.74447  20849592.448    20849596.861
  24292745.979    -5116039.81849  -3978972.28345  24292745.302    24292752.307
  24398124.237    -4935878.15049  -3834831.65545  24398123.462    24398131.257
  20477875.444   -24694966.49849 -19234201.64648  20477874.802    20477880.529
  23619569.633    -8020967.57549  -6227108.44545  23619569.092    23619575.489
 03  6  4  3 59 30.0000000  0  9G20G27G16G 2G13G31G 8G 1G 3
  22557640.598   -13746573.55949 -10701869.99046  22557639.691    22557645.406
  22599429.120   -14328966.68049 -11140962.40546  22599428.551    22599435.045
  22728701.093   -14592583.29049 -11356182.84346  22728700.508    22728705.729
  21793146.187    -2441382.37049  -1794388.47847  21793145.299    21793151.361
  20840642.000   -21487806.85049 -16730696.70747  20840641.904    20840646.269
  24275449.282    -5206934.03749  -4049798.93645  24275448.547    24275455.526
  24382406.477    -5018474.75449  -3899192.61745  24382405.772    24382413.473
  20479307.050   -24687443.50649 -19228339.56448  20479306.391    20479312.110
  23607391.282    -8084964.90749  -6276976.47145  23607390.694    23607397.245
 03  6  4  4  0  0.0000000  0  9G20G27G16G 2G13G31G 8G 1G 3
  22576786.982   -13645958.54649 -10623468.70246  22576786.126    22576791.816
  22589328.006   -14382047.86049 -11182324.33946  22589327.484    22589333.949
  22744015.087   -14512107.38449 -11293474.37046  22744014.567    22744019.807
  21802334.181    -2393099.03249  -1756765.09747  21802333.299    21802339.365
  20831742.486   -21534573.65449 -16767138.34347  20831742.445    20831746.792
  24258153.052    -5297826.10549  -4120623.87145  24258152.370    24258159.387
  24366709.490    -5100962.58249  -3963468.77445  24366708.669    24366716.384
  20480803.951   -24679577.16049 -19222209.93448  20480803.295    20480809.005
  23595263.968    -8148693.99649  -6326635.46145  23595263.349    23595270.015
 03  6  4  4  0 30.0000000  0  9G20G27G16G 2G13G31G 8G 1G 3
  22595979.752   -13545099.66949 -10544877.39346  22595978.959    22595984.617
  22579254.024   -14434986.82749 -11223575.45546  22579253.488    22579259.996
  22759393.947   -14431291.34249 -11230500.86146  22759393.350    22759398.563
  21811591.881    -2344449.49849  -1718856.36547  21811590.990    21811597.088
  20822894.406   -21581070.64549 -16803369.73847  20822894.360    20822898.660
  24240857.820    -5388713.88449  -4191445.47945  24240857.183    24240863.913
  24351033.257    -5183341.85949  -4027660.35845  24351032.431    24351040.059
  20482366.195   -24671367.21149 -19215812.56748  20482365.563    20482371.280
  23583188.204    -8212152.62349  -6376083.70945  23583187.559    23583194.243
 03  6  4  4  1  0.0000000  0  9G20G27G16G 2G13G31G 8G 1G 3
  22615218.440   -13443999.87649 -10466098.37546  22615217.621    22615223.355
  22569206.995   -14487784.07649 -11264716.14446  22569206.494    22569213.004
  22774836.975   -14350137.77649 -11167264.34646  22774836.389    22774841.621
  21820918.841    -2295435.67149  -1680663.77847  21820917.993    21820924.127
  20814097.973   -21627296.21049 -16839389.63047  20814097.890    20814102.225
  24223563.990    -5479594.51849  -4262261.51245  24223563.067    24223569.654
  24335377.593    -5265612.83649  -4091767.55945  24335376.740    24335384.254
  20483994.012   -24662812.92649 -19209146.88248  20483993.386    20483999.090
  23571164.378    -8275337.75749  -6425318.85445  23571163.753    23571170.526
